<?xml version="1.0" encoding="UTF-8" standalone="no" ?>
<gpx xmlns="http://www.topografix.com/GPX/1/1" xmlns:xsi="http://www.w3.org/2001/XMLSchema-instance" xsi:schemaLocation="http://www.topografix.com/GPX/1/1 http://www.topografix.com/GPX/1/1/gpx.xsd" version="1.1" creator="VisuGPX - https://www.visugpx.com">
  <metadata>
    <name>GR52 / GR5 par Menton</name>
    <desc><![CDATA[Randonnée de 7 jours par le GR5 de Menton en direction du Nord en traversant notamment le parc du Mercantour.Enorme variété de paysages dès le départ et vues imprenables dès les premières heures, on est tout de suite dans le bain. Altitude max 2800 m mais encore pas mal de névés à cette période surtout à la descente vers le refuge de Nice. Comme d'habitude nous avons préféré les bivouacs "into the wild" et nous n'avons pas été déçus ! Terrain correct cependant les 2 premiers jours nécessitent de pouvoir enquiller beaucoup de D+.]]></desc>
  </metadata>
  <wpt lat="43.72679" lon="6.51125">
    <ele>955.9</ele>
    <name><![CDATA[xXSNAjco--.1.3gp]]></name>
  </wpt>
  <wpt lat="43.72679" lon="6.51125">
    <ele>955.9</ele>
    <name><![CDATA[xXSNAjco--.1.3gp]]></name>
  </wpt>
  <trk>
    <name><![CDATA[GR52 / GR5 par Menton_3]]></name>
    <trkseg>
      <trkpt lat="43.98827" lon="7.44271">
        <ele>1829.985</ele>
        <time>2020-06-26T05:16:32Z</time>
      </trkpt>
      <trkpt lat="43.98847" lon="7.44279">
        <ele>1803.21</ele>
        <time>2020-06-26T05:16:47Z</time>
      </trkpt>
      <trkpt lat="43.98865" lon="7.44276">
        <ele>1808.066</ele>
        <time>2020-06-26T05:17:03Z</time>
      </trkpt>
      <trkpt lat="43.98882" lon="7.4428">
        <ele>1815.279</ele>
        <time>2020-06-26T05:17:18Z</time>
      </trkpt>
      <trkpt lat="43.98897" lon="7.4429">
        <ele>1825.128</ele>
        <time>2020-06-26T05:17:33Z</time>
      </trkpt>
      <trkpt lat="43.98915" lon="7.44309">
        <ele>1826.592</ele>
        <time>2020-06-26T05:17:49Z</time>
      </trkpt>
      <trkpt lat="43.9891" lon="7.44335">
        <ele>1828.6</ele>
        <time>2020-06-26T05:18:04Z</time>
      </trkpt>
      <trkpt lat="43.98895" lon="7.44349">
        <ele>1822.449</ele>
        <time>2020-06-26T05:18:20Z</time>
      </trkpt>
      <trkpt lat="43.98879" lon="7.44355">
        <ele>1819.053</ele>
        <time>2020-06-26T05:18:35Z</time>
      </trkpt>
      <trkpt lat="43.98857" lon="7.44356">
        <ele>1821.334</ele>
        <time>2020-06-26T05:18:51Z</time>
      </trkpt>
      <trkpt lat="43.98837" lon="7.4436">
        <ele>1823.89</ele>
        <time>2020-06-26T05:19:07Z</time>
      </trkpt>
      <trkpt lat="43.98819" lon="7.44366">
        <ele>1830.024</ele>
        <time>2020-06-26T05:19:23Z</time>
      </trkpt>
      <trkpt lat="43.98805" lon="7.4437">
        <ele>1830.436</ele>
        <time>2020-06-26T05:19:39Z</time>
      </trkpt>
      <trkpt lat="43.98787" lon="7.44367">
        <ele>1832.956</ele>
        <time>2020-06-26T05:19:54Z</time>
      </trkpt>
      <trkpt lat="43.98767" lon="7.44365">
        <ele>1834.672</ele>
        <time>2020-06-26T05:20:09Z</time>
      </trkpt>
      <trkpt lat="43.98746" lon="7.44364">
        <ele>1837.892</ele>
        <time>2020-06-26T05:20:25Z</time>
      </trkpt>
      <trkpt lat="43.98723" lon="7.44359">
        <ele>1841.539</ele>
        <time>2020-06-26T05:20:41Z</time>
      </trkpt>
      <trkpt lat="43.98706" lon="7.44355">
        <ele>1845.717</ele>
        <time>2020-06-26T05:20:56Z</time>
      </trkpt>
      <trkpt lat="43.98716" lon="7.44359">
        <ele>1849.48</ele>
        <time>2020-06-26T05:21:12Z</time>
      </trkpt>
      <trkpt lat="43.98732" lon="7.4436">
        <ele>1849.253</ele>
        <time>2020-06-26T05:21:28Z</time>
      </trkpt>
      <trkpt lat="43.98753" lon="7.44373">
        <ele>1842.246</ele>
        <time>2020-06-26T05:21:43Z</time>
      </trkpt>
      <trkpt lat="43.98766" lon="7.44387">
        <ele>1845.513</ele>
        <time>2020-06-26T05:21:59Z</time>
      </trkpt>
      <trkpt lat="43.98779" lon="7.44397">
        <ele>1846.657</ele>
        <time>2020-06-26T05:22:14Z</time>
      </trkpt>
      <trkpt lat="43.98806" lon="7.44397">
        <ele>1844.148</ele>
        <time>2020-06-26T05:22:30Z</time>
      </trkpt>
      <trkpt lat="43.98823" lon="7.44404">
        <ele>1846.855</ele>
        <time>2020-06-26T05:22:45Z</time>
      </trkpt>
      <trkpt lat="43.98831" lon="7.44411">
        <ele>1853.829</ele>
        <time>2020-06-26T05:23:00Z</time>
      </trkpt>
      <trkpt lat="43.98848" lon="7.44415">
        <ele>1857.197</ele>
        <time>2020-06-26T05:23:16Z</time>
      </trkpt>
      <trkpt lat="43.98862" lon="7.44415">
        <ele>1858.481</ele>
        <time>2020-06-26T05:23:32Z</time>
      </trkpt>
      <trkpt lat="43.98876" lon="7.4441">
        <ele>1860.344</ele>
        <time>2020-06-26T05:23:48Z</time>
      </trkpt>
      <trkpt lat="43.98895" lon="7.44405">
        <ele>1863.931</ele>
        <time>2020-06-26T05:24:04Z</time>
      </trkpt>
      <trkpt lat="43.98912" lon="7.4441">
        <ele>1864.357</ele>
        <time>2020-06-26T05:24:19Z</time>
      </trkpt>
      <trkpt lat="43.98928" lon="7.44411">
        <ele>1865.44</ele>
        <time>2020-06-26T05:24:35Z</time>
      </trkpt>
      <trkpt lat="43.98941" lon="7.4441">
        <ele>1867.398</ele>
        <time>2020-06-26T05:24:50Z</time>
      </trkpt>
      <trkpt lat="43.9896" lon="7.44408">
        <ele>1867.257</ele>
        <time>2020-06-26T05:25:06Z</time>
      </trkpt>
      <trkpt lat="43.98981" lon="7.4441">
        <ele>1870.982</ele>
        <time>2020-06-26T05:25:22Z</time>
      </trkpt>
      <trkpt lat="43.98997" lon="7.44408">
        <ele>1873.231</ele>
        <time>2020-06-26T05:25:38Z</time>
      </trkpt>
      <trkpt lat="43.99013" lon="7.44411">
        <ele>1873.838</ele>
        <time>2020-06-26T05:25:54Z</time>
      </trkpt>
      <trkpt lat="43.99028" lon="7.44414">
        <ele>1872.829</ele>
        <time>2020-06-26T05:26:10Z</time>
      </trkpt>
      <trkpt lat="43.99043" lon="7.4442">
        <ele>1878.55</ele>
        <time>2020-06-26T05:26:25Z</time>
      </trkpt>
      <trkpt lat="43.99061" lon="7.44427">
        <ele>1884.352</ele>
        <time>2020-06-26T05:26:41Z</time>
      </trkpt>
      <trkpt lat="43.99077" lon="7.44435">
        <ele>1885.97</ele>
        <time>2020-06-26T05:26:57Z</time>
      </trkpt>
      <trkpt lat="43.99091" lon="7.44445">
        <ele>1888.456</ele>
        <time>2020-06-26T05:27:12Z</time>
      </trkpt>
      <trkpt lat="43.99103" lon="7.44453">
        <ele>1889.787</ele>
        <time>2020-06-26T05:27:27Z</time>
      </trkpt>
      <trkpt lat="43.99121" lon="7.44458">
        <ele>1890.787</ele>
        <time>2020-06-26T05:27:43Z</time>
      </trkpt>
      <trkpt lat="43.99136" lon="7.44448">
        <ele>1891.383</ele>
        <time>2020-06-26T05:27:58Z</time>
      </trkpt>
      <trkpt lat="43.9915" lon="7.44441">
        <ele>1890.71</ele>
        <time>2020-06-26T05:28:14Z</time>
      </trkpt>
      <trkpt lat="43.99167" lon="7.44436">
        <ele>1891.915</ele>
        <time>2020-06-26T05:28:30Z</time>
      </trkpt>
      <trkpt lat="43.99182" lon="7.44432">
        <ele>1893.029</ele>
        <time>2020-06-26T05:28:45Z</time>
      </trkpt>
      <trkpt lat="43.99196" lon="7.44423">
        <ele>1896.293</ele>
        <time>2020-06-26T05:29:00Z</time>
      </trkpt>
      <trkpt lat="43.9921" lon="7.44418">
        <ele>1898.023</ele>
        <time>2020-06-26T05:29:16Z</time>
      </trkpt>
      <trkpt lat="43.99227" lon="7.44417">
        <ele>1900.386</ele>
        <time>2020-06-26T05:29:32Z</time>
      </trkpt>
      <trkpt lat="43.99242" lon="7.44415">
        <ele>1902.039</ele>
        <time>2020-06-26T05:29:48Z</time>
      </trkpt>
      <trkpt lat="43.99262" lon="7.44418">
        <ele>1902.15</ele>
        <time>2020-06-26T05:30:03Z</time>
      </trkpt>
      <trkpt lat="43.99278" lon="7.4442">
        <ele>1906.532</ele>
        <time>2020-06-26T05:30:19Z</time>
      </trkpt>
      <trkpt lat="43.99293" lon="7.44423">
        <ele>1906.467</ele>
        <time>2020-06-26T05:30:35Z</time>
      </trkpt>
      <trkpt lat="43.99308" lon="7.44427">
        <ele>1908.261</ele>
        <time>2020-06-26T05:30:51Z</time>
      </trkpt>
      <trkpt lat="43.99325" lon="7.44433">
        <ele>1909.212</ele>
        <time>2020-06-26T05:31:07Z</time>
      </trkpt>
      <trkpt lat="43.9934" lon="7.4444">
        <ele>1911.606</ele>
        <time>2020-06-26T05:31:22Z</time>
      </trkpt>
      <trkpt lat="43.99356" lon="7.44439">
        <ele>1912.895</ele>
        <time>2020-06-26T05:31:37Z</time>
      </trkpt>
      <trkpt lat="43.99374" lon="7.44438">
        <ele>1915.133</ele>
        <time>2020-06-26T05:31:52Z</time>
      </trkpt>
      <trkpt lat="43.99392" lon="7.44437">
        <ele>1915.959</ele>
        <time>2020-06-26T05:32:08Z</time>
      </trkpt>
      <trkpt lat="43.99409" lon="7.4443">
        <ele>1915.585</ele>
        <time>2020-06-26T05:32:24Z</time>
      </trkpt>
      <trkpt lat="43.99425" lon="7.44427">
        <ele>1916.49</ele>
        <time>2020-06-26T05:32:39Z</time>
      </trkpt>
      <trkpt lat="43.9944" lon="7.44419">
        <ele>1918.225</ele>
        <time>2020-06-26T05:32:55Z</time>
      </trkpt>
      <trkpt lat="43.99457" lon="7.44411">
        <ele>1920.768</ele>
        <time>2020-06-26T05:33:10Z</time>
      </trkpt>
      <trkpt lat="43.99469" lon="7.44405">
        <ele>1923.062</ele>
        <time>2020-06-26T05:33:26Z</time>
      </trkpt>
      <trkpt lat="43.99485" lon="7.444">
        <ele>1920.971</ele>
        <time>2020-06-26T05:33:41Z</time>
      </trkpt>
      <trkpt lat="43.99504" lon="7.44395">
        <ele>1924.492</ele>
        <time>2020-06-26T05:33:57Z</time>
      </trkpt>
      <trkpt lat="43.99506" lon="7.44395">
        <ele>1926.829</ele>
        <time>2020-06-26T05:34:13Z</time>
      </trkpt>
      <trkpt lat="43.99506" lon="7.44395">
        <ele>1926.829</ele>
        <time>2020-06-26T05:34:28Z</time>
      </trkpt>
      <trkpt lat="43.99506" lon="7.44395">
        <ele>1926.829</ele>
        <time>2020-06-26T05:34:44Z</time>
      </trkpt>
      <trkpt lat="43.99506" lon="7.44395">
        <ele>1926.829</ele>
        <time>2020-06-26T05:34:59Z</time>
      </trkpt>
      <trkpt lat="43.99506" lon="7.44395">
        <ele>1926.829</ele>
        <time>2020-06-26T05:35:15Z</time>
      </trkpt>
      <trkpt lat="43.99506" lon="7.44395">
        <ele>1926.829</ele>
        <time>2020-06-26T05:35:30Z</time>
      </trkpt>
      <trkpt lat="43.99506" lon="7.44395">
        <ele>1926.829</ele>
        <time>2020-06-26T05:35:46Z</time>
      </trkpt>
      <trkpt lat="43.99506" lon="7.44395">
        <ele>1926.829</ele>
        <time>2020-06-26T05:36:01Z</time>
      </trkpt>
      <trkpt lat="43.99506" lon="7.44395">
        <ele>1926.829</ele>
        <time>2020-06-26T05:36:17Z</time>
      </trkpt>
      <trkpt lat="43.99506" lon="7.44395">
        <ele>1926.829</ele>
        <time>2020-06-26T05:36:33Z</time>
      </trkpt>
      <trkpt lat="43.99506" lon="7.44395">
        <ele>1926.829</ele>
        <time>2020-06-26T05:36:48Z</time>
      </trkpt>
      <trkpt lat="43.99506" lon="7.44393">
        <ele>1928.384</ele>
        <time>2020-06-26T05:37:04Z</time>
      </trkpt>
      <trkpt lat="43.99506" lon="7.44393">
        <ele>1929.138</ele>
        <time>2020-06-26T05:37:19Z</time>
      </trkpt>
      <trkpt lat="43.99506" lon="7.44393">
        <ele>1929.138</ele>
        <time>2020-06-26T05:37:35Z</time>
      </trkpt>
      <trkpt lat="43.99506" lon="7.44393">
        <ele>1929.138</ele>
        <time>2020-06-26T05:37:51Z</time>
      </trkpt>
      <trkpt lat="43.99506" lon="7.44393">
        <ele>1929.138</ele>
        <time>2020-06-26T05:38:07Z</time>
      </trkpt>
      <trkpt lat="43.99514" lon="7.44383">
        <ele>1930.886</ele>
        <time>2020-06-26T05:38:23Z</time>
      </trkpt>
      <trkpt lat="43.99526" lon="7.44379">
        <ele>1931.096</ele>
        <time>2020-06-26T05:38:39Z</time>
      </trkpt>
      <trkpt lat="43.99537" lon="7.44372">
        <ele>1932.55</ele>
        <time>2020-06-26T05:38:54Z</time>
      </trkpt>
      <trkpt lat="43.99553" lon="7.44366">
        <ele>1934.396</ele>
        <time>2020-06-26T05:39:10Z</time>
      </trkpt>
      <trkpt lat="43.99568" lon="7.44359">
        <ele>1935.015</ele>
        <time>2020-06-26T05:39:25Z</time>
      </trkpt>
      <trkpt lat="43.99583" lon="7.44355">
        <ele>1935.81</ele>
        <time>2020-06-26T05:39:41Z</time>
      </trkpt>
      <trkpt lat="43.99597" lon="7.44353">
        <ele>1941.149</ele>
        <time>2020-06-26T05:39:57Z</time>
      </trkpt>
      <trkpt lat="43.99606" lon="7.44353">
        <ele>1941.127</ele>
        <time>2020-06-26T05:40:12Z</time>
      </trkpt>
      <trkpt lat="43.99614" lon="7.44338">
        <ele>1944.248</ele>
        <time>2020-06-26T05:40:28Z</time>
      </trkpt>
      <trkpt lat="43.99625" lon="7.44324">
        <ele>1943.687</ele>
        <time>2020-06-26T05:40:44Z</time>
      </trkpt>
      <trkpt lat="43.99624" lon="7.44323">
        <ele>1943.776</ele>
        <time>2020-06-26T05:41:00Z</time>
      </trkpt>
      <trkpt lat="43.99624" lon="7.44323">
        <ele>1943.776</ele>
        <time>2020-06-26T05:41:15Z</time>
      </trkpt>
      <trkpt lat="43.99624" lon="7.44321">
        <ele>1943.945</ele>
        <time>2020-06-26T05:41:30Z</time>
      </trkpt>
      <trkpt lat="43.99625" lon="7.44322">
        <ele>1942.344</ele>
        <time>2020-06-26T05:41:46Z</time>
      </trkpt>
      <trkpt lat="43.99629" lon="7.44317">
        <ele>1942.118</ele>
        <time>2020-06-26T05:42:01Z</time>
      </trkpt>
      <trkpt lat="43.99639" lon="7.443">
        <ele>1942.803</ele>
        <time>2020-06-26T05:42:17Z</time>
      </trkpt>
      <trkpt lat="43.99649" lon="7.44286">
        <ele>1944.048</ele>
        <time>2020-06-26T05:42:33Z</time>
      </trkpt>
      <trkpt lat="43.99659" lon="7.44267">
        <ele>1945.437</ele>
        <time>2020-06-26T05:42:49Z</time>
      </trkpt>
      <trkpt lat="43.9967" lon="7.4425">
        <ele>1944.403</ele>
        <time>2020-06-26T05:43:05Z</time>
      </trkpt>
      <trkpt lat="43.99679" lon="7.44231">
        <ele>1946.887</ele>
        <time>2020-06-26T05:43:20Z</time>
      </trkpt>
      <trkpt lat="43.99681" lon="7.44219">
        <ele>1947.021</ele>
        <time>2020-06-26T05:43:36Z</time>
      </trkpt>
      <trkpt lat="43.99682" lon="7.44208">
        <ele>1948.01</ele>
        <time>2020-06-26T05:43:51Z</time>
      </trkpt>
      <trkpt lat="43.9968" lon="7.44186">
        <ele>1952.382</ele>
        <time>2020-06-26T05:44:07Z</time>
      </trkpt>
      <trkpt lat="43.99683" lon="7.44167">
        <ele>1953.497</ele>
        <time>2020-06-26T05:44:22Z</time>
      </trkpt>
      <trkpt lat="43.99688" lon="7.44142">
        <ele>1956.657</ele>
        <time>2020-06-26T05:44:38Z</time>
      </trkpt>
      <trkpt lat="43.99695" lon="7.44124">
        <ele>1955.867</ele>
        <time>2020-06-26T05:44:53Z</time>
      </trkpt>
      <trkpt lat="43.99704" lon="7.44105">
        <ele>1957.465</ele>
        <time>2020-06-26T05:45:09Z</time>
      </trkpt>
      <trkpt lat="43.99716" lon="7.44086">
        <ele>1959.654</ele>
        <time>2020-06-26T05:45:25Z</time>
      </trkpt>
      <trkpt lat="43.99728" lon="7.44072">
        <ele>1960.38</ele>
        <time>2020-06-26T05:45:41Z</time>
      </trkpt>
      <trkpt lat="43.99736" lon="7.44061">
        <ele>1961.884</ele>
        <time>2020-06-26T05:45:57Z</time>
      </trkpt>
      <trkpt lat="43.99742" lon="7.44047">
        <ele>1959.731</ele>
        <time>2020-06-26T05:46:12Z</time>
      </trkpt>
      <trkpt lat="43.99753" lon="7.4403">
        <ele>1959.256</ele>
        <time>2020-06-26T05:46:28Z</time>
      </trkpt>
      <trkpt lat="43.99765" lon="7.44012">
        <ele>1960.246</ele>
        <time>2020-06-26T05:46:43Z</time>
      </trkpt>
      <trkpt lat="43.99777" lon="7.43992">
        <ele>1962.281</ele>
        <time>2020-06-26T05:46:58Z</time>
      </trkpt>
      <trkpt lat="43.99791" lon="7.43976">
        <ele>1966.182</ele>
        <time>2020-06-26T05:47:14Z</time>
      </trkpt>
      <trkpt lat="43.99804" lon="7.43961">
        <ele>1966.661</ele>
        <time>2020-06-26T05:47:29Z</time>
      </trkpt>
      <trkpt lat="43.99819" lon="7.43941">
        <ele>1970.383</ele>
        <time>2020-06-26T05:47:45Z</time>
      </trkpt>
      <trkpt lat="43.99832" lon="7.43933">
        <ele>1972.885</ele>
        <time>2020-06-26T05:48:00Z</time>
      </trkpt>
      <trkpt lat="43.9985" lon="7.43928">
        <ele>1972.268</ele>
        <time>2020-06-26T05:48:16Z</time>
      </trkpt>
      <trkpt lat="43.99868" lon="7.43919">
        <ele>1975.812</ele>
        <time>2020-06-26T05:48:32Z</time>
      </trkpt>
      <trkpt lat="43.99874" lon="7.43911">
        <ele>1975.963</ele>
        <time>2020-06-26T05:48:48Z</time>
      </trkpt>
      <trkpt lat="43.9988" lon="7.43902">
        <ele>1977.147</ele>
        <time>2020-06-26T05:49:03Z</time>
      </trkpt>
      <trkpt lat="43.9988" lon="7.43902">
        <ele>1977.147</ele>
        <time>2020-06-26T05:49:19Z</time>
      </trkpt>
      <trkpt lat="43.9988" lon="7.43902">
        <ele>1977.147</ele>
        <time>2020-06-26T05:49:34Z</time>
      </trkpt>
      <trkpt lat="43.99887" lon="7.43891">
        <ele>1978.397</ele>
        <time>2020-06-26T05:49:50Z</time>
      </trkpt>
      <trkpt lat="43.99889" lon="7.43864">
        <ele>1978.858</ele>
        <time>2020-06-26T05:50:05Z</time>
      </trkpt>
      <trkpt lat="43.99893" lon="7.4384">
        <ele>1978.826</ele>
        <time>2020-06-26T05:50:21Z</time>
      </trkpt>
      <trkpt lat="43.99896" lon="7.43817">
        <ele>1981.454</ele>
        <time>2020-06-26T05:50:37Z</time>
      </trkpt>
      <trkpt lat="43.99903" lon="7.43795">
        <ele>1983.528</ele>
        <time>2020-06-26T05:50:52Z</time>
      </trkpt>
      <trkpt lat="43.99909" lon="7.43775">
        <ele>1982.537</ele>
        <time>2020-06-26T05:51:07Z</time>
      </trkpt>
      <trkpt lat="43.99914" lon="7.43757">
        <ele>1986.734</ele>
        <time>2020-06-26T05:51:22Z</time>
      </trkpt>
      <trkpt lat="43.99919" lon="7.43736">
        <ele>1988.939</ele>
        <time>2020-06-26T05:51:37Z</time>
      </trkpt>
      <trkpt lat="43.99922" lon="7.43712">
        <ele>1992.789</ele>
        <time>2020-06-26T05:51:53Z</time>
      </trkpt>
      <trkpt lat="43.99922" lon="7.43689">
        <ele>1993.801</ele>
        <time>2020-06-26T05:52:08Z</time>
      </trkpt>
      <trkpt lat="43.99922" lon="7.43667">
        <ele>1996.391</ele>
        <time>2020-06-26T05:52:24Z</time>
      </trkpt>
      <trkpt lat="43.99927" lon="7.43645">
        <ele>1997.598</ele>
        <time>2020-06-26T05:52:40Z</time>
      </trkpt>
      <trkpt lat="43.99934" lon="7.4362">
        <ele>1994.752</ele>
        <time>2020-06-26T05:52:56Z</time>
      </trkpt>
      <trkpt lat="43.99939" lon="7.436">
        <ele>1996.421</ele>
        <time>2020-06-26T05:53:12Z</time>
      </trkpt>
      <trkpt lat="43.99948" lon="7.43583">
        <ele>1997.756</ele>
        <time>2020-06-26T05:53:27Z</time>
      </trkpt>
      <trkpt lat="43.9995" lon="7.43561">
        <ele>1999.606</ele>
        <time>2020-06-26T05:53:42Z</time>
      </trkpt>
      <trkpt lat="43.99936" lon="7.43552">
        <ele>2002.274</ele>
        <time>2020-06-26T05:53:58Z</time>
      </trkpt>
      <trkpt lat="43.99923" lon="7.43538">
        <ele>2006.757</ele>
        <time>2020-06-26T05:54:14Z</time>
      </trkpt>
      <trkpt lat="43.99908" lon="7.43523">
        <ele>2008.133</ele>
        <time>2020-06-26T05:54:30Z</time>
      </trkpt>
      <trkpt lat="43.99894" lon="7.43505">
        <ele>2012.688</ele>
        <time>2020-06-26T05:54:46Z</time>
      </trkpt>
      <trkpt lat="43.99882" lon="7.43493">
        <ele>2016.94</ele>
        <time>2020-06-26T05:55:01Z</time>
      </trkpt>
      <trkpt lat="43.99873" lon="7.43476">
        <ele>2019.799</ele>
        <time>2020-06-26T05:55:17Z</time>
      </trkpt>
      <trkpt lat="43.99868" lon="7.43454">
        <ele>2022.497</ele>
        <time>2020-06-26T05:55:33Z</time>
      </trkpt>
      <trkpt lat="43.99867" lon="7.43434">
        <ele>2022.756</ele>
        <time>2020-06-26T05:55:48Z</time>
      </trkpt>
      <trkpt lat="43.99871" lon="7.43413">
        <ele>2024.404</ele>
        <time>2020-06-26T05:56:04Z</time>
      </trkpt>
      <trkpt lat="43.99875" lon="7.43391">
        <ele>2023.897</ele>
        <time>2020-06-26T05:56:19Z</time>
      </trkpt>
      <trkpt lat="43.9988" lon="7.43368">
        <ele>2020.074</ele>
        <time>2020-06-26T05:56:34Z</time>
      </trkpt>
      <trkpt lat="43.99882" lon="7.43349">
        <ele>2020.795</ele>
        <time>2020-06-26T05:56:50Z</time>
      </trkpt>
      <trkpt lat="43.99883" lon="7.43328">
        <ele>2026.111</ele>
        <time>2020-06-26T05:57:06Z</time>
      </trkpt>
      <trkpt lat="43.99887" lon="7.43303">
        <ele>2026.958</ele>
        <time>2020-06-26T05:57:21Z</time>
      </trkpt>
      <trkpt lat="43.99891" lon="7.43284">
        <ele>2028.05</ele>
        <time>2020-06-26T05:57:36Z</time>
      </trkpt>
      <trkpt lat="43.99891" lon="7.43264">
        <ele>2029.681</ele>
        <time>2020-06-26T05:57:52Z</time>
      </trkpt>
      <trkpt lat="43.99894" lon="7.43244">
        <ele>2033.795</ele>
        <time>2020-06-26T05:58:07Z</time>
      </trkpt>
      <trkpt lat="43.99896" lon="7.43221">
        <ele>2035.25</ele>
        <time>2020-06-26T05:58:22Z</time>
      </trkpt>
      <trkpt lat="43.99898" lon="7.43197">
        <ele>2036.159</ele>
        <time>2020-06-26T05:58:37Z</time>
      </trkpt>
      <trkpt lat="43.99899" lon="7.43176">
        <ele>2037.018</ele>
        <time>2020-06-26T05:58:52Z</time>
      </trkpt>
      <trkpt lat="43.99902" lon="7.43155">
        <ele>2037.447</ele>
        <time>2020-06-26T05:59:07Z</time>
      </trkpt>
      <trkpt lat="43.99902" lon="7.43136">
        <ele>2041.142</ele>
        <time>2020-06-26T05:59:23Z</time>
      </trkpt>
      <trkpt lat="43.99903" lon="7.43111">
        <ele>2043.309</ele>
        <time>2020-06-26T05:59:39Z</time>
      </trkpt>
      <trkpt lat="43.99899" lon="7.43091">
        <ele>2049.469</ele>
        <time>2020-06-26T05:59:54Z</time>
      </trkpt>
      <trkpt lat="43.99896" lon="7.43068">
        <ele>2053.804</ele>
        <time>2020-06-26T06:00:09Z</time>
      </trkpt>
      <trkpt lat="43.99888" lon="7.43048">
        <ele>2053.048</ele>
        <time>2020-06-26T06:00:25Z</time>
      </trkpt>
      <trkpt lat="43.99879" lon="7.4303">
        <ele>2055.392</ele>
        <time>2020-06-26T06:00:40Z</time>
      </trkpt>
      <trkpt lat="43.99868" lon="7.43012">
        <ele>2058.004</ele>
        <time>2020-06-26T06:00:56Z</time>
      </trkpt>
      <trkpt lat="43.9986" lon="7.42998">
        <ele>2060.236</ele>
        <time>2020-06-26T06:01:11Z</time>
      </trkpt>
      <trkpt lat="43.99849" lon="7.42988">
        <ele>2061.378</ele>
        <time>2020-06-26T06:01:26Z</time>
      </trkpt>
      <trkpt lat="43.99837" lon="7.42971">
        <ele>2056.39</ele>
        <time>2020-06-26T06:01:42Z</time>
      </trkpt>
      <trkpt lat="43.99833" lon="7.42962">
        <ele>2055.204</ele>
        <time>2020-06-26T06:01:58Z</time>
      </trkpt>
      <trkpt lat="43.99833" lon="7.42962">
        <ele>2055.204</ele>
        <time>2020-06-26T06:02:14Z</time>
      </trkpt>
      <trkpt lat="43.99833" lon="7.42962">
        <ele>2055.204</ele>
        <time>2020-06-26T06:02:30Z</time>
      </trkpt>
      <trkpt lat="43.99833" lon="7.42962">
        <ele>2055.204</ele>
        <time>2020-06-26T06:02:46Z</time>
      </trkpt>
      <trkpt lat="43.99828" lon="7.42936">
        <ele>2056.094</ele>
        <time>2020-06-26T06:03:01Z</time>
      </trkpt>
      <trkpt lat="43.99824" lon="7.42913">
        <ele>2060.77</ele>
        <time>2020-06-26T06:03:17Z</time>
      </trkpt>
      <trkpt lat="43.99817" lon="7.42897">
        <ele>2061.775</ele>
        <time>2020-06-26T06:03:32Z</time>
      </trkpt>
      <trkpt lat="43.99812" lon="7.42874">
        <ele>2060.548</ele>
        <time>2020-06-26T06:03:47Z</time>
      </trkpt>
      <trkpt lat="43.99811" lon="7.42855">
        <ele>2062.806</ele>
        <time>2020-06-26T06:04:03Z</time>
      </trkpt>
      <trkpt lat="43.99813" lon="7.42833">
        <ele>2066.363</ele>
        <time>2020-06-26T06:04:18Z</time>
      </trkpt>
      <trkpt lat="43.99818" lon="7.4281">
        <ele>2065.468</ele>
        <time>2020-06-26T06:04:34Z</time>
      </trkpt>
      <trkpt lat="43.99821" lon="7.42788">
        <ele>2069.933</ele>
        <time>2020-06-26T06:04:50Z</time>
      </trkpt>
      <trkpt lat="43.99827" lon="7.42778">
        <ele>2071.949</ele>
        <time>2020-06-26T06:05:06Z</time>
      </trkpt>
      <trkpt lat="43.99827" lon="7.42775">
        <ele>2072.485</ele>
        <time>2020-06-26T06:05:22Z</time>
      </trkpt>
      <trkpt lat="43.99827" lon="7.42775">
        <ele>2072.485</ele>
        <time>2020-06-26T06:05:38Z</time>
      </trkpt>
      <trkpt lat="43.99827" lon="7.42775">
        <ele>2072.485</ele>
        <time>2020-06-26T06:05:54Z</time>
      </trkpt>
      <trkpt lat="43.99827" lon="7.42775">
        <ele>2072.485</ele>
        <time>2020-06-26T06:06:10Z</time>
      </trkpt>
      <trkpt lat="43.99827" lon="7.42775">
        <ele>2072.485</ele>
        <time>2020-06-26T06:06:26Z</time>
      </trkpt>
      <trkpt lat="43.99827" lon="7.42775">
        <ele>2072.005</ele>
        <time>2020-06-26T06:06:41Z</time>
      </trkpt>
      <trkpt lat="43.99826" lon="7.42774">
        <ele>2072.039</ele>
        <time>2020-06-26T06:06:57Z</time>
      </trkpt>
      <trkpt lat="43.99826" lon="7.42774">
        <ele>2071.74</ele>
        <time>2020-06-26T06:07:12Z</time>
      </trkpt>
      <trkpt lat="43.99826" lon="7.42774">
        <ele>2071.74</ele>
        <time>2020-06-26T06:07:28Z</time>
      </trkpt>
      <trkpt lat="43.99826" lon="7.42774">
        <ele>2071.74</ele>
        <time>2020-06-26T06:07:43Z</time>
      </trkpt>
      <trkpt lat="43.99825" lon="7.42773">
        <ele>2071.104</ele>
        <time>2020-06-26T06:07:59Z</time>
      </trkpt>
      <trkpt lat="43.99825" lon="7.42773">
        <ele>2071.104</ele>
        <time>2020-06-26T06:08:14Z</time>
      </trkpt>
      <trkpt lat="43.99827" lon="7.42773">
        <ele>2071.386</ele>
        <time>2020-06-26T06:08:30Z</time>
      </trkpt>
      <trkpt lat="43.99827" lon="7.42773">
        <ele>2071.386</ele>
        <time>2020-06-26T06:08:46Z</time>
      </trkpt>
      <trkpt lat="43.99827" lon="7.42773">
        <ele>2071.386</ele>
        <time>2020-06-26T06:09:02Z</time>
      </trkpt>
      <trkpt lat="43.99826" lon="7.42771">
        <ele>2071.333</ele>
        <time>2020-06-26T06:09:18Z</time>
      </trkpt>
      <trkpt lat="43.99826" lon="7.42771">
        <ele>2071.333</ele>
        <time>2020-06-26T06:09:34Z</time>
      </trkpt>
      <trkpt lat="43.99821" lon="7.42773">
        <ele>2067.362</ele>
        <time>2020-06-26T06:09:50Z</time>
      </trkpt>
      <trkpt lat="43.99821" lon="7.42773">
        <ele>2067.362</ele>
        <time>2020-06-26T06:10:06Z</time>
      </trkpt>
      <trkpt lat="43.99821" lon="7.42773">
        <ele>2067.49</ele>
        <time>2020-06-26T06:10:21Z</time>
      </trkpt>
      <trkpt lat="43.99822" lon="7.42773">
        <ele>2067.49</ele>
        <time>2020-06-26T06:10:37Z</time>
      </trkpt>
      <trkpt lat="43.9982" lon="7.42774">
        <ele>2068.413</ele>
        <time>2020-06-26T06:10:52Z</time>
      </trkpt>
      <trkpt lat="43.9982" lon="7.42774">
        <ele>2068.413</ele>
        <time>2020-06-26T06:11:08Z</time>
      </trkpt>
      <trkpt lat="43.9982" lon="7.42774">
        <ele>2068.413</ele>
        <time>2020-06-26T06:11:23Z</time>
      </trkpt>
      <trkpt lat="43.9982" lon="7.42774">
        <ele>2068.413</ele>
        <time>2020-06-26T06:11:39Z</time>
      </trkpt>
      <trkpt lat="43.9982" lon="7.42774">
        <ele>2068.413</ele>
        <time>2020-06-26T06:11:54Z</time>
      </trkpt>
      <trkpt lat="43.9982" lon="7.42775">
        <ele>2068.788</ele>
        <time>2020-06-26T06:12:10Z</time>
      </trkpt>
      <trkpt lat="43.9982" lon="7.42775">
        <ele>2069.02</ele>
        <time>2020-06-26T06:12:25Z</time>
      </trkpt>
      <trkpt lat="43.99832" lon="7.42783">
        <ele>2070.575</ele>
        <time>2020-06-26T06:12:41Z</time>
      </trkpt>
      <trkpt lat="43.99833" lon="7.42785">
        <ele>2070.846</ele>
        <time>2020-06-26T06:12:57Z</time>
      </trkpt>
      <trkpt lat="43.99833" lon="7.4279">
        <ele>2070.514</ele>
        <time>2020-06-26T06:13:12Z</time>
      </trkpt>
      <trkpt lat="43.99833" lon="7.42809">
        <ele>2067.849</ele>
        <time>2020-06-26T06:13:28Z</time>
      </trkpt>
      <trkpt lat="43.99839" lon="7.42834">
        <ele>2067.864</ele>
        <time>2020-06-26T06:13:43Z</time>
      </trkpt>
      <trkpt lat="43.99845" lon="7.42857">
        <ele>2071.685</ele>
        <time>2020-06-26T06:13:58Z</time>
      </trkpt>
      <trkpt lat="43.99855" lon="7.42878">
        <ele>2071.594</ele>
        <time>2020-06-26T06:14:14Z</time>
      </trkpt>
      <trkpt lat="43.99861" lon="7.42897">
        <ele>2072.302</ele>
        <time>2020-06-26T06:14:29Z</time>
      </trkpt>
      <trkpt lat="43.9987" lon="7.42918">
        <ele>2073.275</ele>
        <time>2020-06-26T06:14:45Z</time>
      </trkpt>
      <trkpt lat="43.99875" lon="7.42939">
        <ele>2073.88</ele>
        <time>2020-06-26T06:15:00Z</time>
      </trkpt>
      <trkpt lat="43.99886" lon="7.42955">
        <ele>2075.362</ele>
        <time>2020-06-26T06:15:16Z</time>
      </trkpt>
      <trkpt lat="43.999" lon="7.42975">
        <ele>2080.54</ele>
        <time>2020-06-26T06:15:32Z</time>
      </trkpt>
      <trkpt lat="43.99911" lon="7.4299">
        <ele>2086.076</ele>
        <time>2020-06-26T06:15:47Z</time>
      </trkpt>
      <trkpt lat="43.99922" lon="7.43003">
        <ele>2088.733</ele>
        <time>2020-06-26T06:16:02Z</time>
      </trkpt>
      <trkpt lat="43.99935" lon="7.43022">
        <ele>2087.235</ele>
        <time>2020-06-26T06:16:18Z</time>
      </trkpt>
      <trkpt lat="43.99944" lon="7.43037">
        <ele>2086.439</ele>
        <time>2020-06-26T06:16:33Z</time>
      </trkpt>
      <trkpt lat="43.99957" lon="7.43056">
        <ele>2082.941</ele>
        <time>2020-06-26T06:16:48Z</time>
      </trkpt>
      <trkpt lat="43.99969" lon="7.43077">
        <ele>2082.848</ele>
        <time>2020-06-26T06:17:04Z</time>
      </trkpt>
      <trkpt lat="43.99972" lon="7.43095">
        <ele>2084.977</ele>
        <time>2020-06-26T06:17:19Z</time>
      </trkpt>
      <trkpt lat="43.99984" lon="7.43115">
        <ele>2086.713</ele>
        <time>2020-06-26T06:17:34Z</time>
      </trkpt>
      <trkpt lat="43.99992" lon="7.43134">
        <ele>2087.332</ele>
        <time>2020-06-26T06:17:50Z</time>
      </trkpt>
      <trkpt lat="43.99998" lon="7.43157">
        <ele>2083.758</ele>
        <time>2020-06-26T06:18:06Z</time>
      </trkpt>
      <trkpt lat="43.99996" lon="7.4318">
        <ele>2085.702</ele>
        <time>2020-06-26T06:18:21Z</time>
      </trkpt>
      <trkpt lat="43.99995" lon="7.43201">
        <ele>2089.273</ele>
        <time>2020-06-26T06:18:36Z</time>
      </trkpt>
      <trkpt lat="43.99993" lon="7.43225">
        <ele>2092.645</ele>
        <time>2020-06-26T06:18:52Z</time>
      </trkpt>
      <trkpt lat="43.99994" lon="7.43249">
        <ele>2096.841</ele>
        <time>2020-06-26T06:19:08Z</time>
      </trkpt>
      <trkpt lat="43.99994" lon="7.43271">
        <ele>2100.291</ele>
        <time>2020-06-26T06:19:23Z</time>
      </trkpt>
      <trkpt lat="44.00003" lon="7.43289">
        <ele>2102.586</ele>
        <time>2020-06-26T06:19:39Z</time>
      </trkpt>
      <trkpt lat="44.00017" lon="7.43278">
        <ele>2103.729</ele>
        <time>2020-06-26T06:19:55Z</time>
      </trkpt>
      <trkpt lat="44.00029" lon="7.43265">
        <ele>2103.37</ele>
        <time>2020-06-26T06:20:11Z</time>
      </trkpt>
      <trkpt lat="44.00039" lon="7.4325">
        <ele>2100.141</ele>
        <time>2020-06-26T06:20:27Z</time>
      </trkpt>
      <trkpt lat="44.00046" lon="7.43245">
        <ele>2100.785</ele>
        <time>2020-06-26T06:20:43Z</time>
      </trkpt>
      <trkpt lat="44.00046" lon="7.43245">
        <ele>2100.785</ele>
        <time>2020-06-26T06:20:58Z</time>
      </trkpt>
      <trkpt lat="44.00046" lon="7.43245">
        <ele>2100.785</ele>
        <time>2020-06-26T06:21:14Z</time>
      </trkpt>
      <trkpt lat="44.00046" lon="7.43245">
        <ele>2100.785</ele>
        <time>2020-06-26T06:21:29Z</time>
      </trkpt>
      <trkpt lat="44.00048" lon="7.43247">
        <ele>2100.776</ele>
        <time>2020-06-26T06:21:45Z</time>
      </trkpt>
      <trkpt lat="44.00048" lon="7.43244">
        <ele>2101.183</ele>
        <time>2020-06-26T06:22:00Z</time>
      </trkpt>
      <trkpt lat="44.00049" lon="7.43242">
        <ele>2101.407</ele>
        <time>2020-06-26T06:22:16Z</time>
      </trkpt>
      <trkpt lat="44.00047" lon="7.43241">
        <ele>2101.295</ele>
        <time>2020-06-26T06:22:31Z</time>
      </trkpt>
      <trkpt lat="44.00041" lon="7.4322">
        <ele>2103.008</ele>
        <time>2020-06-26T06:22:46Z</time>
      </trkpt>
      <trkpt lat="44.00039" lon="7.43191">
        <ele>2104.329</ele>
        <time>2020-06-26T06:23:02Z</time>
      </trkpt>
      <trkpt lat="44.00035" lon="7.43168">
        <ele>2103.998</ele>
        <time>2020-06-26T06:23:18Z</time>
      </trkpt>
      <trkpt lat="44.00035" lon="7.43168">
        <ele>2103.591</ele>
        <time>2020-06-26T06:23:34Z</time>
      </trkpt>
      <trkpt lat="44.0004" lon="7.43171">
        <ele>2103.801</ele>
        <time>2020-06-26T06:23:50Z</time>
      </trkpt>
      <trkpt lat="44.00046" lon="7.43195">
        <ele>2101.878</ele>
        <time>2020-06-26T06:24:06Z</time>
      </trkpt>
      <trkpt lat="44.00046" lon="7.43216">
        <ele>2096.321</ele>
        <time>2020-06-26T06:24:21Z</time>
      </trkpt>
      <trkpt lat="44.00055" lon="7.43225">
        <ele>2093.456</ele>
        <time>2020-06-26T06:24:37Z</time>
      </trkpt>
      <trkpt lat="44.00076" lon="7.43219">
        <ele>2097.495</ele>
        <time>2020-06-26T06:24:53Z</time>
      </trkpt>
      <trkpt lat="44.00091" lon="7.43207">
        <ele>2096.449</ele>
        <time>2020-06-26T06:25:08Z</time>
      </trkpt>
      <trkpt lat="44.00104" lon="7.43196">
        <ele>2095.219</ele>
        <time>2020-06-26T06:25:24Z</time>
      </trkpt>
      <trkpt lat="44.00115" lon="7.43187">
        <ele>2090.664</ele>
        <time>2020-06-26T06:25:39Z</time>
      </trkpt>
      <trkpt lat="44.00135" lon="7.43198">
        <ele>2085.911</ele>
        <time>2020-06-26T06:25:54Z</time>
      </trkpt>
      <trkpt lat="44.00146" lon="7.43196">
        <ele>2080.278</ele>
        <time>2020-06-26T06:26:09Z</time>
      </trkpt>
      <trkpt lat="44.00161" lon="7.4319">
        <ele>2079.425</ele>
        <time>2020-06-26T06:26:25Z</time>
      </trkpt>
      <trkpt lat="44.00175" lon="7.4318">
        <ele>2078.932</ele>
        <time>2020-06-26T06:26:41Z</time>
      </trkpt>
      <trkpt lat="44.00187" lon="7.43179">
        <ele>2071.348</ele>
        <time>2020-06-26T06:26:57Z</time>
      </trkpt>
      <trkpt lat="44.00201" lon="7.43176">
        <ele>2063.665</ele>
        <time>2020-06-26T06:27:12Z</time>
      </trkpt>
      <trkpt lat="44.00214" lon="7.43172">
        <ele>2062.893</ele>
        <time>2020-06-26T06:27:28Z</time>
      </trkpt>
      <trkpt lat="44.00232" lon="7.43164">
        <ele>2062.947</ele>
        <time>2020-06-26T06:27:44Z</time>
      </trkpt>
      <trkpt lat="44.00242" lon="7.43161">
        <ele>2059.755</ele>
        <time>2020-06-26T06:27:59Z</time>
      </trkpt>
      <trkpt lat="44.00259" lon="7.43159">
        <ele>2056.945</ele>
        <time>2020-06-26T06:28:15Z</time>
      </trkpt>
      <trkpt lat="44.00273" lon="7.43155">
        <ele>2054.437</ele>
        <time>2020-06-26T06:28:30Z</time>
      </trkpt>
      <trkpt lat="44.00289" lon="7.43151">
        <ele>2055.489</ele>
        <time>2020-06-26T06:28:46Z</time>
      </trkpt>
      <trkpt lat="44.00302" lon="7.43146">
        <ele>2054.199</ele>
        <time>2020-06-26T06:29:01Z</time>
      </trkpt>
      <trkpt lat="44.00313" lon="7.43142">
        <ele>2052.547</ele>
        <time>2020-06-26T06:29:16Z</time>
      </trkpt>
      <trkpt lat="44.0033" lon="7.43137">
        <ele>2049.326</ele>
        <time>2020-06-26T06:29:32Z</time>
      </trkpt>
      <trkpt lat="44.00343" lon="7.43131">
        <ele>2046.293</ele>
        <time>2020-06-26T06:29:47Z</time>
      </trkpt>
      <trkpt lat="44.00359" lon="7.43129">
        <ele>2045.988</ele>
        <time>2020-06-26T06:30:03Z</time>
      </trkpt>
      <trkpt lat="44.00367" lon="7.43122">
        <ele>2046.862</ele>
        <time>2020-06-26T06:30:19Z</time>
      </trkpt>
      <trkpt lat="44.0038" lon="7.43116">
        <ele>2046.166</ele>
        <time>2020-06-26T06:30:34Z</time>
      </trkpt>
      <trkpt lat="44.00393" lon="7.43115">
        <ele>2041.823</ele>
        <time>2020-06-26T06:30:49Z</time>
      </trkpt>
      <trkpt lat="44.00414" lon="7.43113">
        <ele>2040.095</ele>
        <time>2020-06-26T06:31:05Z</time>
      </trkpt>
      <trkpt lat="44.00432" lon="7.43108">
        <ele>2039.555</ele>
        <time>2020-06-26T06:31:21Z</time>
      </trkpt>
      <trkpt lat="44.00449" lon="7.43102">
        <ele>2035.084</ele>
        <time>2020-06-26T06:31:36Z</time>
      </trkpt>
      <trkpt lat="44.00464" lon="7.43092">
        <ele>2032.498</ele>
        <time>2020-06-26T06:31:52Z</time>
      </trkpt>
      <trkpt lat="44.00477" lon="7.43083">
        <ele>2032.367</ele>
        <time>2020-06-26T06:32:07Z</time>
      </trkpt>
      <trkpt lat="44.00484" lon="7.43083">
        <ele>2033.842</ele>
        <time>2020-06-26T06:32:23Z</time>
      </trkpt>
      <trkpt lat="44.00484" lon="7.43083">
        <ele>2033.842</ele>
        <time>2020-06-26T06:32:38Z</time>
      </trkpt>
      <trkpt lat="44.00484" lon="7.43083">
        <ele>2033.842</ele>
        <time>2020-06-26T06:32:54Z</time>
      </trkpt>
      <trkpt lat="44.00484" lon="7.43083">
        <ele>2033.842</ele>
        <time>2020-06-26T06:33:09Z</time>
      </trkpt>
      <trkpt lat="44.00486" lon="7.43081">
        <ele>2033.94</ele>
        <time>2020-06-26T06:33:24Z</time>
      </trkpt>
      <trkpt lat="44.00497" lon="7.43077">
        <ele>2034.052</ele>
        <time>2020-06-26T06:33:40Z</time>
      </trkpt>
      <trkpt lat="44.00514" lon="7.43068">
        <ele>2034.305</ele>
        <time>2020-06-26T06:33:56Z</time>
      </trkpt>
      <trkpt lat="44.00531" lon="7.43059">
        <ele>2032.092</ele>
        <time>2020-06-26T06:34:12Z</time>
      </trkpt>
      <trkpt lat="44.00547" lon="7.43056">
        <ele>2030.035</ele>
        <time>2020-06-26T06:34:28Z</time>
      </trkpt>
      <trkpt lat="44.00565" lon="7.43051">
        <ele>2025.06</ele>
        <time>2020-06-26T06:34:44Z</time>
      </trkpt>
      <trkpt lat="44.00582" lon="7.43042">
        <ele>2025.086</ele>
        <time>2020-06-26T06:35:00Z</time>
      </trkpt>
      <trkpt lat="44.00594" lon="7.43023">
        <ele>2025.776</ele>
        <time>2020-06-26T06:35:16Z</time>
      </trkpt>
      <trkpt lat="44.00609" lon="7.4301">
        <ele>2025.834</ele>
        <time>2020-06-26T06:35:31Z</time>
      </trkpt>
      <trkpt lat="44.00614" lon="7.42988">
        <ele>2025.809</ele>
        <time>2020-06-26T06:35:47Z</time>
      </trkpt>
      <trkpt lat="44.00624" lon="7.42975">
        <ele>2027.795</ele>
        <time>2020-06-26T06:36:02Z</time>
      </trkpt>
      <trkpt lat="44.00639" lon="7.42956">
        <ele>2028.413</ele>
        <time>2020-06-26T06:36:18Z</time>
      </trkpt>
      <trkpt lat="44.00652" lon="7.42941">
        <ele>2028.098</ele>
        <time>2020-06-26T06:36:33Z</time>
      </trkpt>
      <trkpt lat="44.00668" lon="7.42932">
        <ele>2030.556</ele>
        <time>2020-06-26T06:36:48Z</time>
      </trkpt>
      <trkpt lat="44.00684" lon="7.42922">
        <ele>2031.011</ele>
        <time>2020-06-26T06:37:04Z</time>
      </trkpt>
      <trkpt lat="44.00699" lon="7.42912">
        <ele>2030.063</ele>
        <time>2020-06-26T06:37:19Z</time>
      </trkpt>
      <trkpt lat="44.00718" lon="7.42905">
        <ele>2027.374</ele>
        <time>2020-06-26T06:37:35Z</time>
      </trkpt>
      <trkpt lat="44.00733" lon="7.42898">
        <ele>2025.348</ele>
        <time>2020-06-26T06:37:51Z</time>
      </trkpt>
      <trkpt lat="44.0075" lon="7.42891">
        <ele>2023.357</ele>
        <time>2020-06-26T06:38:07Z</time>
      </trkpt>
      <trkpt lat="44.00763" lon="7.42876">
        <ele>2018.295</ele>
        <time>2020-06-26T06:38:23Z</time>
      </trkpt>
      <trkpt lat="44.00777" lon="7.42865">
        <ele>2013.073</ele>
        <time>2020-06-26T06:38:38Z</time>
      </trkpt>
      <trkpt lat="44.00787" lon="7.42847">
        <ele>2010.333</ele>
        <time>2020-06-26T06:38:54Z</time>
      </trkpt>
      <trkpt lat="44.008" lon="7.42833">
        <ele>2008.361</ele>
        <time>2020-06-26T06:39:09Z</time>
      </trkpt>
      <trkpt lat="44.0081" lon="7.42815">
        <ele>2004.67</ele>
        <time>2020-06-26T06:39:24Z</time>
      </trkpt>
      <trkpt lat="44.00819" lon="7.4279">
        <ele>2005.23</ele>
        <time>2020-06-26T06:39:40Z</time>
      </trkpt>
      <trkpt lat="44.00829" lon="7.42772">
        <ele>2003.757</ele>
        <time>2020-06-26T06:39:55Z</time>
      </trkpt>
      <trkpt lat="44.00841" lon="7.42751">
        <ele>2005.108</ele>
        <time>2020-06-26T06:40:11Z</time>
      </trkpt>
      <trkpt lat="44.00856" lon="7.42732">
        <ele>2007.786</ele>
        <time>2020-06-26T06:40:26Z</time>
      </trkpt>
      <trkpt lat="44.00864" lon="7.42716">
        <ele>2006.6</ele>
        <time>2020-06-26T06:40:42Z</time>
      </trkpt>
      <trkpt lat="44.00869" lon="7.42696">
        <ele>2007.653</ele>
        <time>2020-06-26T06:40:58Z</time>
      </trkpt>
      <trkpt lat="44.00872" lon="7.42676">
        <ele>2007.21</ele>
        <time>2020-06-26T06:41:14Z</time>
      </trkpt>
      <trkpt lat="44.0088" lon="7.42658">
        <ele>2007.198</ele>
        <time>2020-06-26T06:41:29Z</time>
      </trkpt>
      <trkpt lat="44.00884" lon="7.42648">
        <ele>2011.517</ele>
        <time>2020-06-26T06:41:45Z</time>
      </trkpt>
      <trkpt lat="44.00884" lon="7.42648">
        <ele>2011.517</ele>
        <time>2020-06-26T06:42:00Z</time>
      </trkpt>
      <trkpt lat="44.00886" lon="7.42646">
        <ele>2012.895</ele>
        <time>2020-06-26T06:42:16Z</time>
      </trkpt>
      <trkpt lat="44.00901" lon="7.42638">
        <ele>2013.169</ele>
        <time>2020-06-26T06:42:32Z</time>
      </trkpt>
      <trkpt lat="44.00913" lon="7.42623">
        <ele>2013.277</ele>
        <time>2020-06-26T06:42:48Z</time>
      </trkpt>
      <trkpt lat="44.00928" lon="7.42612">
        <ele>2010.162</ele>
        <time>2020-06-26T06:43:03Z</time>
      </trkpt>
      <trkpt lat="44.00943" lon="7.42603">
        <ele>2010.339</ele>
        <time>2020-06-26T06:43:18Z</time>
      </trkpt>
      <trkpt lat="44.00957" lon="7.42587">
        <ele>2006.908</ele>
        <time>2020-06-26T06:43:34Z</time>
      </trkpt>
      <trkpt lat="44.00969" lon="7.42566">
        <ele>2001.842</ele>
        <time>2020-06-26T06:43:50Z</time>
      </trkpt>
      <trkpt lat="44.00976" lon="7.42545">
        <ele>2003.188</ele>
        <time>2020-06-26T06:44:06Z</time>
      </trkpt>
      <trkpt lat="44.00987" lon="7.42536">
        <ele>2003.692</ele>
        <time>2020-06-26T06:44:22Z</time>
      </trkpt>
      <trkpt lat="44.01005" lon="7.42532">
        <ele>1999.621</ele>
        <time>2020-06-26T06:44:38Z</time>
      </trkpt>
      <trkpt lat="44.01017" lon="7.42513">
        <ele>1995.146</ele>
        <time>2020-06-26T06:44:54Z</time>
      </trkpt>
      <trkpt lat="44.01028" lon="7.42496">
        <ele>1990.258</ele>
        <time>2020-06-26T06:45:10Z</time>
      </trkpt>
      <trkpt lat="44.0104" lon="7.42478">
        <ele>1989.478</ele>
        <time>2020-06-26T06:45:25Z</time>
      </trkpt>
      <trkpt lat="44.01047" lon="7.42457">
        <ele>1988.599</ele>
        <time>2020-06-26T06:45:40Z</time>
      </trkpt>
      <trkpt lat="44.01055" lon="7.42437">
        <ele>1988.787</ele>
        <time>2020-06-26T06:45:56Z</time>
      </trkpt>
      <trkpt lat="44.01071" lon="7.4243">
        <ele>1993.668</ele>
        <time>2020-06-26T06:46:12Z</time>
      </trkpt>
      <trkpt lat="44.01087" lon="7.42426">
        <ele>1993.475</ele>
        <time>2020-06-26T06:46:28Z</time>
      </trkpt>
      <trkpt lat="44.01101" lon="7.42416">
        <ele>1993.462</ele>
        <time>2020-06-26T06:46:44Z</time>
      </trkpt>
      <trkpt lat="44.01115" lon="7.4241">
        <ele>1995.972</ele>
        <time>2020-06-26T06:46:59Z</time>
      </trkpt>
      <trkpt lat="44.01129" lon="7.42397">
        <ele>1995.077</ele>
        <time>2020-06-26T06:47:15Z</time>
      </trkpt>
      <trkpt lat="44.01146" lon="7.42392">
        <ele>1995.65</ele>
        <time>2020-06-26T06:47:30Z</time>
      </trkpt>
      <trkpt lat="44.01161" lon="7.42386">
        <ele>1995.519</ele>
        <time>2020-06-26T06:47:45Z</time>
      </trkpt>
      <trkpt lat="44.01174" lon="7.42379">
        <ele>1995.144</ele>
        <time>2020-06-26T06:48:01Z</time>
      </trkpt>
      <trkpt lat="44.0119" lon="7.4237">
        <ele>1996.1</ele>
        <time>2020-06-26T06:48:16Z</time>
      </trkpt>
      <trkpt lat="44.01204" lon="7.42357">
        <ele>1995.642</ele>
        <time>2020-06-26T06:48:31Z</time>
      </trkpt>
      <trkpt lat="44.01217" lon="7.42343">
        <ele>1994.22</ele>
        <time>2020-06-26T06:48:46Z</time>
      </trkpt>
      <trkpt lat="44.01233" lon="7.42326">
        <ele>1995.406</ele>
        <time>2020-06-26T06:49:02Z</time>
      </trkpt>
      <trkpt lat="44.01242" lon="7.42309">
        <ele>1994.636</ele>
        <time>2020-06-26T06:49:17Z</time>
      </trkpt>
      <trkpt lat="44.0125" lon="7.4229">
        <ele>1993.66</ele>
        <time>2020-06-26T06:49:32Z</time>
      </trkpt>
      <trkpt lat="44.0126" lon="7.42285">
        <ele>1995.79</ele>
        <time>2020-06-26T06:49:48Z</time>
      </trkpt>
      <trkpt lat="44.01262" lon="7.42282">
        <ele>1995.412</ele>
        <time>2020-06-26T06:50:03Z</time>
      </trkpt>
      <trkpt lat="44.01262" lon="7.42282">
        <ele>1995.412</ele>
        <time>2020-06-26T06:50:19Z</time>
      </trkpt>
      <trkpt lat="44.01262" lon="7.42282">
        <ele>1995.412</ele>
        <time>2020-06-26T06:50:34Z</time>
      </trkpt>
      <trkpt lat="44.01262" lon="7.42282">
        <ele>1995.412</ele>
        <time>2020-06-26T06:50:50Z</time>
      </trkpt>
      <trkpt lat="44.0126" lon="7.42286">
        <ele>1996.323</ele>
        <time>2020-06-26T06:51:06Z</time>
      </trkpt>
      <trkpt lat="44.01265" lon="7.42292">
        <ele>1997.377</ele>
        <time>2020-06-26T06:51:22Z</time>
      </trkpt>
      <trkpt lat="44.01283" lon="7.42297">
        <ele>1998.683</ele>
        <time>2020-06-26T06:51:37Z</time>
      </trkpt>
      <trkpt lat="44.01301" lon="7.42307">
        <ele>1998.484</ele>
        <time>2020-06-26T06:51:53Z</time>
      </trkpt>
      <trkpt lat="44.01316" lon="7.42301">
        <ele>1999.444</ele>
        <time>2020-06-26T06:52:09Z</time>
      </trkpt>
      <trkpt lat="44.01329" lon="7.42299">
        <ele>1996.268</ele>
        <time>2020-06-26T06:52:24Z</time>
      </trkpt>
      <trkpt lat="44.01344" lon="7.42302">
        <ele>1994.324</ele>
        <time>2020-06-26T06:52:40Z</time>
      </trkpt>
      <trkpt lat="44.0136" lon="7.423">
        <ele>1991.922</ele>
        <time>2020-06-26T06:52:55Z</time>
      </trkpt>
      <trkpt lat="44.01376" lon="7.42303">
        <ele>1989.459</ele>
        <time>2020-06-26T06:53:10Z</time>
      </trkpt>
      <trkpt lat="44.01393" lon="7.42305">
        <ele>1987.666</ele>
        <time>2020-06-26T06:53:25Z</time>
      </trkpt>
      <trkpt lat="44.01406" lon="7.42305">
        <ele>1985.125</ele>
        <time>2020-06-26T06:53:41Z</time>
      </trkpt>
      <trkpt lat="44.01419" lon="7.42304">
        <ele>1981.582</ele>
        <time>2020-06-26T06:53:56Z</time>
      </trkpt>
      <trkpt lat="44.01431" lon="7.42302">
        <ele>1979.712</ele>
        <time>2020-06-26T06:54:12Z</time>
      </trkpt>
      <trkpt lat="44.0145" lon="7.42301">
        <ele>1980.795</ele>
        <time>2020-06-26T06:54:27Z</time>
      </trkpt>
      <trkpt lat="44.01463" lon="7.42293">
        <ele>1978.559</ele>
        <time>2020-06-26T06:54:43Z</time>
      </trkpt>
      <trkpt lat="44.01484" lon="7.42294">
        <ele>1976.334</ele>
        <time>2020-06-26T06:54:59Z</time>
      </trkpt>
      <trkpt lat="44.015" lon="7.42304">
        <ele>1972.184</ele>
        <time>2020-06-26T06:55:15Z</time>
      </trkpt>
      <trkpt lat="44.01515" lon="7.42306">
        <ele>1969.767</ele>
        <time>2020-06-26T06:55:31Z</time>
      </trkpt>
      <trkpt lat="44.01525" lon="7.42301">
        <ele>1967.089</ele>
        <time>2020-06-26T06:55:47Z</time>
      </trkpt>
      <trkpt lat="44.01535" lon="7.423">
        <ele>1962.857</ele>
        <time>2020-06-26T06:56:02Z</time>
      </trkpt>
      <trkpt lat="44.01542" lon="7.42301">
        <ele>1959.84</ele>
        <time>2020-06-26T06:56:18Z</time>
      </trkpt>
      <trkpt lat="44.0156" lon="7.423">
        <ele>1960.443</ele>
        <time>2020-06-26T06:56:33Z</time>
      </trkpt>
      <trkpt lat="44.01571" lon="7.42311">
        <ele>1955.669</ele>
        <time>2020-06-26T06:56:49Z</time>
      </trkpt>
      <trkpt lat="44.01577" lon="7.42316">
        <ele>1950.51</ele>
        <time>2020-06-26T06:57:04Z</time>
      </trkpt>
      <trkpt lat="44.01585" lon="7.42317">
        <ele>1942.198</ele>
        <time>2020-06-26T06:57:20Z</time>
      </trkpt>
      <trkpt lat="44.01594" lon="7.42312">
        <ele>1934.381</ele>
        <time>2020-06-26T06:57:36Z</time>
      </trkpt>
      <trkpt lat="44.01605" lon="7.42303">
        <ele>1931.135</ele>
        <time>2020-06-26T06:57:51Z</time>
      </trkpt>
      <trkpt lat="44.01614" lon="7.42294">
        <ele>1930.627</ele>
        <time>2020-06-26T06:58:07Z</time>
      </trkpt>
      <trkpt lat="44.01626" lon="7.42288">
        <ele>1932.476</ele>
        <time>2020-06-26T06:58:22Z</time>
      </trkpt>
      <trkpt lat="44.01626" lon="7.4229">
        <ele>1933.709</ele>
        <time>2020-06-26T06:58:38Z</time>
      </trkpt>
      <trkpt lat="44.01626" lon="7.4229">
        <ele>1933.709</ele>
        <time>2020-06-26T06:58:53Z</time>
      </trkpt>
      <trkpt lat="44.01626" lon="7.4229">
        <ele>1933.709</ele>
        <time>2020-06-26T06:59:09Z</time>
      </trkpt>
      <trkpt lat="44.01626" lon="7.4229">
        <ele>1933.709</ele>
        <time>2020-06-26T06:59:24Z</time>
      </trkpt>
      <trkpt lat="44.01626" lon="7.4229">
        <ele>1933.709</ele>
        <time>2020-06-26T06:59:39Z</time>
      </trkpt>
      <trkpt lat="44.01626" lon="7.4229">
        <ele>1933.709</ele>
        <time>2020-06-26T06:59:54Z</time>
      </trkpt>
      <trkpt lat="44.01627" lon="7.4229">
        <ele>1932.637</ele>
        <time>2020-06-26T07:00:10Z</time>
      </trkpt>
      <trkpt lat="44.01627" lon="7.42292">
        <ele>1931.676</ele>
        <time>2020-06-26T07:00:26Z</time>
      </trkpt>
      <trkpt lat="44.01626" lon="7.42292">
        <ele>1931.608</ele>
        <time>2020-06-26T07:00:42Z</time>
      </trkpt>
      <trkpt lat="44.01626" lon="7.42291">
        <ele>1927.376</ele>
        <time>2020-06-26T07:00:58Z</time>
      </trkpt>
      <trkpt lat="44.01624" lon="7.42291">
        <ele>1924.774</ele>
        <time>2020-06-26T07:01:13Z</time>
      </trkpt>
      <trkpt lat="44.01611" lon="7.42299">
        <ele>1918.292</ele>
        <time>2020-06-26T07:01:29Z</time>
      </trkpt>
      <trkpt lat="44.01593" lon="7.42293">
        <ele>1913.297</ele>
        <time>2020-06-26T07:01:44Z</time>
      </trkpt>
      <trkpt lat="44.01581" lon="7.42276">
        <ele>1911.402</ele>
        <time>2020-06-26T07:01:59Z</time>
      </trkpt>
      <trkpt lat="44.01564" lon="7.42267">
        <ele>1907.6</ele>
        <time>2020-06-26T07:02:15Z</time>
      </trkpt>
      <trkpt lat="44.01545" lon="7.42256">
        <ele>1903.12</ele>
        <time>2020-06-26T07:02:30Z</time>
      </trkpt>
      <trkpt lat="44.01528" lon="7.42247">
        <ele>1902.374</ele>
        <time>2020-06-26T07:02:46Z</time>
      </trkpt>
      <trkpt lat="44.0152" lon="7.42236">
        <ele>1899.98</ele>
        <time>2020-06-26T07:03:02Z</time>
      </trkpt>
      <trkpt lat="44.01538" lon="7.4224">
        <ele>1899.216</ele>
        <time>2020-06-26T07:03:18Z</time>
      </trkpt>
      <trkpt lat="44.01555" lon="7.42239">
        <ele>1901.141</ele>
        <time>2020-06-26T07:03:33Z</time>
      </trkpt>
      <trkpt lat="44.01577" lon="7.42236">
        <ele>1900.181</ele>
        <time>2020-06-26T07:03:49Z</time>
      </trkpt>
      <trkpt lat="44.01594" lon="7.4223">
        <ele>1898.369</ele>
        <time>2020-06-26T07:04:04Z</time>
      </trkpt>
      <trkpt lat="44.01612" lon="7.42222">
        <ele>1901.222</ele>
        <time>2020-06-26T07:04:19Z</time>
      </trkpt>
      <trkpt lat="44.01632" lon="7.42216">
        <ele>1904.009</ele>
        <time>2020-06-26T07:04:35Z</time>
      </trkpt>
      <trkpt lat="44.01647" lon="7.42205">
        <ele>1906.455</ele>
        <time>2020-06-26T07:04:50Z</time>
      </trkpt>
      <trkpt lat="44.01665" lon="7.42201">
        <ele>1898.976</ele>
        <time>2020-06-26T07:05:06Z</time>
      </trkpt>
      <trkpt lat="44.01681" lon="7.42183">
        <ele>1897.156</ele>
        <time>2020-06-26T07:05:21Z</time>
      </trkpt>
      <trkpt lat="44.01688" lon="7.42161">
        <ele>1891.698</ele>
        <time>2020-06-26T07:05:36Z</time>
      </trkpt>
      <trkpt lat="44.01698" lon="7.42138">
        <ele>1892.717</ele>
        <time>2020-06-26T07:05:52Z</time>
      </trkpt>
      <trkpt lat="44.01699" lon="7.42134">
        <ele>1892.507</ele>
        <time>2020-06-26T07:06:07Z</time>
      </trkpt>
      <trkpt lat="44.01699" lon="7.42134">
        <ele>1892.507</ele>
        <time>2020-06-26T07:06:23Z</time>
      </trkpt>
      <trkpt lat="44.01699" lon="7.42134">
        <ele>1892.507</ele>
        <time>2020-06-26T07:06:39Z</time>
      </trkpt>
      <trkpt lat="44.01699" lon="7.42134">
        <ele>1892.507</ele>
        <time>2020-06-26T07:06:55Z</time>
      </trkpt>
      <trkpt lat="44.01699" lon="7.42134">
        <ele>1892.507</ele>
        <time>2020-06-26T07:07:11Z</time>
      </trkpt>
      <trkpt lat="44.01703" lon="7.42122">
        <ele>1892.899</ele>
        <time>2020-06-26T07:07:27Z</time>
      </trkpt>
      <trkpt lat="44.01712" lon="7.42107">
        <ele>1893.874</ele>
        <time>2020-06-26T07:07:43Z</time>
      </trkpt>
      <trkpt lat="44.01721" lon="7.42091">
        <ele>1893.51</ele>
        <time>2020-06-26T07:07:59Z</time>
      </trkpt>
      <trkpt lat="44.01732" lon="7.42079">
        <ele>1896.126</ele>
        <time>2020-06-26T07:08:15Z</time>
      </trkpt>
      <trkpt lat="44.01746" lon="7.42069">
        <ele>1896.246</ele>
        <time>2020-06-26T07:08:31Z</time>
      </trkpt>
      <trkpt lat="44.01758" lon="7.42059">
        <ele>1895.413</ele>
        <time>2020-06-26T07:08:47Z</time>
      </trkpt>
      <trkpt lat="44.01764" lon="7.42049">
        <ele>1893.344</ele>
        <time>2020-06-26T07:09:02Z</time>
      </trkpt>
      <trkpt lat="44.01773" lon="7.42043">
        <ele>1894.727</ele>
        <time>2020-06-26T07:09:17Z</time>
      </trkpt>
      <trkpt lat="44.01781" lon="7.42032">
        <ele>1896.595</ele>
        <time>2020-06-26T07:09:32Z</time>
      </trkpt>
      <trkpt lat="44.01789" lon="7.4202">
        <ele>1903.995</ele>
        <time>2020-06-26T07:09:48Z</time>
      </trkpt>
      <trkpt lat="44.01798" lon="7.42011">
        <ele>1904.468</ele>
        <time>2020-06-26T07:10:03Z</time>
      </trkpt>
      <trkpt lat="44.01807" lon="7.42003">
        <ele>1904.026</ele>
        <time>2020-06-26T07:10:18Z</time>
      </trkpt>
      <trkpt lat="44.01808" lon="7.41994">
        <ele>1905.934</ele>
        <time>2020-06-26T07:10:33Z</time>
      </trkpt>
      <trkpt lat="44.01812" lon="7.41986">
        <ele>1907.39</ele>
        <time>2020-06-26T07:10:49Z</time>
      </trkpt>
      <trkpt lat="44.01815" lon="7.41982">
        <ele>1907.232</ele>
        <time>2020-06-26T07:11:04Z</time>
      </trkpt>
      <trkpt lat="44.01817" lon="7.4198">
        <ele>1907.041</ele>
        <time>2020-06-26T07:11:20Z</time>
      </trkpt>
      <trkpt lat="44.01821" lon="7.41971">
        <ele>1906.521</ele>
        <time>2020-06-26T07:11:36Z</time>
      </trkpt>
      <trkpt lat="44.01827" lon="7.41957">
        <ele>1909.92</ele>
        <time>2020-06-26T07:11:52Z</time>
      </trkpt>
      <trkpt lat="44.01833" lon="7.41953">
        <ele>1911.816</ele>
        <time>2020-06-26T07:12:08Z</time>
      </trkpt>
      <trkpt lat="44.01843" lon="7.41948">
        <ele>1913.031</ele>
        <time>2020-06-26T07:12:23Z</time>
      </trkpt>
      <trkpt lat="44.01845" lon="7.41943">
        <ele>1914.733</ele>
        <time>2020-06-26T07:12:38Z</time>
      </trkpt>
      <trkpt lat="44.01853" lon="7.41935">
        <ele>1920.574</ele>
        <time>2020-06-26T07:12:54Z</time>
      </trkpt>
      <trkpt lat="44.01859" lon="7.41932">
        <ele>1924.485</ele>
        <time>2020-06-26T07:13:09Z</time>
      </trkpt>
      <trkpt lat="44.01863" lon="7.41929">
        <ele>1926.119</ele>
        <time>2020-06-26T07:13:25Z</time>
      </trkpt>
      <trkpt lat="44.01874" lon="7.4192">
        <ele>1931.104</ele>
        <time>2020-06-26T07:13:40Z</time>
      </trkpt>
      <trkpt lat="44.01882" lon="7.41912">
        <ele>1935.726</ele>
        <time>2020-06-26T07:13:56Z</time>
      </trkpt>
      <trkpt lat="44.01887" lon="7.41898">
        <ele>1935.006</ele>
        <time>2020-06-26T07:14:11Z</time>
      </trkpt>
      <trkpt lat="44.01893" lon="7.41889">
        <ele>1938.564</ele>
        <time>2020-06-26T07:14:27Z</time>
      </trkpt>
      <trkpt lat="44.01897" lon="7.41882">
        <ele>1940.919</ele>
        <time>2020-06-26T07:14:43Z</time>
      </trkpt>
      <trkpt lat="44.01899" lon="7.41867">
        <ele>1946.44</ele>
        <time>2020-06-26T07:14:58Z</time>
      </trkpt>
      <trkpt lat="44.01903" lon="7.4186">
        <ele>1949.322</ele>
        <time>2020-06-26T07:15:13Z</time>
      </trkpt>
      <trkpt lat="44.0191" lon="7.41852">
        <ele>1949.871</ele>
        <time>2020-06-26T07:15:29Z</time>
      </trkpt>
      <trkpt lat="44.01914" lon="7.41838">
        <ele>1949.214</ele>
        <time>2020-06-26T07:15:45Z</time>
      </trkpt>
      <trkpt lat="44.01917" lon="7.4183">
        <ele>1951.435</ele>
        <time>2020-06-26T07:16:01Z</time>
      </trkpt>
      <trkpt lat="44.01921" lon="7.41824">
        <ele>1954.698</ele>
        <time>2020-06-26T07:16:17Z</time>
      </trkpt>
      <trkpt lat="44.01929" lon="7.41816">
        <ele>1954.74</ele>
        <time>2020-06-26T07:16:33Z</time>
      </trkpt>
      <trkpt lat="44.01936" lon="7.41809">
        <ele>1957.909</ele>
        <time>2020-06-26T07:16:49Z</time>
      </trkpt>
      <trkpt lat="44.01941" lon="7.41797">
        <ele>1960.322</ele>
        <time>2020-06-26T07:17:05Z</time>
      </trkpt>
      <trkpt lat="44.01949" lon="7.41785">
        <ele>1960.386</ele>
        <time>2020-06-26T07:17:20Z</time>
      </trkpt>
      <trkpt lat="44.01956" lon="7.41777">
        <ele>1960.463</ele>
        <time>2020-06-26T07:17:36Z</time>
      </trkpt>
      <trkpt lat="44.01969" lon="7.4177">
        <ele>1959.654</ele>
        <time>2020-06-26T07:17:51Z</time>
      </trkpt>
      <trkpt lat="44.01979" lon="7.41761">
        <ele>1962.217</ele>
        <time>2020-06-26T07:18:07Z</time>
      </trkpt>
      <trkpt lat="44.01987" lon="7.41753">
        <ele>1965.012</ele>
        <time>2020-06-26T07:18:22Z</time>
      </trkpt>
      <trkpt lat="44.01998" lon="7.41741">
        <ele>1967.024</ele>
        <time>2020-06-26T07:18:38Z</time>
      </trkpt>
      <trkpt lat="44.0201" lon="7.41733">
        <ele>1967.49</ele>
        <time>2020-06-26T07:18:54Z</time>
      </trkpt>
      <trkpt lat="44.02021" lon="7.41722">
        <ele>1967.821</ele>
        <time>2020-06-26T07:19:09Z</time>
      </trkpt>
      <trkpt lat="44.02032" lon="7.41714">
        <ele>1970.694</ele>
        <time>2020-06-26T07:19:24Z</time>
      </trkpt>
      <trkpt lat="44.0204" lon="7.41706">
        <ele>1972.013</ele>
        <time>2020-06-26T07:19:40Z</time>
      </trkpt>
      <trkpt lat="44.0205" lon="7.41698">
        <ele>1975.485</ele>
        <time>2020-06-26T07:19:55Z</time>
      </trkpt>
      <trkpt lat="44.02057" lon="7.41691">
        <ele>1972.778</ele>
        <time>2020-06-26T07:20:11Z</time>
      </trkpt>
      <trkpt lat="44.02066" lon="7.41678">
        <ele>1975.274</ele>
        <time>2020-06-26T07:20:26Z</time>
      </trkpt>
      <trkpt lat="44.02077" lon="7.41669">
        <ele>1981.942</ele>
        <time>2020-06-26T07:20:42Z</time>
      </trkpt>
      <trkpt lat="44.02089" lon="7.41661">
        <ele>1978.401</ele>
        <time>2020-06-26T07:20:57Z</time>
      </trkpt>
      <trkpt lat="44.02098" lon="7.41656">
        <ele>1978.633</ele>
        <time>2020-06-26T07:21:13Z</time>
      </trkpt>
      <trkpt lat="44.02111" lon="7.41649">
        <ele>1981.324</ele>
        <time>2020-06-26T07:21:29Z</time>
      </trkpt>
      <trkpt lat="44.02122" lon="7.4164">
        <ele>1981.661</ele>
        <time>2020-06-26T07:21:45Z</time>
      </trkpt>
      <trkpt lat="44.02133" lon="7.41628">
        <ele>1985.309</ele>
        <time>2020-06-26T07:22:00Z</time>
      </trkpt>
      <trkpt lat="44.02131" lon="7.41626">
        <ele>1987.986</ele>
        <time>2020-06-26T07:22:16Z</time>
      </trkpt>
      <trkpt lat="44.0214" lon="7.41619">
        <ele>1990.436</ele>
        <time>2020-06-26T07:22:32Z</time>
      </trkpt>
      <trkpt lat="44.02152" lon="7.4161">
        <ele>1991.327</ele>
        <time>2020-06-26T07:22:48Z</time>
      </trkpt>
      <trkpt lat="44.02162" lon="7.41602">
        <ele>1993.717</ele>
        <time>2020-06-26T07:23:03Z</time>
      </trkpt>
      <trkpt lat="44.02174" lon="7.41596">
        <ele>1995.212</ele>
        <time>2020-06-26T07:23:18Z</time>
      </trkpt>
      <trkpt lat="44.02185" lon="7.41589">
        <ele>1993.372</ele>
        <time>2020-06-26T07:23:34Z</time>
      </trkpt>
      <trkpt lat="44.02197" lon="7.4158">
        <ele>1995.835</ele>
        <time>2020-06-26T07:23:49Z</time>
      </trkpt>
      <trkpt lat="44.02207" lon="7.41576">
        <ele>1998.011</ele>
        <time>2020-06-26T07:24:04Z</time>
      </trkpt>
      <trkpt lat="44.02224" lon="7.41566">
        <ele>2000.993</ele>
        <time>2020-06-26T07:24:20Z</time>
      </trkpt>
      <trkpt lat="44.02235" lon="7.4156">
        <ele>2003.211</ele>
        <time>2020-06-26T07:24:35Z</time>
      </trkpt>
      <trkpt lat="44.02246" lon="7.41554">
        <ele>2003.362</ele>
        <time>2020-06-26T07:24:51Z</time>
      </trkpt>
      <trkpt lat="44.02256" lon="7.41547">
        <ele>2004.579</ele>
        <time>2020-06-26T07:25:06Z</time>
      </trkpt>
      <trkpt lat="44.02262" lon="7.4154">
        <ele>2005.798</ele>
        <time>2020-06-26T07:25:21Z</time>
      </trkpt>
      <trkpt lat="44.0228" lon="7.41533">
        <ele>2006.311</ele>
        <time>2020-06-26T07:25:37Z</time>
      </trkpt>
      <trkpt lat="44.02289" lon="7.41527">
        <ele>2009.631</ele>
        <time>2020-06-26T07:25:53Z</time>
      </trkpt>
      <trkpt lat="44.02303" lon="7.41517">
        <ele>2007.552</ele>
        <time>2020-06-26T07:26:09Z</time>
      </trkpt>
      <trkpt lat="44.02315" lon="7.41509">
        <ele>2009.544</ele>
        <time>2020-06-26T07:26:24Z</time>
      </trkpt>
      <trkpt lat="44.0233" lon="7.41498">
        <ele>2011.614</ele>
        <time>2020-06-26T07:26:40Z</time>
      </trkpt>
      <trkpt lat="44.02341" lon="7.41491">
        <ele>2012.526</ele>
        <time>2020-06-26T07:26:56Z</time>
      </trkpt>
      <trkpt lat="44.02352" lon="7.41488">
        <ele>2014.85</ele>
        <time>2020-06-26T07:27:12Z</time>
      </trkpt>
      <trkpt lat="44.02362" lon="7.41482">
        <ele>2018.739</ele>
        <time>2020-06-26T07:27:28Z</time>
      </trkpt>
      <trkpt lat="44.02373" lon="7.41474">
        <ele>2023.447</ele>
        <time>2020-06-26T07:27:43Z</time>
      </trkpt>
      <trkpt lat="44.02389" lon="7.41469">
        <ele>2024.589</ele>
        <time>2020-06-26T07:27:59Z</time>
      </trkpt>
      <trkpt lat="44.02399" lon="7.41464">
        <ele>2025.867</ele>
        <time>2020-06-26T07:28:15Z</time>
      </trkpt>
      <trkpt lat="44.02407" lon="7.41462">
        <ele>2025.626</ele>
        <time>2020-06-26T07:28:30Z</time>
      </trkpt>
      <trkpt lat="44.02409" lon="7.4146">
        <ele>2025.303</ele>
        <time>2020-06-26T07:28:46Z</time>
      </trkpt>
      <trkpt lat="44.02423" lon="7.41455">
        <ele>2025.791</ele>
        <time>2020-06-26T07:29:01Z</time>
      </trkpt>
      <trkpt lat="44.02434" lon="7.41448">
        <ele>2027.929</ele>
        <time>2020-06-26T07:29:17Z</time>
      </trkpt>
      <trkpt lat="44.02446" lon="7.41441">
        <ele>2028.262</ele>
        <time>2020-06-26T07:29:33Z</time>
      </trkpt>
      <trkpt lat="44.02457" lon="7.41436">
        <ele>2028.724</ele>
        <time>2020-06-26T07:29:48Z</time>
      </trkpt>
      <trkpt lat="44.0247" lon="7.41439">
        <ele>2030.384</ele>
        <time>2020-06-26T07:30:04Z</time>
      </trkpt>
      <trkpt lat="44.02481" lon="7.41441">
        <ele>2032.853</ele>
        <time>2020-06-26T07:30:20Z</time>
      </trkpt>
      <trkpt lat="44.02492" lon="7.41447">
        <ele>2035.055</ele>
        <time>2020-06-26T07:30:36Z</time>
      </trkpt>
      <trkpt lat="44.025" lon="7.41459">
        <ele>2034.101</ele>
        <time>2020-06-26T07:30:52Z</time>
      </trkpt>
      <trkpt lat="44.02509" lon="7.41467">
        <ele>2037.122</ele>
        <time>2020-06-26T07:31:07Z</time>
      </trkpt>
      <trkpt lat="44.02507" lon="7.41447">
        <ele>2040.22</ele>
        <time>2020-06-26T07:31:23Z</time>
      </trkpt>
      <trkpt lat="44.02506" lon="7.41437">
        <ele>2043.367</ele>
        <time>2020-06-26T07:31:39Z</time>
      </trkpt>
      <trkpt lat="44.02512" lon="7.41422">
        <ele>2041.56</ele>
        <time>2020-06-26T07:31:55Z</time>
      </trkpt>
      <trkpt lat="44.02515" lon="7.41413">
        <ele>2048.046</ele>
        <time>2020-06-26T07:32:10Z</time>
      </trkpt>
      <trkpt lat="44.02517" lon="7.41415">
        <ele>2050.229</ele>
        <time>2020-06-26T07:32:26Z</time>
      </trkpt>
      <trkpt lat="44.02517" lon="7.41415">
        <ele>2050.229</ele>
        <time>2020-06-26T07:32:41Z</time>
      </trkpt>
      <trkpt lat="44.02517" lon="7.41415">
        <ele>2050.229</ele>
        <time>2020-06-26T07:32:57Z</time>
      </trkpt>
      <trkpt lat="44.02517" lon="7.41415">
        <ele>2050.229</ele>
        <time>2020-06-26T07:33:13Z</time>
      </trkpt>
      <trkpt lat="44.02517" lon="7.41414">
        <ele>2049.147</ele>
        <time>2020-06-26T07:33:29Z</time>
      </trkpt>
      <trkpt lat="44.02517" lon="7.41414">
        <ele>2049.147</ele>
        <time>2020-06-26T07:33:45Z</time>
      </trkpt>
      <trkpt lat="44.02517" lon="7.41414">
        <ele>2049.147</ele>
        <time>2020-06-26T07:34:00Z</time>
      </trkpt>
      <trkpt lat="44.02517" lon="7.41414">
        <ele>2049.147</ele>
        <time>2020-06-26T07:34:16Z</time>
      </trkpt>
      <trkpt lat="44.02517" lon="7.41414">
        <ele>2049.147</ele>
        <time>2020-06-26T07:34:31Z</time>
      </trkpt>
      <trkpt lat="44.02517" lon="7.41414">
        <ele>2049.147</ele>
        <time>2020-06-26T07:34:47Z</time>
      </trkpt>
      <trkpt lat="44.02517" lon="7.41414">
        <ele>2049.147</ele>
        <time>2020-06-26T07:35:02Z</time>
      </trkpt>
      <trkpt lat="44.02517" lon="7.41414">
        <ele>2049.147</ele>
        <time>2020-06-26T07:35:17Z</time>
      </trkpt>
      <trkpt lat="44.02517" lon="7.41414">
        <ele>2049.147</ele>
        <time>2020-06-26T07:35:33Z</time>
      </trkpt>
      <trkpt lat="44.02517" lon="7.41412">
        <ele>2047.864</ele>
        <time>2020-06-26T07:35:49Z</time>
      </trkpt>
      <trkpt lat="44.02517" lon="7.41411">
        <ele>2046.905</ele>
        <time>2020-06-26T07:36:05Z</time>
      </trkpt>
      <trkpt lat="44.02517" lon="7.41411">
        <ele>2046.905</ele>
        <time>2020-06-26T07:36:21Z</time>
      </trkpt>
      <trkpt lat="44.02517" lon="7.41411">
        <ele>2046.905</ele>
        <time>2020-06-26T07:36:36Z</time>
      </trkpt>
      <trkpt lat="44.02517" lon="7.41411">
        <ele>2046.905</ele>
        <time>2020-06-26T07:36:51Z</time>
      </trkpt>
      <trkpt lat="44.02516" lon="7.41411">
        <ele>2047.901</ele>
        <time>2020-06-26T07:37:06Z</time>
      </trkpt>
      <trkpt lat="44.02528" lon="7.41413">
        <ele>2050.628</ele>
        <time>2020-06-26T07:37:22Z</time>
      </trkpt>
      <trkpt lat="44.02545" lon="7.41417">
        <ele>2050.669</ele>
        <time>2020-06-26T07:37:37Z</time>
      </trkpt>
      <trkpt lat="44.02561" lon="7.41424">
        <ele>2051.257</ele>
        <time>2020-06-26T07:37:53Z</time>
      </trkpt>
      <trkpt lat="44.0257" lon="7.41433">
        <ele>2050.014</ele>
        <time>2020-06-26T07:38:08Z</time>
      </trkpt>
      <trkpt lat="44.02585" lon="7.4144">
        <ele>2052.956</ele>
        <time>2020-06-26T07:38:24Z</time>
      </trkpt>
      <trkpt lat="44.02596" lon="7.41445">
        <ele>2053.913</ele>
        <time>2020-06-26T07:38:39Z</time>
      </trkpt>
      <trkpt lat="44.02603" lon="7.41449">
        <ele>2056.682</ele>
        <time>2020-06-26T07:38:55Z</time>
      </trkpt>
      <trkpt lat="44.02608" lon="7.41449">
        <ele>2059.484</ele>
        <time>2020-06-26T07:39:11Z</time>
      </trkpt>
      <trkpt lat="44.02617" lon="7.41452">
        <ele>2062.294</ele>
        <time>2020-06-26T07:39:26Z</time>
      </trkpt>
      <trkpt lat="44.02623" lon="7.41453">
        <ele>2062.857</ele>
        <time>2020-06-26T07:39:42Z</time>
      </trkpt>
      <trkpt lat="44.0263" lon="7.41457">
        <ele>2065.407</ele>
        <time>2020-06-26T07:39:58Z</time>
      </trkpt>
      <trkpt lat="44.02634" lon="7.41459">
        <ele>2067.035</ele>
        <time>2020-06-26T07:40:13Z</time>
      </trkpt>
      <trkpt lat="44.02646" lon="7.41462">
        <ele>2073.953</ele>
        <time>2020-06-26T07:40:29Z</time>
      </trkpt>
      <trkpt lat="44.02654" lon="7.41463">
        <ele>2076.467</ele>
        <time>2020-06-26T07:40:45Z</time>
      </trkpt>
      <trkpt lat="44.02668" lon="7.41468">
        <ele>2078.407</ele>
        <time>2020-06-26T07:41:01Z</time>
      </trkpt>
      <trkpt lat="44.02683" lon="7.41477">
        <ele>2077.204</ele>
        <time>2020-06-26T07:41:17Z</time>
      </trkpt>
      <trkpt lat="44.02695" lon="7.41482">
        <ele>2081.68</ele>
        <time>2020-06-26T07:41:33Z</time>
      </trkpt>
      <trkpt lat="44.02705" lon="7.41492">
        <ele>2083.985</ele>
        <time>2020-06-26T07:41:48Z</time>
      </trkpt>
      <trkpt lat="44.02719" lon="7.41506">
        <ele>2083.548</ele>
        <time>2020-06-26T07:42:04Z</time>
      </trkpt>
      <trkpt lat="44.02732" lon="7.4152">
        <ele>2085.938</ele>
        <time>2020-06-26T07:42:20Z</time>
      </trkpt>
      <trkpt lat="44.02737" lon="7.4153">
        <ele>2086.349</ele>
        <time>2020-06-26T07:42:35Z</time>
      </trkpt>
      <trkpt lat="44.02746" lon="7.41542">
        <ele>2088.916</ele>
        <time>2020-06-26T07:42:51Z</time>
      </trkpt>
      <trkpt lat="44.02759" lon="7.41559">
        <ele>2087.631</ele>
        <time>2020-06-26T07:43:07Z</time>
      </trkpt>
      <trkpt lat="44.02772" lon="7.41578">
        <ele>2085.411</ele>
        <time>2020-06-26T07:43:23Z</time>
      </trkpt>
      <trkpt lat="44.0278" lon="7.41594">
        <ele>2088.087</ele>
        <time>2020-06-26T07:43:38Z</time>
      </trkpt>
      <trkpt lat="44.02787" lon="7.41604">
        <ele>2091.246</ele>
        <time>2020-06-26T07:43:53Z</time>
      </trkpt>
      <trkpt lat="44.02794" lon="7.41621">
        <ele>2093.659</ele>
        <time>2020-06-26T07:44:09Z</time>
      </trkpt>
      <trkpt lat="44.02802" lon="7.41635">
        <ele>2094.994</ele>
        <time>2020-06-26T07:44:25Z</time>
      </trkpt>
      <trkpt lat="44.02806" lon="7.41647">
        <ele>2097.574</ele>
        <time>2020-06-26T07:44:40Z</time>
      </trkpt>
      <trkpt lat="44.02813" lon="7.41662">
        <ele>2097.747</ele>
        <time>2020-06-26T07:44:56Z</time>
      </trkpt>
      <trkpt lat="44.02819" lon="7.41669">
        <ele>2100.16</ele>
        <time>2020-06-26T07:45:11Z</time>
      </trkpt>
      <trkpt lat="44.0283" lon="7.41679">
        <ele>2099.537</ele>
        <time>2020-06-26T07:45:27Z</time>
      </trkpt>
      <trkpt lat="44.02836" lon="7.41687">
        <ele>2100.51</ele>
        <time>2020-06-26T07:45:43Z</time>
      </trkpt>
      <trkpt lat="44.02844" lon="7.41691">
        <ele>2103.733</ele>
        <time>2020-06-26T07:45:59Z</time>
      </trkpt>
      <trkpt lat="44.02845" lon="7.41697">
        <ele>2102.961</ele>
        <time>2020-06-26T07:46:15Z</time>
      </trkpt>
      <trkpt lat="44.02851" lon="7.41715">
        <ele>2103.35</ele>
        <time>2020-06-26T07:46:31Z</time>
      </trkpt>
      <trkpt lat="44.02862" lon="7.41729">
        <ele>2105.866</ele>
        <time>2020-06-26T07:46:47Z</time>
      </trkpt>
      <trkpt lat="44.02871" lon="7.4174">
        <ele>2108.378</ele>
        <time>2020-06-26T07:47:03Z</time>
      </trkpt>
      <trkpt lat="44.02879" lon="7.4175">
        <ele>2110.306</ele>
        <time>2020-06-26T07:47:18Z</time>
      </trkpt>
      <trkpt lat="44.02893" lon="7.41761">
        <ele>2109.992</ele>
        <time>2020-06-26T07:47:34Z</time>
      </trkpt>
      <trkpt lat="44.02901" lon="7.41766">
        <ele>2111.616</ele>
        <time>2020-06-26T07:47:49Z</time>
      </trkpt>
      <trkpt lat="44.02911" lon="7.41774">
        <ele>2112.557</ele>
        <time>2020-06-26T07:48:04Z</time>
      </trkpt>
      <trkpt lat="44.02922" lon="7.41778">
        <ele>2113.582</ele>
        <time>2020-06-26T07:48:20Z</time>
      </trkpt>
      <trkpt lat="44.02926" lon="7.41781">
        <ele>2115.162</ele>
        <time>2020-06-26T07:48:36Z</time>
      </trkpt>
      <trkpt lat="44.02932" lon="7.41792">
        <ele>2117.222</ele>
        <time>2020-06-26T07:48:51Z</time>
      </trkpt>
      <trkpt lat="44.02942" lon="7.41808">
        <ele>2118.247</ele>
        <time>2020-06-26T07:49:07Z</time>
      </trkpt>
      <trkpt lat="44.02948" lon="7.41822">
        <ele>2121.961</ele>
        <time>2020-06-26T07:49:23Z</time>
      </trkpt>
      <trkpt lat="44.0295" lon="7.41828">
        <ele>2122.196</ele>
        <time>2020-06-26T07:49:39Z</time>
      </trkpt>
      <trkpt lat="44.0295" lon="7.41828">
        <ele>2122.394</ele>
        <time>2020-06-26T07:49:55Z</time>
      </trkpt>
      <trkpt lat="44.0295" lon="7.41828">
        <ele>2122.534</ele>
        <time>2020-06-26T07:50:10Z</time>
      </trkpt>
      <trkpt lat="44.0295" lon="7.41829">
        <ele>2122.582</ele>
        <time>2020-06-26T07:50:26Z</time>
      </trkpt>
      <trkpt lat="44.0295" lon="7.41829">
        <ele>2122.582</ele>
        <time>2020-06-26T07:50:42Z</time>
      </trkpt>
      <trkpt lat="44.02949" lon="7.41827">
        <ele>2122.157</ele>
        <time>2020-06-26T07:50:58Z</time>
      </trkpt>
      <trkpt lat="44.02949" lon="7.41828">
        <ele>2122.235</ele>
        <time>2020-06-26T07:51:14Z</time>
      </trkpt>
      <trkpt lat="44.02951" lon="7.41837">
        <ele>2122.663</ele>
        <time>2020-06-26T07:51:29Z</time>
      </trkpt>
      <trkpt lat="44.0296" lon="7.41852">
        <ele>2127.276</ele>
        <time>2020-06-26T07:51:45Z</time>
      </trkpt>
      <trkpt lat="44.0297" lon="7.41866">
        <ele>2126.272</ele>
        <time>2020-06-26T07:52:00Z</time>
      </trkpt>
      <trkpt lat="44.02977" lon="7.41874">
        <ele>2128.361</ele>
        <time>2020-06-26T07:52:16Z</time>
      </trkpt>
      <trkpt lat="44.02985" lon="7.41887">
        <ele>2129.185</ele>
        <time>2020-06-26T07:52:32Z</time>
      </trkpt>
      <trkpt lat="44.02989" lon="7.41894">
        <ele>2129.872</ele>
        <time>2020-06-26T07:52:47Z</time>
      </trkpt>
      <trkpt lat="44.02991" lon="7.41905">
        <ele>2132.209</ele>
        <time>2020-06-26T07:53:03Z</time>
      </trkpt>
      <trkpt lat="44.02992" lon="7.41908">
        <ele>2133.792</ele>
        <time>2020-06-26T07:53:18Z</time>
      </trkpt>
      <trkpt lat="44.03004" lon="7.4191">
        <ele>2136.339</ele>
        <time>2020-06-26T07:53:34Z</time>
      </trkpt>
      <trkpt lat="44.03015" lon="7.41922">
        <ele>2137.716</ele>
        <time>2020-06-26T07:53:50Z</time>
      </trkpt>
      <trkpt lat="44.03026" lon="7.41935">
        <ele>2141.645</ele>
        <time>2020-06-26T07:54:06Z</time>
      </trkpt>
      <trkpt lat="44.03033" lon="7.41947">
        <ele>2144.28</ele>
        <time>2020-06-26T07:54:22Z</time>
      </trkpt>
      <trkpt lat="44.0304" lon="7.41966">
        <ele>2145.008</ele>
        <time>2020-06-26T07:54:37Z</time>
      </trkpt>
      <trkpt lat="44.03047" lon="7.41984">
        <ele>2145.075</ele>
        <time>2020-06-26T07:54:53Z</time>
      </trkpt>
      <trkpt lat="44.03053" lon="7.42002">
        <ele>2145.082</ele>
        <time>2020-06-26T07:55:08Z</time>
      </trkpt>
      <trkpt lat="44.03057" lon="7.42018">
        <ele>2146.934</ele>
        <time>2020-06-26T07:55:24Z</time>
      </trkpt>
      <trkpt lat="44.03058" lon="7.4202">
        <ele>2148.164</ele>
        <time>2020-06-26T07:55:40Z</time>
      </trkpt>
      <trkpt lat="44.03059" lon="7.42039">
        <ele>2147.622</ele>
        <time>2020-06-26T07:55:55Z</time>
      </trkpt>
      <trkpt lat="44.03063" lon="7.42059">
        <ele>2149.888</ele>
        <time>2020-06-26T07:56:10Z</time>
      </trkpt>
      <trkpt lat="44.03065" lon="7.42067">
        <ele>2149.051</ele>
        <time>2020-06-26T07:56:26Z</time>
      </trkpt>
      <trkpt lat="44.03064" lon="7.42067">
        <ele>2148.743</ele>
        <time>2020-06-26T07:56:41Z</time>
      </trkpt>
      <trkpt lat="44.03069" lon="7.42084">
        <ele>2150.741</ele>
        <time>2020-06-26T07:56:57Z</time>
      </trkpt>
      <trkpt lat="44.03074" lon="7.42107">
        <ele>2150.085</ele>
        <time>2020-06-26T07:57:13Z</time>
      </trkpt>
      <trkpt lat="44.03083" lon="7.42124">
        <ele>2152.033</ele>
        <time>2020-06-26T07:57:29Z</time>
      </trkpt>
      <trkpt lat="44.03092" lon="7.42146">
        <ele>2151.966</ele>
        <time>2020-06-26T07:57:45Z</time>
      </trkpt>
      <trkpt lat="44.03104" lon="7.4216">
        <ele>2152.751</ele>
        <time>2020-06-26T07:58:00Z</time>
      </trkpt>
      <trkpt lat="44.03111" lon="7.42176">
        <ele>2154.377</ele>
        <time>2020-06-26T07:58:15Z</time>
      </trkpt>
      <trkpt lat="44.03121" lon="7.42194">
        <ele>2154.106</ele>
        <time>2020-06-26T07:58:31Z</time>
      </trkpt>
      <trkpt lat="44.03135" lon="7.42212">
        <ele>2154.291</ele>
        <time>2020-06-26T07:58:47Z</time>
      </trkpt>
      <trkpt lat="44.03143" lon="7.42231">
        <ele>2157.347</ele>
        <time>2020-06-26T07:59:03Z</time>
      </trkpt>
      <trkpt lat="44.03151" lon="7.4225">
        <ele>2156.677</ele>
        <time>2020-06-26T07:59:18Z</time>
      </trkpt>
      <trkpt lat="44.03159" lon="7.42269">
        <ele>2158.4</ele>
        <time>2020-06-26T07:59:33Z</time>
      </trkpt>
      <trkpt lat="44.03166" lon="7.42289">
        <ele>2158.502</ele>
        <time>2020-06-26T07:59:49Z</time>
      </trkpt>
      <trkpt lat="44.03166" lon="7.42296">
        <ele>2158.155</ele>
        <time>2020-06-26T08:00:04Z</time>
      </trkpt>
      <trkpt lat="44.03166" lon="7.42296">
        <ele>2158.155</ele>
        <time>2020-06-26T08:00:19Z</time>
      </trkpt>
      <trkpt lat="44.03169" lon="7.42299">
        <ele>2158.688</ele>
        <time>2020-06-26T08:00:35Z</time>
      </trkpt>
      <trkpt lat="44.03172" lon="7.42311">
        <ele>2158.114</ele>
        <time>2020-06-26T08:00:51Z</time>
      </trkpt>
      <trkpt lat="44.03172" lon="7.42311">
        <ele>2157.957</ele>
        <time>2020-06-26T08:01:07Z</time>
      </trkpt>
      <trkpt lat="44.03176" lon="7.42323">
        <ele>2156.604</ele>
        <time>2020-06-26T08:01:22Z</time>
      </trkpt>
      <trkpt lat="44.03183" lon="7.42334">
        <ele>2149.938</ele>
        <time>2020-06-26T08:01:38Z</time>
      </trkpt>
      <trkpt lat="44.03188" lon="7.42336">
        <ele>2149.019</ele>
        <time>2020-06-26T08:01:54Z</time>
      </trkpt>
      <trkpt lat="44.0319" lon="7.4235">
        <ele>2145.68</ele>
        <time>2020-06-26T08:02:10Z</time>
      </trkpt>
      <trkpt lat="44.0319" lon="7.4235">
        <ele>2145.68</ele>
        <time>2020-06-26T08:02:25Z</time>
      </trkpt>
      <trkpt lat="44.0319" lon="7.42348">
        <ele>2145.384</ele>
        <time>2020-06-26T08:02:41Z</time>
      </trkpt>
      <trkpt lat="44.03193" lon="7.42352">
        <ele>2144.205</ele>
        <time>2020-06-26T08:02:56Z</time>
      </trkpt>
      <trkpt lat="44.03195" lon="7.42362">
        <ele>2143.97</ele>
        <time>2020-06-26T08:03:12Z</time>
      </trkpt>
      <trkpt lat="44.03197" lon="7.42388">
        <ele>2145.018</ele>
        <time>2020-06-26T08:03:28Z</time>
      </trkpt>
      <trkpt lat="44.03202" lon="7.42412">
        <ele>2147.92</ele>
        <time>2020-06-26T08:03:44Z</time>
      </trkpt>
      <trkpt lat="44.03207" lon="7.42438">
        <ele>2140.55</ele>
        <time>2020-06-26T08:04:00Z</time>
      </trkpt>
      <trkpt lat="44.0321" lon="7.42452">
        <ele>2135.828</ele>
        <time>2020-06-26T08:04:15Z</time>
      </trkpt>
      <trkpt lat="44.03212" lon="7.42472">
        <ele>2133.334</ele>
        <time>2020-06-26T08:04:31Z</time>
      </trkpt>
      <trkpt lat="44.03209" lon="7.425">
        <ele>2130.189</ele>
        <time>2020-06-26T08:04:47Z</time>
      </trkpt>
      <trkpt lat="44.03215" lon="7.42522">
        <ele>2135.705</ele>
        <time>2020-06-26T08:05:02Z</time>
      </trkpt>
      <trkpt lat="44.0322" lon="7.42548">
        <ele>2134.117</ele>
        <time>2020-06-26T08:05:18Z</time>
      </trkpt>
      <trkpt lat="44.03226" lon="7.42564">
        <ele>2133.685</ele>
        <time>2020-06-26T08:05:34Z</time>
      </trkpt>
      <trkpt lat="44.03239" lon="7.42576">
        <ele>2128.175</ele>
        <time>2020-06-26T08:05:50Z</time>
      </trkpt>
      <trkpt lat="44.03248" lon="7.42582">
        <ele>2129.679</ele>
        <time>2020-06-26T08:06:06Z</time>
      </trkpt>
      <trkpt lat="44.03256" lon="7.42582">
        <ele>2129.542</ele>
        <time>2020-06-26T08:06:21Z</time>
      </trkpt>
      <trkpt lat="44.03265" lon="7.42581">
        <ele>2130.201</ele>
        <time>2020-06-26T08:06:37Z</time>
      </trkpt>
      <trkpt lat="44.03265" lon="7.42581">
        <ele>2130.201</ele>
        <time>2020-06-26T08:06:53Z</time>
      </trkpt>
      <trkpt lat="44.03269" lon="7.42581">
        <ele>2129.736</ele>
        <time>2020-06-26T08:07:09Z</time>
      </trkpt>
      <trkpt lat="44.03266" lon="7.42582">
        <ele>2129.515</ele>
        <time>2020-06-26T08:07:24Z</time>
      </trkpt>
      <trkpt lat="44.03274" lon="7.4259">
        <ele>2132.925</ele>
        <time>2020-06-26T08:07:40Z</time>
      </trkpt>
      <trkpt lat="44.03287" lon="7.42595">
        <ele>2132.238</ele>
        <time>2020-06-26T08:07:55Z</time>
      </trkpt>
      <trkpt lat="44.03305" lon="7.42602">
        <ele>2128.78</ele>
        <time>2020-06-26T08:08:11Z</time>
      </trkpt>
      <trkpt lat="44.03308" lon="7.42602">
        <ele>2123.137</ele>
        <time>2020-06-26T08:08:26Z</time>
      </trkpt>
      <trkpt lat="44.03311" lon="7.42602">
        <ele>2122.085</ele>
        <time>2020-06-26T08:08:41Z</time>
      </trkpt>
      <trkpt lat="44.03323" lon="7.42597">
        <ele>2118.637</ele>
        <time>2020-06-26T08:08:57Z</time>
      </trkpt>
      <trkpt lat="44.0334" lon="7.42587">
        <ele>2118.777</ele>
        <time>2020-06-26T08:09:12Z</time>
      </trkpt>
      <trkpt lat="44.03365" lon="7.42584">
        <ele>2123.262</ele>
        <time>2020-06-26T08:09:27Z</time>
      </trkpt>
      <trkpt lat="44.03386" lon="7.42581">
        <ele>2126.523</ele>
        <time>2020-06-26T08:09:43Z</time>
      </trkpt>
      <trkpt lat="44.03402" lon="7.42581">
        <ele>2119.531</ele>
        <time>2020-06-26T08:09:58Z</time>
      </trkpt>
      <trkpt lat="44.03416" lon="7.42581">
        <ele>2116.427</ele>
        <time>2020-06-26T08:10:14Z</time>
      </trkpt>
      <trkpt lat="44.03421" lon="7.42581">
        <ele>2115.906</ele>
        <time>2020-06-26T08:10:30Z</time>
      </trkpt>
      <trkpt lat="44.03422" lon="7.42583">
        <ele>2118.005</ele>
        <time>2020-06-26T08:10:45Z</time>
      </trkpt>
      <trkpt lat="44.03422" lon="7.42583">
        <ele>2118.005</ele>
        <time>2020-06-26T08:11:00Z</time>
      </trkpt>
      <trkpt lat="44.03422" lon="7.42583">
        <ele>2118.005</ele>
        <time>2020-06-26T08:11:15Z</time>
      </trkpt>
      <trkpt lat="44.03428" lon="7.42589">
        <ele>2115.516</ele>
        <time>2020-06-26T08:11:31Z</time>
      </trkpt>
      <trkpt lat="44.03443" lon="7.42589">
        <ele>2115.301</ele>
        <time>2020-06-26T08:11:46Z</time>
      </trkpt>
      <trkpt lat="44.03452" lon="7.42593">
        <ele>2116.215</ele>
        <time>2020-06-26T08:12:02Z</time>
      </trkpt>
      <trkpt lat="44.03452" lon="7.42593">
        <ele>2116.215</ele>
        <time>2020-06-26T08:12:17Z</time>
      </trkpt>
      <trkpt lat="44.03458" lon="7.42594">
        <ele>2116.697</ele>
        <time>2020-06-26T08:12:32Z</time>
      </trkpt>
      <trkpt lat="44.03475" lon="7.42598">
        <ele>2117.636</ele>
        <time>2020-06-26T08:12:48Z</time>
      </trkpt>
      <trkpt lat="44.03492" lon="7.42609">
        <ele>2117.627</ele>
        <time>2020-06-26T08:13:04Z</time>
      </trkpt>
      <trkpt lat="44.03503" lon="7.42615">
        <ele>2119.92</ele>
        <time>2020-06-26T08:13:19Z</time>
      </trkpt>
      <trkpt lat="44.03532" lon="7.42638">
        <ele>2125.884</ele>
        <time>2020-06-26T08:13:35Z</time>
      </trkpt>
      <trkpt lat="44.03546" lon="7.42652">
        <ele>2126.88</ele>
        <time>2020-06-26T08:13:50Z</time>
      </trkpt>
      <trkpt lat="44.03549" lon="7.42664">
        <ele>2121.06</ele>
        <time>2020-06-26T08:14:05Z</time>
      </trkpt>
      <trkpt lat="44.03551" lon="7.42664">
        <ele>2120.408</ele>
        <time>2020-06-26T08:14:20Z</time>
      </trkpt>
      <trkpt lat="44.03556" lon="7.42662">
        <ele>2120.469</ele>
        <time>2020-06-26T08:14:36Z</time>
      </trkpt>
      <trkpt lat="44.03572" lon="7.42667">
        <ele>2123.382</ele>
        <time>2020-06-26T08:14:51Z</time>
      </trkpt>
      <trkpt lat="44.03587" lon="7.42672">
        <ele>2126.313</ele>
        <time>2020-06-26T08:15:07Z</time>
      </trkpt>
      <trkpt lat="44.03607" lon="7.4268">
        <ele>2130.547</ele>
        <time>2020-06-26T08:15:23Z</time>
      </trkpt>
      <trkpt lat="44.03621" lon="7.42684">
        <ele>2132.574</ele>
        <time>2020-06-26T08:15:38Z</time>
      </trkpt>
      <trkpt lat="44.03627" lon="7.42684">
        <ele>2138.411</ele>
        <time>2020-06-26T08:15:54Z</time>
      </trkpt>
      <trkpt lat="44.03638" lon="7.42684">
        <ele>2138.345</ele>
        <time>2020-06-26T08:16:09Z</time>
      </trkpt>
      <trkpt lat="44.03638" lon="7.42684">
        <ele>2138.345</ele>
        <time>2020-06-26T08:16:25Z</time>
      </trkpt>
      <trkpt lat="44.03637" lon="7.42685">
        <ele>2136.808</ele>
        <time>2020-06-26T08:16:40Z</time>
      </trkpt>
      <trkpt lat="44.03637" lon="7.42685">
        <ele>2136.808</ele>
        <time>2020-06-26T08:16:55Z</time>
      </trkpt>
      <trkpt lat="44.03647" lon="7.42681">
        <ele>2140.041</ele>
        <time>2020-06-26T08:17:10Z</time>
      </trkpt>
      <trkpt lat="44.03655" lon="7.42683">
        <ele>2142.179</ele>
        <time>2020-06-26T08:17:26Z</time>
      </trkpt>
      <trkpt lat="44.03655" lon="7.42683">
        <ele>2142.179</ele>
        <time>2020-06-26T08:17:42Z</time>
      </trkpt>
      <trkpt lat="44.03658" lon="7.42683">
        <ele>2142.298</ele>
        <time>2020-06-26T08:17:57Z</time>
      </trkpt>
      <trkpt lat="44.03677" lon="7.42693">
        <ele>2145.788</ele>
        <time>2020-06-26T08:18:13Z</time>
      </trkpt>
      <trkpt lat="44.03688" lon="7.42696">
        <ele>2147.9</ele>
        <time>2020-06-26T08:18:29Z</time>
      </trkpt>
      <trkpt lat="44.03695" lon="7.427">
        <ele>2149.172</ele>
        <time>2020-06-26T08:18:44Z</time>
      </trkpt>
      <trkpt lat="44.03699" lon="7.42707">
        <ele>2149.71</ele>
        <time>2020-06-26T08:19:00Z</time>
      </trkpt>
      <trkpt lat="44.037" lon="7.42711">
        <ele>2149.934</ele>
        <time>2020-06-26T08:19:15Z</time>
      </trkpt>
      <trkpt lat="44.037" lon="7.42711">
        <ele>2149.934</ele>
        <time>2020-06-26T08:19:31Z</time>
      </trkpt>
      <trkpt lat="44.03723" lon="7.42728">
        <ele>2151.193</ele>
        <time>2020-06-26T08:19:47Z</time>
      </trkpt>
      <trkpt lat="44.03732" lon="7.42736">
        <ele>2152.446</ele>
        <time>2020-06-26T08:20:02Z</time>
      </trkpt>
      <trkpt lat="44.03739" lon="7.42738">
        <ele>2152.623</ele>
        <time>2020-06-26T08:20:18Z</time>
      </trkpt>
      <trkpt lat="44.03739" lon="7.42739">
        <ele>2152.571</ele>
        <time>2020-06-26T08:20:33Z</time>
      </trkpt>
      <trkpt lat="44.03746" lon="7.42747">
        <ele>2152.238</ele>
        <time>2020-06-26T08:20:49Z</time>
      </trkpt>
      <trkpt lat="44.03757" lon="7.42763">
        <ele>2157.477</ele>
        <time>2020-06-26T08:21:04Z</time>
      </trkpt>
      <trkpt lat="44.03768" lon="7.42773">
        <ele>2164.329</ele>
        <time>2020-06-26T08:21:20Z</time>
      </trkpt>
      <trkpt lat="44.03774" lon="7.42781">
        <ele>2162.95</ele>
        <time>2020-06-26T08:21:35Z</time>
      </trkpt>
      <trkpt lat="44.03786" lon="7.42794">
        <ele>2164.213</ele>
        <time>2020-06-26T08:21:51Z</time>
      </trkpt>
      <trkpt lat="44.03794" lon="7.42801">
        <ele>2164.479</ele>
        <time>2020-06-26T08:22:07Z</time>
      </trkpt>
      <trkpt lat="44.03795" lon="7.42806">
        <ele>2165.081</ele>
        <time>2020-06-26T08:22:22Z</time>
      </trkpt>
      <trkpt lat="44.03799" lon="7.42812">
        <ele>2165.822</ele>
        <time>2020-06-26T08:22:38Z</time>
      </trkpt>
      <trkpt lat="44.03803" lon="7.42818">
        <ele>2169.017</ele>
        <time>2020-06-26T08:22:54Z</time>
      </trkpt>
      <trkpt lat="44.03809" lon="7.42826">
        <ele>2172.027</ele>
        <time>2020-06-26T08:23:09Z</time>
      </trkpt>
      <trkpt lat="44.03822" lon="7.42834">
        <ele>2168.055</ele>
        <time>2020-06-26T08:23:25Z</time>
      </trkpt>
      <trkpt lat="44.03828" lon="7.42839">
        <ele>2166.332</ele>
        <time>2020-06-26T08:23:41Z</time>
      </trkpt>
      <trkpt lat="44.03835" lon="7.42845">
        <ele>2167.702</ele>
        <time>2020-06-26T08:23:57Z</time>
      </trkpt>
      <trkpt lat="44.03835" lon="7.42845">
        <ele>2167.702</ele>
        <time>2020-06-26T08:24:12Z</time>
      </trkpt>
      <trkpt lat="44.03835" lon="7.42845">
        <ele>2167.702</ele>
        <time>2020-06-26T08:24:28Z</time>
      </trkpt>
      <trkpt lat="44.03835" lon="7.42845">
        <ele>2167.702</ele>
        <time>2020-06-26T08:24:44Z</time>
      </trkpt>
      <trkpt lat="44.03835" lon="7.42847">
        <ele>2168.165</ele>
        <time>2020-06-26T08:25:00Z</time>
      </trkpt>
      <trkpt lat="44.0384" lon="7.42844">
        <ele>2169.361</ele>
        <time>2020-06-26T08:25:16Z</time>
      </trkpt>
      <trkpt lat="44.03852" lon="7.42855">
        <ele>2166.512</ele>
        <time>2020-06-26T08:25:32Z</time>
      </trkpt>
      <trkpt lat="44.03859" lon="7.42869">
        <ele>2168.933</ele>
        <time>2020-06-26T08:25:48Z</time>
      </trkpt>
      <trkpt lat="44.03866" lon="7.42872">
        <ele>2175.083</ele>
        <time>2020-06-26T08:26:04Z</time>
      </trkpt>
      <trkpt lat="44.03877" lon="7.42879">
        <ele>2175.967</ele>
        <time>2020-06-26T08:26:20Z</time>
      </trkpt>
      <trkpt lat="44.03877" lon="7.4288">
        <ele>2176.087</ele>
        <time>2020-06-26T08:26:36Z</time>
      </trkpt>
      <trkpt lat="44.039" lon="7.42886">
        <ele>2179.298</ele>
        <time>2020-06-26T08:26:55Z</time>
      </trkpt>
      <trkpt lat="44.03907" lon="7.42889">
        <ele>2180.833</ele>
        <time>2020-06-26T08:27:11Z</time>
      </trkpt>
      <trkpt lat="44.0391" lon="7.42906">
        <ele>2189.648</ele>
        <time>2020-06-26T08:27:38Z</time>
      </trkpt>
      <trkpt lat="44.03919" lon="7.42919">
        <ele>2184.706</ele>
        <time>2020-06-26T08:27:53Z</time>
      </trkpt>
      <trkpt lat="44.03914" lon="7.42933">
        <ele>2190.194</ele>
        <time>2020-06-26T08:28:09Z</time>
      </trkpt>
      <trkpt lat="44.039" lon="7.42944">
        <ele>2202.832</ele>
        <time>2020-06-26T08:28:24Z</time>
      </trkpt>
      <trkpt lat="44.03893" lon="7.42956">
        <ele>2199.095</ele>
        <time>2020-06-26T08:28:40Z</time>
      </trkpt>
      <trkpt lat="44.03897" lon="7.42952">
        <ele>2200.978</ele>
        <time>2020-06-26T08:28:56Z</time>
      </trkpt>
      <trkpt lat="44.03906" lon="7.42942">
        <ele>2201.627</ele>
        <time>2020-06-26T08:29:12Z</time>
      </trkpt>
      <trkpt lat="44.03913" lon="7.42938">
        <ele>2201.306</ele>
        <time>2020-06-26T08:29:27Z</time>
      </trkpt>
      <trkpt lat="44.03916" lon="7.42933">
        <ele>2203.456</ele>
        <time>2020-06-26T08:29:43Z</time>
      </trkpt>
      <trkpt lat="44.03925" lon="7.42931">
        <ele>2204.251</ele>
        <time>2020-06-26T08:29:59Z</time>
      </trkpt>
      <trkpt lat="44.03929" lon="7.42934">
        <ele>2205.659</ele>
        <time>2020-06-26T08:30:15Z</time>
      </trkpt>
      <trkpt lat="44.03934" lon="7.4293">
        <ele>2206.977</ele>
        <time>2020-06-26T08:30:30Z</time>
      </trkpt>
      <trkpt lat="44.03942" lon="7.42925">
        <ele>2208.356</ele>
        <time>2020-06-26T08:30:45Z</time>
      </trkpt>
      <trkpt lat="44.03946" lon="7.42918">
        <ele>2209.294</ele>
        <time>2020-06-26T08:31:01Z</time>
      </trkpt>
      <trkpt lat="44.03954" lon="7.42917">
        <ele>2211.14</ele>
        <time>2020-06-26T08:31:17Z</time>
      </trkpt>
      <trkpt lat="44.03956" lon="7.42912">
        <ele>2214.09</ele>
        <time>2020-06-26T08:31:33Z</time>
      </trkpt>
      <trkpt lat="44.03956" lon="7.42912">
        <ele>2214.09</ele>
        <time>2020-06-26T08:31:49Z</time>
      </trkpt>
      <trkpt lat="44.03966" lon="7.42901">
        <ele>2219.082</ele>
        <time>2020-06-26T08:32:04Z</time>
      </trkpt>
      <trkpt lat="44.03968" lon="7.42902">
        <ele>2220.613</ele>
        <time>2020-06-26T08:32:19Z</time>
      </trkpt>
      <trkpt lat="44.03968" lon="7.42902">
        <ele>2220.613</ele>
        <time>2020-06-26T08:32:35Z</time>
      </trkpt>
      <trkpt lat="44.03971" lon="7.42906">
        <ele>2220.872</ele>
        <time>2020-06-26T08:32:50Z</time>
      </trkpt>
      <trkpt lat="44.03978" lon="7.42904">
        <ele>2219.545</ele>
        <time>2020-06-26T08:33:06Z</time>
      </trkpt>
      <trkpt lat="44.03977" lon="7.42907">
        <ele>2219.161</ele>
        <time>2020-06-26T08:33:21Z</time>
      </trkpt>
      <trkpt lat="44.03975" lon="7.42904">
        <ele>2220.905</ele>
        <time>2020-06-26T08:33:37Z</time>
      </trkpt>
      <trkpt lat="44.03975" lon="7.42904">
        <ele>2220.572</ele>
        <time>2020-06-26T08:33:53Z</time>
      </trkpt>
      <trkpt lat="44.03974" lon="7.4291">
        <ele>2220.861</ele>
        <time>2020-06-26T08:34:08Z</time>
      </trkpt>
      <trkpt lat="44.03974" lon="7.42909">
        <ele>2220.74</ele>
        <time>2020-06-26T08:34:23Z</time>
      </trkpt>
      <trkpt lat="44.03981" lon="7.42902">
        <ele>2216.597</ele>
        <time>2020-06-26T08:34:38Z</time>
      </trkpt>
      <trkpt lat="44.03981" lon="7.42902">
        <ele>2216.597</ele>
        <time>2020-06-26T08:34:54Z</time>
      </trkpt>
      <trkpt lat="44.03982" lon="7.42901">
        <ele>2222.216</ele>
        <time>2020-06-26T08:35:09Z</time>
      </trkpt>
      <trkpt lat="44.03987" lon="7.42891">
        <ele>2228.147</ele>
        <time>2020-06-26T08:35:25Z</time>
      </trkpt>
      <trkpt lat="44.03995" lon="7.4288">
        <ele>2230.466</ele>
        <time>2020-06-26T08:35:40Z</time>
      </trkpt>
      <trkpt lat="44.03997" lon="7.42873">
        <ele>2228.99</ele>
        <time>2020-06-26T08:35:56Z</time>
      </trkpt>
      <trkpt lat="44.04006" lon="7.42861">
        <ele>2227.356</ele>
        <time>2020-06-26T08:36:12Z</time>
      </trkpt>
      <trkpt lat="44.04006" lon="7.42861">
        <ele>2233.12</ele>
        <time>2020-06-26T08:36:27Z</time>
      </trkpt>
      <trkpt lat="44.04008" lon="7.42859">
        <ele>2241.175</ele>
        <time>2020-06-26T08:36:43Z</time>
      </trkpt>
      <trkpt lat="44.04017" lon="7.42859">
        <ele>2243.024</ele>
        <time>2020-06-26T08:36:58Z</time>
      </trkpt>
      <trkpt lat="44.04022" lon="7.42861">
        <ele>2246.323</ele>
        <time>2020-06-26T08:37:13Z</time>
      </trkpt>
      <trkpt lat="44.04027" lon="7.42865">
        <ele>2251.316</ele>
        <time>2020-06-26T08:37:29Z</time>
      </trkpt>
      <trkpt lat="44.04034" lon="7.42867">
        <ele>2256.46</ele>
        <time>2020-06-26T08:37:44Z</time>
      </trkpt>
      <trkpt lat="44.04036" lon="7.4288">
        <ele>2258.057</ele>
        <time>2020-06-26T08:38:00Z</time>
      </trkpt>
      <trkpt lat="44.04033" lon="7.42894">
        <ele>2252.434</ele>
        <time>2020-06-26T08:38:16Z</time>
      </trkpt>
      <trkpt lat="44.04039" lon="7.42901">
        <ele>2253.331</ele>
        <time>2020-06-26T08:38:32Z</time>
      </trkpt>
      <trkpt lat="44.04036" lon="7.42902">
        <ele>2254.134</ele>
        <time>2020-06-26T08:38:47Z</time>
      </trkpt>
      <trkpt lat="44.04038" lon="7.42904">
        <ele>2256.815</ele>
        <time>2020-06-26T08:39:03Z</time>
      </trkpt>
      <trkpt lat="44.04037" lon="7.42903">
        <ele>2258.185</ele>
        <time>2020-06-26T08:39:18Z</time>
      </trkpt>
      <trkpt lat="44.04042" lon="7.42907">
        <ele>2261.629</ele>
        <time>2020-06-26T08:39:34Z</time>
      </trkpt>
      <trkpt lat="44.04044" lon="7.42907">
        <ele>2262.451</ele>
        <time>2020-06-26T08:39:50Z</time>
      </trkpt>
      <trkpt lat="44.04051" lon="7.4291">
        <ele>2265.398</ele>
        <time>2020-06-26T08:40:05Z</time>
      </trkpt>
      <trkpt lat="44.04056" lon="7.42905">
        <ele>2264.121</ele>
        <time>2020-06-26T08:40:21Z</time>
      </trkpt>
      <trkpt lat="44.04065" lon="7.42909">
        <ele>2269.02</ele>
        <time>2020-06-26T08:40:37Z</time>
      </trkpt>
      <trkpt lat="44.04066" lon="7.42901">
        <ele>2268.862</ele>
        <time>2020-06-26T08:40:53Z</time>
      </trkpt>
      <trkpt lat="44.0407" lon="7.42899">
        <ele>2269.374</ele>
        <time>2020-06-26T08:41:08Z</time>
      </trkpt>
      <trkpt lat="44.0408" lon="7.42897">
        <ele>2265.852</ele>
        <time>2020-06-26T08:41:24Z</time>
      </trkpt>
      <trkpt lat="44.04088" lon="7.42886">
        <ele>2269.742</ele>
        <time>2020-06-26T08:41:39Z</time>
      </trkpt>
      <trkpt lat="44.04094" lon="7.42883">
        <ele>2271.421</ele>
        <time>2020-06-26T08:41:54Z</time>
      </trkpt>
      <trkpt lat="44.04099" lon="7.42877">
        <ele>2270.583</ele>
        <time>2020-06-26T08:42:10Z</time>
      </trkpt>
      <trkpt lat="44.04106" lon="7.42878">
        <ele>2271.741</ele>
        <time>2020-06-26T08:42:26Z</time>
      </trkpt>
      <trkpt lat="44.04109" lon="7.42892">
        <ele>2278.083</ele>
        <time>2020-06-26T08:42:41Z</time>
      </trkpt>
      <trkpt lat="44.041" lon="7.42903">
        <ele>2283.374</ele>
        <time>2020-06-26T08:42:57Z</time>
      </trkpt>
      <trkpt lat="44.04099" lon="7.42894">
        <ele>2284.915</ele>
        <time>2020-06-26T08:43:12Z</time>
      </trkpt>
      <trkpt lat="44.04104" lon="7.42889">
        <ele>2286.479</ele>
        <time>2020-06-26T08:43:28Z</time>
      </trkpt>
      <trkpt lat="44.04112" lon="7.42886">
        <ele>2284.855</ele>
        <time>2020-06-26T08:43:44Z</time>
      </trkpt>
      <trkpt lat="44.04113" lon="7.42886">
        <ele>2285.229</ele>
        <time>2020-06-26T08:44:00Z</time>
      </trkpt>
      <trkpt lat="44.0412" lon="7.42888">
        <ele>2287.96</ele>
        <time>2020-06-26T08:44:15Z</time>
      </trkpt>
      <trkpt lat="44.04128" lon="7.42898">
        <ele>2291.744</ele>
        <time>2020-06-26T08:44:31Z</time>
      </trkpt>
      <trkpt lat="44.04131" lon="7.42901">
        <ele>2294.169</ele>
        <time>2020-06-26T08:44:46Z</time>
      </trkpt>
      <trkpt lat="44.04139" lon="7.42897">
        <ele>2293.971</ele>
        <time>2020-06-26T08:45:02Z</time>
      </trkpt>
      <trkpt lat="44.04138" lon="7.42898">
        <ele>2296.007</ele>
        <time>2020-06-26T08:45:17Z</time>
      </trkpt>
      <trkpt lat="44.04147" lon="7.42907">
        <ele>2300.969</ele>
        <time>2020-06-26T08:45:33Z</time>
      </trkpt>
      <trkpt lat="44.0416" lon="7.42913">
        <ele>2305.287</ele>
        <time>2020-06-26T08:45:49Z</time>
      </trkpt>
      <trkpt lat="44.04161" lon="7.42909">
        <ele>2308.789</ele>
        <time>2020-06-26T08:46:04Z</time>
      </trkpt>
      <trkpt lat="44.04161" lon="7.4291">
        <ele>2309.322</ele>
        <time>2020-06-26T08:46:19Z</time>
      </trkpt>
      <trkpt lat="44.04173" lon="7.4291">
        <ele>2313.195</ele>
        <time>2020-06-26T08:46:35Z</time>
      </trkpt>
      <trkpt lat="44.04177" lon="7.42911">
        <ele>2314.116</ele>
        <time>2020-06-26T08:46:50Z</time>
      </trkpt>
      <trkpt lat="44.04178" lon="7.42911">
        <ele>2314.231</ele>
        <time>2020-06-26T08:47:05Z</time>
      </trkpt>
      <trkpt lat="44.04178" lon="7.42911">
        <ele>2314.231</ele>
        <time>2020-06-26T08:47:20Z</time>
      </trkpt>
      <trkpt lat="44.04178" lon="7.42911">
        <ele>2314.231</ele>
        <time>2020-06-26T08:47:36Z</time>
      </trkpt>
      <trkpt lat="44.0418" lon="7.42915">
        <ele>2313.243</ele>
        <time>2020-06-26T08:47:51Z</time>
      </trkpt>
      <trkpt lat="44.04183" lon="7.42922">
        <ele>2314.419</ele>
        <time>2020-06-26T08:48:07Z</time>
      </trkpt>
      <trkpt lat="44.04188" lon="7.42936">
        <ele>2314.942</ele>
        <time>2020-06-26T08:48:23Z</time>
      </trkpt>
      <trkpt lat="44.04189" lon="7.42941">
        <ele>2314.221</ele>
        <time>2020-06-26T08:48:38Z</time>
      </trkpt>
      <trkpt lat="44.04192" lon="7.42939">
        <ele>2315.87</ele>
        <time>2020-06-26T08:48:54Z</time>
      </trkpt>
      <trkpt lat="44.04191" lon="7.42939">
        <ele>2317.012</ele>
        <time>2020-06-26T08:49:10Z</time>
      </trkpt>
      <trkpt lat="44.04191" lon="7.42939">
        <ele>2317.012</ele>
        <time>2020-06-26T08:49:26Z</time>
      </trkpt>
      <trkpt lat="44.04204" lon="7.42947">
        <ele>2321.021</ele>
        <time>2020-06-26T08:49:41Z</time>
      </trkpt>
      <trkpt lat="44.04208" lon="7.42946">
        <ele>2321.533</ele>
        <time>2020-06-26T08:49:57Z</time>
      </trkpt>
      <trkpt lat="44.04211" lon="7.42951">
        <ele>2322.172</ele>
        <time>2020-06-26T08:50:13Z</time>
      </trkpt>
      <trkpt lat="44.04218" lon="7.42959">
        <ele>2321.515</ele>
        <time>2020-06-26T08:50:28Z</time>
      </trkpt>
      <trkpt lat="44.04223" lon="7.42961">
        <ele>2322.539</ele>
        <time>2020-06-26T08:50:43Z</time>
      </trkpt>
      <trkpt lat="44.04225" lon="7.42973">
        <ele>2324.146</ele>
        <time>2020-06-26T08:50:59Z</time>
      </trkpt>
      <trkpt lat="44.04239" lon="7.42974">
        <ele>2335.671</ele>
        <time>2020-06-26T08:51:14Z</time>
      </trkpt>
      <trkpt lat="44.0424" lon="7.42974">
        <ele>2337.651</ele>
        <time>2020-06-26T08:51:29Z</time>
      </trkpt>
      <trkpt lat="44.04241" lon="7.42974">
        <ele>2336.989</ele>
        <time>2020-06-26T08:51:45Z</time>
      </trkpt>
      <trkpt lat="44.04236" lon="7.42977">
        <ele>2336.848</ele>
        <time>2020-06-26T08:52:01Z</time>
      </trkpt>
      <trkpt lat="44.04236" lon="7.42977">
        <ele>2336.848</ele>
        <time>2020-06-26T08:52:16Z</time>
      </trkpt>
      <trkpt lat="44.04236" lon="7.42978">
        <ele>2336.61</ele>
        <time>2020-06-26T08:52:31Z</time>
      </trkpt>
      <trkpt lat="44.04236" lon="7.42979">
        <ele>2336.35</ele>
        <time>2020-06-26T08:52:47Z</time>
      </trkpt>
      <trkpt lat="44.04236" lon="7.42979">
        <ele>2336.35</ele>
        <time>2020-06-26T08:53:02Z</time>
      </trkpt>
      <trkpt lat="44.04236" lon="7.42979">
        <ele>2336.35</ele>
        <time>2020-06-26T08:53:18Z</time>
      </trkpt>
      <trkpt lat="44.04236" lon="7.4298">
        <ele>2336.527</ele>
        <time>2020-06-26T08:53:34Z</time>
      </trkpt>
      <trkpt lat="44.04238" lon="7.42987">
        <ele>2335.472</ele>
        <time>2020-06-26T08:53:49Z</time>
      </trkpt>
      <trkpt lat="44.04241" lon="7.42994">
        <ele>2334.241</ele>
        <time>2020-06-26T08:54:05Z</time>
      </trkpt>
      <trkpt lat="44.0424" lon="7.43002">
        <ele>2334.865</ele>
        <time>2020-06-26T08:54:21Z</time>
      </trkpt>
      <trkpt lat="44.04245" lon="7.43005">
        <ele>2334.807</ele>
        <time>2020-06-26T08:54:37Z</time>
      </trkpt>
      <trkpt lat="44.04249" lon="7.43003">
        <ele>2339.037</ele>
        <time>2020-06-26T08:54:52Z</time>
      </trkpt>
      <trkpt lat="44.04251" lon="7.43012">
        <ele>2341.98</ele>
        <time>2020-06-26T08:55:08Z</time>
      </trkpt>
      <trkpt lat="44.04249" lon="7.43019">
        <ele>2343.279</ele>
        <time>2020-06-26T08:55:24Z</time>
      </trkpt>
      <trkpt lat="44.04252" lon="7.43022">
        <ele>2344.513</ele>
        <time>2020-06-26T08:55:40Z</time>
      </trkpt>
      <trkpt lat="44.04256" lon="7.43027">
        <ele>2346.121</ele>
        <time>2020-06-26T08:55:55Z</time>
      </trkpt>
      <trkpt lat="44.04257" lon="7.43034">
        <ele>2346.037</ele>
        <time>2020-06-26T08:56:10Z</time>
      </trkpt>
      <trkpt lat="44.04261" lon="7.43038">
        <ele>2347.741</ele>
        <time>2020-06-26T08:56:26Z</time>
      </trkpt>
      <trkpt lat="44.04266" lon="7.43046">
        <ele>2349.099</ele>
        <time>2020-06-26T08:56:41Z</time>
      </trkpt>
      <trkpt lat="44.04277" lon="7.43048">
        <ele>2350.886</ele>
        <time>2020-06-26T08:56:56Z</time>
      </trkpt>
      <trkpt lat="44.04285" lon="7.43044">
        <ele>2355.755</ele>
        <time>2020-06-26T08:57:11Z</time>
      </trkpt>
      <trkpt lat="44.04289" lon="7.43045">
        <ele>2357.517</ele>
        <time>2020-06-26T08:57:27Z</time>
      </trkpt>
      <trkpt lat="44.04299" lon="7.43043">
        <ele>2360.325</ele>
        <time>2020-06-26T08:57:42Z</time>
      </trkpt>
      <trkpt lat="44.04309" lon="7.4304">
        <ele>2360.303</ele>
        <time>2020-06-26T08:57:57Z</time>
      </trkpt>
      <trkpt lat="44.04315" lon="7.43051">
        <ele>2362.215</ele>
        <time>2020-06-26T08:58:12Z</time>
      </trkpt>
      <trkpt lat="44.04323" lon="7.43044">
        <ele>2365.551</ele>
        <time>2020-06-26T08:58:28Z</time>
      </trkpt>
      <trkpt lat="44.04329" lon="7.43059">
        <ele>2367.093</ele>
        <time>2020-06-26T08:58:43Z</time>
      </trkpt>
      <trkpt lat="44.04337" lon="7.4306">
        <ele>2366.391</ele>
        <time>2020-06-26T08:58:58Z</time>
      </trkpt>
      <trkpt lat="44.04344" lon="7.43053">
        <ele>2368.458</ele>
        <time>2020-06-26T08:59:14Z</time>
      </trkpt>
      <trkpt lat="44.04361" lon="7.43063">
        <ele>2368.149</ele>
        <time>2020-06-26T08:59:30Z</time>
      </trkpt>
      <trkpt lat="44.04373" lon="7.43054">
        <ele>2369.762</ele>
        <time>2020-06-26T08:59:46Z</time>
      </trkpt>
      <trkpt lat="44.04379" lon="7.43052">
        <ele>2376.559</ele>
        <time>2020-06-26T09:00:01Z</time>
      </trkpt>
      <trkpt lat="44.04387" lon="7.43064">
        <ele>2377.07</ele>
        <time>2020-06-26T09:00:17Z</time>
      </trkpt>
      <trkpt lat="44.04394" lon="7.43068">
        <ele>2376.376</ele>
        <time>2020-06-26T09:00:33Z</time>
      </trkpt>
      <trkpt lat="44.04406" lon="7.43072">
        <ele>2373.978</ele>
        <time>2020-06-26T09:00:48Z</time>
      </trkpt>
      <trkpt lat="44.04416" lon="7.43074">
        <ele>2374.071</ele>
        <time>2020-06-26T09:01:03Z</time>
      </trkpt>
      <trkpt lat="44.04426" lon="7.43085">
        <ele>2374.788</ele>
        <time>2020-06-26T09:01:19Z</time>
      </trkpt>
      <trkpt lat="44.04435" lon="7.43078">
        <ele>2375.894</ele>
        <time>2020-06-26T09:01:34Z</time>
      </trkpt>
      <trkpt lat="44.04443" lon="7.43073">
        <ele>2380.229</ele>
        <time>2020-06-26T09:01:50Z</time>
      </trkpt>
      <trkpt lat="44.04446" lon="7.43072">
        <ele>2386.897</ele>
        <time>2020-06-26T09:02:05Z</time>
      </trkpt>
      <trkpt lat="44.04452" lon="7.43077">
        <ele>2389.046</ele>
        <time>2020-06-26T09:02:21Z</time>
      </trkpt>
      <trkpt lat="44.04459" lon="7.43076">
        <ele>2390.887</ele>
        <time>2020-06-26T09:02:37Z</time>
      </trkpt>
      <trkpt lat="44.04466" lon="7.43077">
        <ele>2393.643</ele>
        <time>2020-06-26T09:02:52Z</time>
      </trkpt>
      <trkpt lat="44.04476" lon="7.4308">
        <ele>2392.41</ele>
        <time>2020-06-26T09:03:08Z</time>
      </trkpt>
      <trkpt lat="44.04481" lon="7.43081">
        <ele>2393.964</ele>
        <time>2020-06-26T09:03:24Z</time>
      </trkpt>
      <trkpt lat="44.04488" lon="7.43085">
        <ele>2393.757</ele>
        <time>2020-06-26T09:03:39Z</time>
      </trkpt>
      <trkpt lat="44.04492" lon="7.43085">
        <ele>2395.142</ele>
        <time>2020-06-26T09:03:55Z</time>
      </trkpt>
      <trkpt lat="44.04497" lon="7.43089">
        <ele>2396.931</ele>
        <time>2020-06-26T09:04:10Z</time>
      </trkpt>
      <trkpt lat="44.04502" lon="7.43088">
        <ele>2401.703</ele>
        <time>2020-06-26T09:04:25Z</time>
      </trkpt>
      <trkpt lat="44.04504" lon="7.43086">
        <ele>2402.778</ele>
        <time>2020-06-26T09:04:41Z</time>
      </trkpt>
      <trkpt lat="44.04504" lon="7.43086">
        <ele>2402.778</ele>
        <time>2020-06-26T09:04:57Z</time>
      </trkpt>
      <trkpt lat="44.04504" lon="7.43086">
        <ele>2402.778</ele>
        <time>2020-06-26T09:05:13Z</time>
      </trkpt>
      <trkpt lat="44.04504" lon="7.43086">
        <ele>2402.778</ele>
        <time>2020-06-26T09:05:28Z</time>
      </trkpt>
      <trkpt lat="44.04504" lon="7.43086">
        <ele>2402.778</ele>
        <time>2020-06-26T09:05:43Z</time>
      </trkpt>
      <trkpt lat="44.04504" lon="7.43085">
        <ele>2405.869</ele>
        <time>2020-06-26T09:05:59Z</time>
      </trkpt>
      <trkpt lat="44.04514" lon="7.43087">
        <ele>2406.825</ele>
        <time>2020-06-26T09:06:14Z</time>
      </trkpt>
      <trkpt lat="44.04523" lon="7.43091">
        <ele>2405.951</ele>
        <time>2020-06-26T09:06:30Z</time>
      </trkpt>
      <trkpt lat="44.04527" lon="7.43089">
        <ele>2408.938</ele>
        <time>2020-06-26T09:06:46Z</time>
      </trkpt>
      <trkpt lat="44.04533" lon="7.43091">
        <ele>2409.493</ele>
        <time>2020-06-26T09:07:01Z</time>
      </trkpt>
      <trkpt lat="44.04542" lon="7.43093">
        <ele>2408.52</ele>
        <time>2020-06-26T09:07:17Z</time>
      </trkpt>
      <trkpt lat="44.04548" lon="7.43085">
        <ele>2410.505</ele>
        <time>2020-06-26T09:07:33Z</time>
      </trkpt>
      <trkpt lat="44.04554" lon="7.43077">
        <ele>2416.181</ele>
        <time>2020-06-26T09:07:49Z</time>
      </trkpt>
      <trkpt lat="44.04559" lon="7.43067">
        <ele>2417.497</ele>
        <time>2020-06-26T09:08:05Z</time>
      </trkpt>
      <trkpt lat="44.04571" lon="7.43064">
        <ele>2416.767</ele>
        <time>2020-06-26T09:08:21Z</time>
      </trkpt>
      <trkpt lat="44.04583" lon="7.43071">
        <ele>2412.633</ele>
        <time>2020-06-26T09:08:37Z</time>
      </trkpt>
      <trkpt lat="44.04584" lon="7.43064">
        <ele>2416.22</ele>
        <time>2020-06-26T09:08:53Z</time>
      </trkpt>
      <trkpt lat="44.04589" lon="7.43064">
        <ele>2415.784</ele>
        <time>2020-06-26T09:09:08Z</time>
      </trkpt>
      <trkpt lat="44.04598" lon="7.43079">
        <ele>2413.32</ele>
        <time>2020-06-26T09:09:24Z</time>
      </trkpt>
      <trkpt lat="44.046" lon="7.43073">
        <ele>2419.788</ele>
        <time>2020-06-26T09:09:39Z</time>
      </trkpt>
      <trkpt lat="44.0461" lon="7.43072">
        <ele>2423.919</ele>
        <time>2020-06-26T09:09:54Z</time>
      </trkpt>
      <trkpt lat="44.04619" lon="7.43072">
        <ele>2426.182</ele>
        <time>2020-06-26T09:10:10Z</time>
      </trkpt>
      <trkpt lat="44.04626" lon="7.43068">
        <ele>2426.415</ele>
        <time>2020-06-26T09:10:26Z</time>
      </trkpt>
      <trkpt lat="44.04632" lon="7.43071">
        <ele>2423.047</ele>
        <time>2020-06-26T09:10:42Z</time>
      </trkpt>
      <trkpt lat="44.04638" lon="7.43073">
        <ele>2427.055</ele>
        <time>2020-06-26T09:10:58Z</time>
      </trkpt>
      <trkpt lat="44.0464" lon="7.43077">
        <ele>2429.665</ele>
        <time>2020-06-26T09:11:14Z</time>
      </trkpt>
      <trkpt lat="44.04648" lon="7.43091">
        <ele>2427.919</ele>
        <time>2020-06-26T09:11:30Z</time>
      </trkpt>
      <trkpt lat="44.0465" lon="7.43086">
        <ele>2428.577</ele>
        <time>2020-06-26T09:11:45Z</time>
      </trkpt>
      <trkpt lat="44.04651" lon="7.43078">
        <ele>2435.457</ele>
        <time>2020-06-26T09:12:00Z</time>
      </trkpt>
      <trkpt lat="44.04658" lon="7.43085">
        <ele>2443.576</ele>
        <time>2020-06-26T09:12:16Z</time>
      </trkpt>
      <trkpt lat="44.04661" lon="7.43075">
        <ele>2446.084</ele>
        <time>2020-06-26T09:12:31Z</time>
      </trkpt>
      <trkpt lat="44.04666" lon="7.43071">
        <ele>2448.299</ele>
        <time>2020-06-26T09:12:47Z</time>
      </trkpt>
      <trkpt lat="44.04676" lon="7.43063">
        <ele>2446.111</ele>
        <time>2020-06-26T09:13:02Z</time>
      </trkpt>
      <trkpt lat="44.04678" lon="7.43059">
        <ele>2447.98</ele>
        <time>2020-06-26T09:13:18Z</time>
      </trkpt>
      <trkpt lat="44.04684" lon="7.43059">
        <ele>2449.179</ele>
        <time>2020-06-26T09:13:34Z</time>
      </trkpt>
      <trkpt lat="44.0469" lon="7.43053">
        <ele>2454.164</ele>
        <time>2020-06-26T09:13:49Z</time>
      </trkpt>
      <trkpt lat="44.04695" lon="7.43051">
        <ele>2456.031</ele>
        <time>2020-06-26T09:14:05Z</time>
      </trkpt>
      <trkpt lat="44.04704" lon="7.43059">
        <ele>2455.07</ele>
        <time>2020-06-26T09:14:20Z</time>
      </trkpt>
      <trkpt lat="44.0471" lon="7.43064">
        <ele>2456.317</ele>
        <time>2020-06-26T09:14:36Z</time>
      </trkpt>
      <trkpt lat="44.04711" lon="7.43052">
        <ele>2459.255</ele>
        <time>2020-06-26T09:14:51Z</time>
      </trkpt>
      <trkpt lat="44.0471" lon="7.43052">
        <ele>2462.433</ele>
        <time>2020-06-26T09:15:07Z</time>
      </trkpt>
      <trkpt lat="44.04715" lon="7.43055">
        <ele>2462.077</ele>
        <time>2020-06-26T09:15:23Z</time>
      </trkpt>
      <trkpt lat="44.04722" lon="7.43059">
        <ele>2461.263</ele>
        <time>2020-06-26T09:15:38Z</time>
      </trkpt>
      <trkpt lat="44.04724" lon="7.43061">
        <ele>2461.265</ele>
        <time>2020-06-26T09:15:54Z</time>
      </trkpt>
      <trkpt lat="44.04721" lon="7.43066">
        <ele>2463.317</ele>
        <time>2020-06-26T09:16:09Z</time>
      </trkpt>
      <trkpt lat="44.04717" lon="7.43075">
        <ele>2469.519</ele>
        <time>2020-06-26T09:16:25Z</time>
      </trkpt>
      <trkpt lat="44.04719" lon="7.43076">
        <ele>2472.963</ele>
        <time>2020-06-26T09:16:41Z</time>
      </trkpt>
      <trkpt lat="44.04725" lon="7.43077">
        <ele>2473.039</ele>
        <time>2020-06-26T09:16:57Z</time>
      </trkpt>
      <trkpt lat="44.04729" lon="7.43079">
        <ele>2475.541</ele>
        <time>2020-06-26T09:17:13Z</time>
      </trkpt>
      <trkpt lat="44.04732" lon="7.43078">
        <ele>2478.711</ele>
        <time>2020-06-26T09:17:29Z</time>
      </trkpt>
      <trkpt lat="44.04736" lon="7.43076">
        <ele>2478.584</ele>
        <time>2020-06-26T09:17:45Z</time>
      </trkpt>
      <trkpt lat="44.04744" lon="7.43074">
        <ele>2479.463</ele>
        <time>2020-06-26T09:18:00Z</time>
      </trkpt>
      <trkpt lat="44.04744" lon="7.43074">
        <ele>2478.996</ele>
        <time>2020-06-26T09:18:16Z</time>
      </trkpt>
      <trkpt lat="44.04742" lon="7.43072">
        <ele>2480.188</ele>
        <time>2020-06-26T09:18:31Z</time>
      </trkpt>
      <trkpt lat="44.04744" lon="7.43071">
        <ele>2483.133</ele>
        <time>2020-06-26T09:18:46Z</time>
      </trkpt>
      <trkpt lat="44.04755" lon="7.43075">
        <ele>2469.465</ele>
        <time>2020-06-26T09:19:01Z</time>
      </trkpt>
      <trkpt lat="44.04754" lon="7.43077">
        <ele>2470.316</ele>
        <time>2020-06-26T09:19:16Z</time>
      </trkpt>
      <trkpt lat="44.04754" lon="7.43077">
        <ele>2470.316</ele>
        <time>2020-06-26T09:19:32Z</time>
      </trkpt>
      <trkpt lat="44.04754" lon="7.43077">
        <ele>2470.316</ele>
        <time>2020-06-26T09:19:47Z</time>
      </trkpt>
      <trkpt lat="44.04754" lon="7.43077">
        <ele>2470.316</ele>
        <time>2020-06-26T09:20:03Z</time>
      </trkpt>
      <trkpt lat="44.04755" lon="7.43081">
        <ele>2474.071</ele>
        <time>2020-06-26T09:20:19Z</time>
      </trkpt>
      <trkpt lat="44.04755" lon="7.43081">
        <ele>2474.071</ele>
        <time>2020-06-26T09:20:34Z</time>
      </trkpt>
      <trkpt lat="44.04755" lon="7.43081">
        <ele>2474.071</ele>
        <time>2020-06-26T09:20:50Z</time>
      </trkpt>
      <trkpt lat="44.04755" lon="7.43082">
        <ele>2474.184</ele>
        <time>2020-06-26T09:21:06Z</time>
      </trkpt>
      <trkpt lat="44.04755" lon="7.43083">
        <ele>2474.249</ele>
        <time>2020-06-26T09:21:21Z</time>
      </trkpt>
      <trkpt lat="44.04755" lon="7.43083">
        <ele>2474.249</ele>
        <time>2020-06-26T09:21:37Z</time>
      </trkpt>
      <trkpt lat="44.04755" lon="7.43083">
        <ele>2474.249</ele>
        <time>2020-06-26T09:21:53Z</time>
      </trkpt>
      <trkpt lat="44.04755" lon="7.43083">
        <ele>2474.249</ele>
        <time>2020-06-26T09:22:09Z</time>
      </trkpt>
      <trkpt lat="44.04755" lon="7.43083">
        <ele>2474.249</ele>
        <time>2020-06-26T09:22:24Z</time>
      </trkpt>
      <trkpt lat="44.04755" lon="7.43083">
        <ele>2474.249</ele>
        <time>2020-06-26T09:22:40Z</time>
      </trkpt>
      <trkpt lat="44.04755" lon="7.43083">
        <ele>2474.249</ele>
        <time>2020-06-26T09:22:56Z</time>
      </trkpt>
      <trkpt lat="44.04755" lon="7.43083">
        <ele>2474.249</ele>
        <time>2020-06-26T09:23:11Z</time>
      </trkpt>
      <trkpt lat="44.04755" lon="7.43083">
        <ele>2474.249</ele>
        <time>2020-06-26T09:23:26Z</time>
      </trkpt>
      <trkpt lat="44.04755" lon="7.43083">
        <ele>2474.249</ele>
        <time>2020-06-26T09:23:42Z</time>
      </trkpt>
      <trkpt lat="44.04755" lon="7.43083">
        <ele>2474.249</ele>
        <time>2020-06-26T09:23:58Z</time>
      </trkpt>
      <trkpt lat="44.04755" lon="7.43083">
        <ele>2474.249</ele>
        <time>2020-06-26T09:24:13Z</time>
      </trkpt>
      <trkpt lat="44.04755" lon="7.43083">
        <ele>2474.249</ele>
        <time>2020-06-26T09:24:28Z</time>
      </trkpt>
      <trkpt lat="44.04755" lon="7.43083">
        <ele>2474.249</ele>
        <time>2020-06-26T09:24:44Z</time>
      </trkpt>
      <trkpt lat="44.04755" lon="7.43083">
        <ele>2474.249</ele>
        <time>2020-06-26T09:25:00Z</time>
      </trkpt>
      <trkpt lat="44.04755" lon="7.43083">
        <ele>2474.249</ele>
        <time>2020-06-26T09:25:16Z</time>
      </trkpt>
      <trkpt lat="44.04755" lon="7.43083">
        <ele>2474.249</ele>
        <time>2020-06-26T09:25:31Z</time>
      </trkpt>
      <trkpt lat="44.04755" lon="7.43084">
        <ele>2474.971</ele>
        <time>2020-06-26T09:25:47Z</time>
      </trkpt>
      <trkpt lat="44.04755" lon="7.4308">
        <ele>2475.945</ele>
        <time>2020-06-26T09:26:03Z</time>
      </trkpt>
      <trkpt lat="44.04755" lon="7.43081">
        <ele>2474.936</ele>
        <time>2020-06-26T09:26:18Z</time>
      </trkpt>
      <trkpt lat="44.04754" lon="7.43081">
        <ele>2476.017</ele>
        <time>2020-06-26T09:26:34Z</time>
      </trkpt>
      <trkpt lat="44.04757" lon="7.43082">
        <ele>2477.472</ele>
        <time>2020-06-26T09:26:50Z</time>
      </trkpt>
      <trkpt lat="44.04757" lon="7.43082">
        <ele>2477.472</ele>
        <time>2020-06-26T09:27:06Z</time>
      </trkpt>
      <trkpt lat="44.04757" lon="7.43082">
        <ele>2477.472</ele>
        <time>2020-06-26T09:27:21Z</time>
      </trkpt>
      <trkpt lat="44.04757" lon="7.43082">
        <ele>2477.472</ele>
        <time>2020-06-26T09:27:37Z</time>
      </trkpt>
      <trkpt lat="44.04757" lon="7.43082">
        <ele>2477.472</ele>
        <time>2020-06-26T09:27:53Z</time>
      </trkpt>
      <trkpt lat="44.04757" lon="7.43082">
        <ele>2477.472</ele>
        <time>2020-06-26T09:28:09Z</time>
      </trkpt>
      <trkpt lat="44.04757" lon="7.43082">
        <ele>2477.472</ele>
        <time>2020-06-26T09:28:24Z</time>
      </trkpt>
      <trkpt lat="44.04757" lon="7.43082">
        <ele>2477.472</ele>
        <time>2020-06-26T09:28:39Z</time>
      </trkpt>
      <trkpt lat="44.04757" lon="7.43082">
        <ele>2477.472</ele>
        <time>2020-06-26T09:28:55Z</time>
      </trkpt>
      <trkpt lat="44.04757" lon="7.43082">
        <ele>2477.472</ele>
        <time>2020-06-26T09:29:11Z</time>
      </trkpt>
      <trkpt lat="44.04757" lon="7.43082">
        <ele>2477.472</ele>
        <time>2020-06-26T09:29:26Z</time>
      </trkpt>
      <trkpt lat="44.04757" lon="7.43082">
        <ele>2477.472</ele>
        <time>2020-06-26T09:29:42Z</time>
      </trkpt>
      <trkpt lat="44.04757" lon="7.43082">
        <ele>2477.472</ele>
        <time>2020-06-26T09:29:57Z</time>
      </trkpt>
      <trkpt lat="44.04757" lon="7.43082">
        <ele>2477.472</ele>
        <time>2020-06-26T09:30:13Z</time>
      </trkpt>
      <trkpt lat="44.04757" lon="7.43082">
        <ele>2477.472</ele>
        <time>2020-06-26T09:30:28Z</time>
      </trkpt>
      <trkpt lat="44.04757" lon="7.43082">
        <ele>2477.472</ele>
        <time>2020-06-26T09:30:43Z</time>
      </trkpt>
      <trkpt lat="44.04757" lon="7.43082">
        <ele>2477.472</ele>
        <time>2020-06-26T09:30:59Z</time>
      </trkpt>
      <trkpt lat="44.04757" lon="7.43082">
        <ele>2477.472</ele>
        <time>2020-06-26T09:31:15Z</time>
      </trkpt>
      <trkpt lat="44.04757" lon="7.43082">
        <ele>2477.472</ele>
        <time>2020-06-26T09:31:30Z</time>
      </trkpt>
      <trkpt lat="44.04757" lon="7.43082">
        <ele>2477.472</ele>
        <time>2020-06-26T09:31:45Z</time>
      </trkpt>
      <trkpt lat="44.04757" lon="7.43082">
        <ele>2477.472</ele>
        <time>2020-06-26T09:32:01Z</time>
      </trkpt>
      <trkpt lat="44.04757" lon="7.43082">
        <ele>2477.472</ele>
        <time>2020-06-26T09:32:16Z</time>
      </trkpt>
      <trkpt lat="44.04758" lon="7.43079">
        <ele>2477.183</ele>
        <time>2020-06-26T09:32:32Z</time>
      </trkpt>
      <trkpt lat="44.04759" lon="7.4308">
        <ele>2476.654</ele>
        <time>2020-06-26T09:32:48Z</time>
      </trkpt>
      <trkpt lat="44.04759" lon="7.4308">
        <ele>2476.654</ele>
        <time>2020-06-26T09:33:03Z</time>
      </trkpt>
      <trkpt lat="44.04759" lon="7.4308">
        <ele>2476.654</ele>
        <time>2020-06-26T09:33:19Z</time>
      </trkpt>
      <trkpt lat="44.04759" lon="7.4308">
        <ele>2476.654</ele>
        <time>2020-06-26T09:33:35Z</time>
      </trkpt>
      <trkpt lat="44.04759" lon="7.4308">
        <ele>2476.654</ele>
        <time>2020-06-26T09:33:50Z</time>
      </trkpt>
      <trkpt lat="44.04759" lon="7.4308">
        <ele>2476.654</ele>
        <time>2020-06-26T09:34:05Z</time>
      </trkpt>
      <trkpt lat="44.04759" lon="7.4308">
        <ele>2476.654</ele>
        <time>2020-06-26T09:34:21Z</time>
      </trkpt>
      <trkpt lat="44.04759" lon="7.4308">
        <ele>2476.654</ele>
        <time>2020-06-26T09:34:37Z</time>
      </trkpt>
      <trkpt lat="44.04759" lon="7.4308">
        <ele>2476.654</ele>
        <time>2020-06-26T09:34:53Z</time>
      </trkpt>
      <trkpt lat="44.04759" lon="7.4308">
        <ele>2476.654</ele>
        <time>2020-06-26T09:35:08Z</time>
      </trkpt>
      <trkpt lat="44.04759" lon="7.4308">
        <ele>2476.654</ele>
        <time>2020-06-26T09:35:24Z</time>
      </trkpt>
      <trkpt lat="44.04759" lon="7.4308">
        <ele>2476.654</ele>
        <time>2020-06-26T09:35:40Z</time>
      </trkpt>
      <trkpt lat="44.04759" lon="7.4308">
        <ele>2476.654</ele>
        <time>2020-06-26T09:35:55Z</time>
      </trkpt>
      <trkpt lat="44.04759" lon="7.4308">
        <ele>2476.654</ele>
        <time>2020-06-26T09:36:11Z</time>
      </trkpt>
      <trkpt lat="44.04759" lon="7.4308">
        <ele>2476.654</ele>
        <time>2020-06-26T09:36:26Z</time>
      </trkpt>
      <trkpt lat="44.04759" lon="7.4308">
        <ele>2476.654</ele>
        <time>2020-06-26T09:36:42Z</time>
      </trkpt>
      <trkpt lat="44.04759" lon="7.4308">
        <ele>2476.654</ele>
        <time>2020-06-26T09:36:57Z</time>
      </trkpt>
      <trkpt lat="44.04759" lon="7.4308">
        <ele>2476.654</ele>
        <time>2020-06-26T09:37:13Z</time>
      </trkpt>
      <trkpt lat="44.04759" lon="7.4308">
        <ele>2476.654</ele>
        <time>2020-06-26T09:37:29Z</time>
      </trkpt>
      <trkpt lat="44.04759" lon="7.4308">
        <ele>2476.654</ele>
        <time>2020-06-26T09:37:45Z</time>
      </trkpt>
      <trkpt lat="44.04759" lon="7.4308">
        <ele>2476.654</ele>
        <time>2020-06-26T09:38:00Z</time>
      </trkpt>
      <trkpt lat="44.04759" lon="7.4308">
        <ele>2476.654</ele>
        <time>2020-06-26T09:38:16Z</time>
      </trkpt>
      <trkpt lat="44.04759" lon="7.4308">
        <ele>2476.654</ele>
        <time>2020-06-26T09:38:32Z</time>
      </trkpt>
      <trkpt lat="44.04759" lon="7.4308">
        <ele>2476.654</ele>
        <time>2020-06-26T09:38:47Z</time>
      </trkpt>
      <trkpt lat="44.04759" lon="7.4308">
        <ele>2476.654</ele>
        <time>2020-06-26T09:39:02Z</time>
      </trkpt>
      <trkpt lat="44.04759" lon="7.4308">
        <ele>2476.654</ele>
        <time>2020-06-26T09:39:18Z</time>
      </trkpt>
      <trkpt lat="44.04759" lon="7.4308">
        <ele>2476.654</ele>
        <time>2020-06-26T09:39:34Z</time>
      </trkpt>
      <trkpt lat="44.04759" lon="7.4308">
        <ele>2476.654</ele>
        <time>2020-06-26T09:39:49Z</time>
      </trkpt>
      <trkpt lat="44.04759" lon="7.4308">
        <ele>2476.654</ele>
        <time>2020-06-26T09:40:04Z</time>
      </trkpt>
      <trkpt lat="44.04759" lon="7.4308">
        <ele>2476.654</ele>
        <time>2020-06-26T09:40:20Z</time>
      </trkpt>
      <trkpt lat="44.04759" lon="7.4308">
        <ele>2476.654</ele>
        <time>2020-06-26T09:40:35Z</time>
      </trkpt>
      <trkpt lat="44.04759" lon="7.4308">
        <ele>2476.654</ele>
        <time>2020-06-26T09:40:51Z</time>
      </trkpt>
      <trkpt lat="44.04759" lon="7.4308">
        <ele>2476.654</ele>
        <time>2020-06-26T09:41:07Z</time>
      </trkpt>
      <trkpt lat="44.04759" lon="7.4308">
        <ele>2476.654</ele>
        <time>2020-06-26T09:41:22Z</time>
      </trkpt>
      <trkpt lat="44.04759" lon="7.4308">
        <ele>2476.654</ele>
        <time>2020-06-26T09:41:38Z</time>
      </trkpt>
      <trkpt lat="44.04759" lon="7.4308">
        <ele>2476.654</ele>
        <time>2020-06-26T09:41:54Z</time>
      </trkpt>
      <trkpt lat="44.04759" lon="7.4308">
        <ele>2476.654</ele>
        <time>2020-06-26T09:42:09Z</time>
      </trkpt>
      <trkpt lat="44.04759" lon="7.4308">
        <ele>2476.654</ele>
        <time>2020-06-26T09:42:25Z</time>
      </trkpt>
      <trkpt lat="44.04759" lon="7.4308">
        <ele>2476.654</ele>
        <time>2020-06-26T09:42:40Z</time>
      </trkpt>
      <trkpt lat="44.04759" lon="7.4308">
        <ele>2476.654</ele>
        <time>2020-06-26T09:42:56Z</time>
      </trkpt>
      <trkpt lat="44.04759" lon="7.4308">
        <ele>2476.654</ele>
        <time>2020-06-26T09:43:11Z</time>
      </trkpt>
      <trkpt lat="44.04759" lon="7.4308">
        <ele>2476.654</ele>
        <time>2020-06-26T09:43:27Z</time>
      </trkpt>
      <trkpt lat="44.04759" lon="7.4308">
        <ele>2476.654</ele>
        <time>2020-06-26T09:43:43Z</time>
      </trkpt>
      <trkpt lat="44.04759" lon="7.4308">
        <ele>2476.654</ele>
        <time>2020-06-26T09:43:58Z</time>
      </trkpt>
      <trkpt lat="44.04759" lon="7.4308">
        <ele>2476.654</ele>
        <time>2020-06-26T09:44:14Z</time>
      </trkpt>
      <trkpt lat="44.04759" lon="7.4308">
        <ele>2476.654</ele>
        <time>2020-06-26T09:44:29Z</time>
      </trkpt>
      <trkpt lat="44.04759" lon="7.4308">
        <ele>2476.654</ele>
        <time>2020-06-26T09:44:45Z</time>
      </trkpt>
      <trkpt lat="44.04759" lon="7.4308">
        <ele>2476.654</ele>
        <time>2020-06-26T09:45:01Z</time>
      </trkpt>
      <trkpt lat="44.04759" lon="7.4308">
        <ele>2476.654</ele>
        <time>2020-06-26T09:45:16Z</time>
      </trkpt>
      <trkpt lat="44.04759" lon="7.4308">
        <ele>2476.654</ele>
        <time>2020-06-26T09:45:31Z</time>
      </trkpt>
      <trkpt lat="44.04759" lon="7.4308">
        <ele>2476.654</ele>
        <time>2020-06-26T09:45:46Z</time>
      </trkpt>
      <trkpt lat="44.04759" lon="7.4308">
        <ele>2476.654</ele>
        <time>2020-06-26T09:46:02Z</time>
      </trkpt>
      <trkpt lat="44.04759" lon="7.4308">
        <ele>2476.654</ele>
        <time>2020-06-26T09:46:17Z</time>
      </trkpt>
      <trkpt lat="44.04759" lon="7.4308">
        <ele>2476.654</ele>
        <time>2020-06-26T09:46:32Z</time>
      </trkpt>
      <trkpt lat="44.04759" lon="7.4308">
        <ele>2476.654</ele>
        <time>2020-06-26T09:46:48Z</time>
      </trkpt>
      <trkpt lat="44.04759" lon="7.4308">
        <ele>2476.654</ele>
        <time>2020-06-26T09:47:04Z</time>
      </trkpt>
      <trkpt lat="44.04759" lon="7.4308">
        <ele>2476.654</ele>
        <time>2020-06-26T09:47:20Z</time>
      </trkpt>
      <trkpt lat="44.04756" lon="7.43083">
        <ele>2478.337</ele>
        <time>2020-06-26T09:47:35Z</time>
      </trkpt>
      <trkpt lat="44.04756" lon="7.43084">
        <ele>2478.471</ele>
        <time>2020-06-26T09:47:50Z</time>
      </trkpt>
      <trkpt lat="44.04756" lon="7.43084">
        <ele>2478.471</ele>
        <time>2020-06-26T09:48:06Z</time>
      </trkpt>
      <trkpt lat="44.04756" lon="7.43084">
        <ele>2478.471</ele>
        <time>2020-06-26T09:48:22Z</time>
      </trkpt>
      <trkpt lat="44.04756" lon="7.43084">
        <ele>2478.471</ele>
        <time>2020-06-26T09:48:38Z</time>
      </trkpt>
      <trkpt lat="44.04756" lon="7.43084">
        <ele>2478.471</ele>
        <time>2020-06-26T09:48:53Z</time>
      </trkpt>
      <trkpt lat="44.04756" lon="7.43084">
        <ele>2478.471</ele>
        <time>2020-06-26T09:49:09Z</time>
      </trkpt>
      <trkpt lat="44.04756" lon="7.43084">
        <ele>2478.471</ele>
        <time>2020-06-26T09:49:24Z</time>
      </trkpt>
      <trkpt lat="44.04756" lon="7.43084">
        <ele>2478.471</ele>
        <time>2020-06-26T09:49:40Z</time>
      </trkpt>
      <trkpt lat="44.04756" lon="7.43084">
        <ele>2478.471</ele>
        <time>2020-06-26T09:49:56Z</time>
      </trkpt>
      <trkpt lat="44.04756" lon="7.43084">
        <ele>2478.471</ele>
        <time>2020-06-26T09:50:12Z</time>
      </trkpt>
      <trkpt lat="44.04756" lon="7.43084">
        <ele>2478.471</ele>
        <time>2020-06-26T09:50:27Z</time>
      </trkpt>
      <trkpt lat="44.04757" lon="7.43079">
        <ele>2478.092</ele>
        <time>2020-06-26T09:50:43Z</time>
      </trkpt>
      <trkpt lat="44.04757" lon="7.43079">
        <ele>2478.092</ele>
        <time>2020-06-26T09:50:59Z</time>
      </trkpt>
      <trkpt lat="44.04757" lon="7.43079">
        <ele>2478.092</ele>
        <time>2020-06-26T09:51:15Z</time>
      </trkpt>
      <trkpt lat="44.04757" lon="7.43079">
        <ele>2478.092</ele>
        <time>2020-06-26T09:51:30Z</time>
      </trkpt>
      <trkpt lat="44.04757" lon="7.43079">
        <ele>2478.092</ele>
        <time>2020-06-26T09:51:46Z</time>
      </trkpt>
      <trkpt lat="44.04757" lon="7.43079">
        <ele>2478.092</ele>
        <time>2020-06-26T09:52:02Z</time>
      </trkpt>
      <trkpt lat="44.04765" lon="7.43065">
        <ele>2485.293</ele>
        <time>2020-06-26T09:52:18Z</time>
      </trkpt>
      <trkpt lat="44.04772" lon="7.43053">
        <ele>2485.649</ele>
        <time>2020-06-26T09:52:33Z</time>
      </trkpt>
      <trkpt lat="44.04778" lon="7.43045">
        <ele>2484.623</ele>
        <time>2020-06-26T09:52:49Z</time>
      </trkpt>
      <trkpt lat="44.04786" lon="7.43038">
        <ele>2485.988</ele>
        <time>2020-06-26T09:53:05Z</time>
      </trkpt>
      <trkpt lat="44.04803" lon="7.43027">
        <ele>2485.35</ele>
        <time>2020-06-26T09:53:21Z</time>
      </trkpt>
      <trkpt lat="44.04817" lon="7.43038">
        <ele>2479.005</ele>
        <time>2020-06-26T09:53:36Z</time>
      </trkpt>
      <trkpt lat="44.04828" lon="7.43049">
        <ele>2475.209</ele>
        <time>2020-06-26T09:53:52Z</time>
      </trkpt>
      <trkpt lat="44.04836" lon="7.43053">
        <ele>2472.04</ele>
        <time>2020-06-26T09:54:07Z</time>
      </trkpt>
      <trkpt lat="44.04848" lon="7.43068">
        <ele>2467.131</ele>
        <time>2020-06-26T09:54:22Z</time>
      </trkpt>
      <trkpt lat="44.0485" lon="7.4307">
        <ele>2466.229</ele>
        <time>2020-06-26T09:54:37Z</time>
      </trkpt>
      <trkpt lat="44.04849" lon="7.43069">
        <ele>2465.883</ele>
        <time>2020-06-26T09:54:53Z</time>
      </trkpt>
      <trkpt lat="44.04846" lon="7.4307">
        <ele>2465.483</ele>
        <time>2020-06-26T09:55:08Z</time>
      </trkpt>
      <trkpt lat="44.04846" lon="7.4307">
        <ele>2465.483</ele>
        <time>2020-06-26T09:55:24Z</time>
      </trkpt>
      <trkpt lat="44.04846" lon="7.4307">
        <ele>2465.483</ele>
        <time>2020-06-26T09:55:39Z</time>
      </trkpt>
      <trkpt lat="44.04846" lon="7.4307">
        <ele>2465.483</ele>
        <time>2020-06-26T09:55:54Z</time>
      </trkpt>
      <trkpt lat="44.04859" lon="7.43062">
        <ele>2466.493</ele>
        <time>2020-06-26T09:56:10Z</time>
      </trkpt>
      <trkpt lat="44.04876" lon="7.43065">
        <ele>2467.653</ele>
        <time>2020-06-26T09:56:26Z</time>
      </trkpt>
      <trkpt lat="44.04897" lon="7.43061">
        <ele>2464.465</ele>
        <time>2020-06-26T09:56:42Z</time>
      </trkpt>
      <trkpt lat="44.04908" lon="7.43063">
        <ele>2463.04</ele>
        <time>2020-06-26T09:56:57Z</time>
      </trkpt>
      <trkpt lat="44.0492" lon="7.43058">
        <ele>2458.143</ele>
        <time>2020-06-26T09:57:13Z</time>
      </trkpt>
      <trkpt lat="44.04919" lon="7.43052">
        <ele>2458.753</ele>
        <time>2020-06-26T09:57:29Z</time>
      </trkpt>
      <trkpt lat="44.04921" lon="7.43059">
        <ele>2460.975</ele>
        <time>2020-06-26T09:57:45Z</time>
      </trkpt>
      <trkpt lat="44.04931" lon="7.43068">
        <ele>2461.716</ele>
        <time>2020-06-26T09:58:01Z</time>
      </trkpt>
      <trkpt lat="44.04926" lon="7.4307">
        <ele>2459.769</ele>
        <time>2020-06-26T09:58:17Z</time>
      </trkpt>
      <trkpt lat="44.04926" lon="7.43074">
        <ele>2459.401</ele>
        <time>2020-06-26T09:58:33Z</time>
      </trkpt>
      <trkpt lat="44.04932" lon="7.431">
        <ele>2457.16</ele>
        <time>2020-06-26T09:58:49Z</time>
      </trkpt>
      <trkpt lat="44.04934" lon="7.43115">
        <ele>2453.366</ele>
        <time>2020-06-26T09:59:04Z</time>
      </trkpt>
      <trkpt lat="44.04937" lon="7.43136">
        <ele>2448.429</ele>
        <time>2020-06-26T09:59:19Z</time>
      </trkpt>
      <trkpt lat="44.0493" lon="7.4315">
        <ele>2443.239</ele>
        <time>2020-06-26T09:59:35Z</time>
      </trkpt>
      <trkpt lat="44.04928" lon="7.43169">
        <ele>2440.513</ele>
        <time>2020-06-26T09:59:51Z</time>
      </trkpt>
      <trkpt lat="44.04933" lon="7.43181">
        <ele>2437.599</ele>
        <time>2020-06-26T10:00:07Z</time>
      </trkpt>
      <trkpt lat="44.0494" lon="7.432">
        <ele>2438.662</ele>
        <time>2020-06-26T10:00:23Z</time>
      </trkpt>
      <trkpt lat="44.04946" lon="7.43222">
        <ele>2436.117</ele>
        <time>2020-06-26T10:00:38Z</time>
      </trkpt>
      <trkpt lat="44.0495" lon="7.43241">
        <ele>2432.476</ele>
        <time>2020-06-26T10:00:53Z</time>
      </trkpt>
      <trkpt lat="44.04951" lon="7.43256">
        <ele>2428.952</ele>
        <time>2020-06-26T10:01:09Z</time>
      </trkpt>
      <trkpt lat="44.04951" lon="7.43256">
        <ele>2428.49</ele>
        <time>2020-06-26T10:01:24Z</time>
      </trkpt>
      <trkpt lat="44.04952" lon="7.43256">
        <ele>2427.275</ele>
        <time>2020-06-26T10:01:40Z</time>
      </trkpt>
      <trkpt lat="44.04949" lon="7.43258">
        <ele>2424.732</ele>
        <time>2020-06-26T10:01:56Z</time>
      </trkpt>
      <trkpt lat="44.04956" lon="7.43266">
        <ele>2424.813</ele>
        <time>2020-06-26T10:02:11Z</time>
      </trkpt>
      <trkpt lat="44.04971" lon="7.43287">
        <ele>2425.949</ele>
        <time>2020-06-26T10:02:27Z</time>
      </trkpt>
      <trkpt lat="44.04975" lon="7.43303">
        <ele>2417.896</ele>
        <time>2020-06-26T10:02:43Z</time>
      </trkpt>
      <trkpt lat="44.04975" lon="7.43319">
        <ele>2413.385</ele>
        <time>2020-06-26T10:02:58Z</time>
      </trkpt>
      <trkpt lat="44.0498" lon="7.43325">
        <ele>2412.011</ele>
        <time>2020-06-26T10:03:14Z</time>
      </trkpt>
      <trkpt lat="44.04994" lon="7.43325">
        <ele>2405.849</ele>
        <time>2020-06-26T10:03:30Z</time>
      </trkpt>
      <trkpt lat="44.05003" lon="7.43324">
        <ele>2400.1</ele>
        <time>2020-06-26T10:03:45Z</time>
      </trkpt>
      <trkpt lat="44.05019" lon="7.43332">
        <ele>2396.192</ele>
        <time>2020-06-26T10:04:01Z</time>
      </trkpt>
      <trkpt lat="44.05016" lon="7.43348">
        <ele>2397.685</ele>
        <time>2020-06-26T10:04:17Z</time>
      </trkpt>
      <trkpt lat="44.05015" lon="7.43356">
        <ele>2397.376</ele>
        <time>2020-06-26T10:04:33Z</time>
      </trkpt>
      <trkpt lat="44.05008" lon="7.4337">
        <ele>2401.792</ele>
        <time>2020-06-26T10:04:49Z</time>
      </trkpt>
      <trkpt lat="44.05008" lon="7.43387">
        <ele>2404.087</ele>
        <time>2020-06-26T10:05:05Z</time>
      </trkpt>
      <trkpt lat="44.05014" lon="7.43395">
        <ele>2403.362</ele>
        <time>2020-06-26T10:05:21Z</time>
      </trkpt>
      <trkpt lat="44.05019" lon="7.4342">
        <ele>2402.275</ele>
        <time>2020-06-26T10:05:37Z</time>
      </trkpt>
      <trkpt lat="44.0502" lon="7.43431">
        <ele>2398.875</ele>
        <time>2020-06-26T10:05:52Z</time>
      </trkpt>
      <trkpt lat="44.05017" lon="7.43446">
        <ele>2403.069</ele>
        <time>2020-06-26T10:06:08Z</time>
      </trkpt>
      <trkpt lat="44.05021" lon="7.43462">
        <ele>2397.723</ele>
        <time>2020-06-26T10:06:23Z</time>
      </trkpt>
      <trkpt lat="44.05029" lon="7.43478">
        <ele>2394.503</ele>
        <time>2020-06-26T10:06:39Z</time>
      </trkpt>
      <trkpt lat="44.05035" lon="7.43492">
        <ele>2392.052</ele>
        <time>2020-06-26T10:06:55Z</time>
      </trkpt>
      <trkpt lat="44.05032" lon="7.435">
        <ele>2392.73</ele>
        <time>2020-06-26T10:07:10Z</time>
      </trkpt>
      <trkpt lat="44.05035" lon="7.43514">
        <ele>2389.009</ele>
        <time>2020-06-26T10:07:26Z</time>
      </trkpt>
      <trkpt lat="44.05037" lon="7.43527">
        <ele>2388.434</ele>
        <time>2020-06-26T10:07:41Z</time>
      </trkpt>
      <trkpt lat="44.05039" lon="7.43531">
        <ele>2389.943</ele>
        <time>2020-06-26T10:07:57Z</time>
      </trkpt>
      <trkpt lat="44.05037" lon="7.43531">
        <ele>2389.085</ele>
        <time>2020-06-26T10:08:12Z</time>
      </trkpt>
      <trkpt lat="44.05031" lon="7.43532">
        <ele>2390.511</ele>
        <time>2020-06-26T10:08:28Z</time>
      </trkpt>
      <trkpt lat="44.05036" lon="7.43532">
        <ele>2391.69</ele>
        <time>2020-06-26T10:08:43Z</time>
      </trkpt>
      <trkpt lat="44.05044" lon="7.43534">
        <ele>2390.218</ele>
        <time>2020-06-26T10:08:58Z</time>
      </trkpt>
      <trkpt lat="44.05047" lon="7.4354">
        <ele>2391.04</ele>
        <time>2020-06-26T10:09:14Z</time>
      </trkpt>
      <trkpt lat="44.05042" lon="7.43553">
        <ele>2384.827</ele>
        <time>2020-06-26T10:09:30Z</time>
      </trkpt>
      <trkpt lat="44.05049" lon="7.43567">
        <ele>2383.703</ele>
        <time>2020-06-26T10:09:46Z</time>
      </trkpt>
      <trkpt lat="44.0505" lon="7.4357">
        <ele>2379.93</ele>
        <time>2020-06-26T10:10:02Z</time>
      </trkpt>
      <trkpt lat="44.05059" lon="7.43577">
        <ele>2378.194</ele>
        <time>2020-06-26T10:10:17Z</time>
      </trkpt>
      <trkpt lat="44.05068" lon="7.43579">
        <ele>2376.235</ele>
        <time>2020-06-26T10:10:32Z</time>
      </trkpt>
      <trkpt lat="44.05074" lon="7.43589">
        <ele>2376.425</ele>
        <time>2020-06-26T10:10:48Z</time>
      </trkpt>
      <trkpt lat="44.05085" lon="7.43596">
        <ele>2374.814</ele>
        <time>2020-06-26T10:11:03Z</time>
      </trkpt>
      <trkpt lat="44.05089" lon="7.4361">
        <ele>2370.461</ele>
        <time>2020-06-26T10:11:19Z</time>
      </trkpt>
      <trkpt lat="44.05092" lon="7.43612">
        <ele>2367.819</ele>
        <time>2020-06-26T10:11:34Z</time>
      </trkpt>
      <trkpt lat="44.05092" lon="7.43613">
        <ele>2368.383</ele>
        <time>2020-06-26T10:11:50Z</time>
      </trkpt>
      <trkpt lat="44.05091" lon="7.43615">
        <ele>2369.006</ele>
        <time>2020-06-26T10:12:06Z</time>
      </trkpt>
      <trkpt lat="44.05091" lon="7.43615">
        <ele>2369.006</ele>
        <time>2020-06-26T10:12:21Z</time>
      </trkpt>
      <trkpt lat="44.05091" lon="7.43615">
        <ele>2369.006</ele>
        <time>2020-06-26T10:12:36Z</time>
      </trkpt>
      <trkpt lat="44.05091" lon="7.43615">
        <ele>2369.006</ele>
        <time>2020-06-26T10:12:51Z</time>
      </trkpt>
      <trkpt lat="44.05091" lon="7.43615">
        <ele>2369.006</ele>
        <time>2020-06-26T10:13:07Z</time>
      </trkpt>
      <trkpt lat="44.05096" lon="7.43614">
        <ele>2369.093</ele>
        <time>2020-06-26T10:13:23Z</time>
      </trkpt>
      <trkpt lat="44.05095" lon="7.43632">
        <ele>2362.935</ele>
        <time>2020-06-26T10:13:38Z</time>
      </trkpt>
      <trkpt lat="44.05096" lon="7.43642">
        <ele>2356.629</ele>
        <time>2020-06-26T10:13:53Z</time>
      </trkpt>
      <trkpt lat="44.05104" lon="7.43656">
        <ele>2352.444</ele>
        <time>2020-06-26T10:14:09Z</time>
      </trkpt>
      <trkpt lat="44.05106" lon="7.43672">
        <ele>2351.655</ele>
        <time>2020-06-26T10:14:25Z</time>
      </trkpt>
      <trkpt lat="44.05107" lon="7.43688">
        <ele>2352.017</ele>
        <time>2020-06-26T10:14:41Z</time>
      </trkpt>
      <trkpt lat="44.0511" lon="7.43693">
        <ele>2352.422</ele>
        <time>2020-06-26T10:14:57Z</time>
      </trkpt>
      <trkpt lat="44.05114" lon="7.43697">
        <ele>2350.803</ele>
        <time>2020-06-26T10:15:12Z</time>
      </trkpt>
      <trkpt lat="44.05121" lon="7.43712">
        <ele>2342.89</ele>
        <time>2020-06-26T10:15:27Z</time>
      </trkpt>
      <trkpt lat="44.05128" lon="7.43717">
        <ele>2343.828</ele>
        <time>2020-06-26T10:15:43Z</time>
      </trkpt>
      <trkpt lat="44.05125" lon="7.43728">
        <ele>2341.741</ele>
        <time>2020-06-26T10:15:58Z</time>
      </trkpt>
      <trkpt lat="44.05115" lon="7.43742">
        <ele>2340.337</ele>
        <time>2020-06-26T10:16:14Z</time>
      </trkpt>
      <trkpt lat="44.05121" lon="7.43748">
        <ele>2336.992</ele>
        <time>2020-06-26T10:16:30Z</time>
      </trkpt>
      <trkpt lat="44.05135" lon="7.4375">
        <ele>2333.263</ele>
        <time>2020-06-26T10:16:46Z</time>
      </trkpt>
      <trkpt lat="44.05132" lon="7.43754">
        <ele>2333.193</ele>
        <time>2020-06-26T10:17:02Z</time>
      </trkpt>
      <trkpt lat="44.05133" lon="7.43776">
        <ele>2338.043</ele>
        <time>2020-06-26T10:17:17Z</time>
      </trkpt>
      <trkpt lat="44.05133" lon="7.43795">
        <ele>2340.337</ele>
        <time>2020-06-26T10:17:33Z</time>
      </trkpt>
      <trkpt lat="44.05125" lon="7.43812">
        <ele>2338.717</ele>
        <time>2020-06-26T10:17:48Z</time>
      </trkpt>
      <trkpt lat="44.05128" lon="7.43839">
        <ele>2332.481</ele>
        <time>2020-06-26T10:18:04Z</time>
      </trkpt>
      <trkpt lat="44.05126" lon="7.43853">
        <ele>2330.206</ele>
        <time>2020-06-26T10:18:19Z</time>
      </trkpt>
      <trkpt lat="44.05131" lon="7.43867">
        <ele>2332.604</ele>
        <time>2020-06-26T10:18:35Z</time>
      </trkpt>
      <trkpt lat="44.05127" lon="7.43887">
        <ele>2331.573</ele>
        <time>2020-06-26T10:18:50Z</time>
      </trkpt>
      <trkpt lat="44.05121" lon="7.43909">
        <ele>2334.418</ele>
        <time>2020-06-26T10:19:05Z</time>
      </trkpt>
      <trkpt lat="44.05119" lon="7.43916">
        <ele>2335.256</ele>
        <time>2020-06-26T10:19:21Z</time>
      </trkpt>
      <trkpt lat="44.05121" lon="7.4393">
        <ele>2331.889</ele>
        <time>2020-06-26T10:19:37Z</time>
      </trkpt>
      <trkpt lat="44.05112" lon="7.43956">
        <ele>2332.13</ele>
        <time>2020-06-26T10:19:53Z</time>
      </trkpt>
      <trkpt lat="44.05115" lon="7.43961">
        <ele>2335.476</ele>
        <time>2020-06-26T10:20:08Z</time>
      </trkpt>
      <trkpt lat="44.05125" lon="7.43968">
        <ele>2345.097</ele>
        <time>2020-06-26T10:20:24Z</time>
      </trkpt>
      <trkpt lat="44.0513" lon="7.43986">
        <ele>2342.431</ele>
        <time>2020-06-26T10:20:40Z</time>
      </trkpt>
      <trkpt lat="44.05141" lon="7.43995">
        <ele>2341.346</ele>
        <time>2020-06-26T10:20:56Z</time>
      </trkpt>
      <trkpt lat="44.05139" lon="7.44013">
        <ele>2340.589</ele>
        <time>2020-06-26T10:21:11Z</time>
      </trkpt>
      <trkpt lat="44.05141" lon="7.4402">
        <ele>2341.879</ele>
        <time>2020-06-26T10:21:27Z</time>
      </trkpt>
      <trkpt lat="44.05146" lon="7.44018">
        <ele>2344.713</ele>
        <time>2020-06-26T10:21:42Z</time>
      </trkpt>
      <trkpt lat="44.05144" lon="7.44045">
        <ele>2348.274</ele>
        <time>2020-06-26T10:21:58Z</time>
      </trkpt>
      <trkpt lat="44.05144" lon="7.44051">
        <ele>2349.497</ele>
        <time>2020-06-26T10:22:14Z</time>
      </trkpt>
      <trkpt lat="44.0516" lon="7.44048">
        <ele>2344.138</ele>
        <time>2020-06-26T10:22:30Z</time>
      </trkpt>
      <trkpt lat="44.0516" lon="7.44048">
        <ele>2344.138</ele>
        <time>2020-06-26T10:22:46Z</time>
      </trkpt>
      <trkpt lat="44.0516" lon="7.44048">
        <ele>2344.138</ele>
        <time>2020-06-26T10:23:01Z</time>
      </trkpt>
      <trkpt lat="44.05161" lon="7.4405">
        <ele>2342.663</ele>
        <time>2020-06-26T10:23:17Z</time>
      </trkpt>
      <trkpt lat="44.05165" lon="7.44057">
        <ele>2342.517</ele>
        <time>2020-06-26T10:23:32Z</time>
      </trkpt>
      <trkpt lat="44.05168" lon="7.44081">
        <ele>2340.408</ele>
        <time>2020-06-26T10:23:47Z</time>
      </trkpt>
      <trkpt lat="44.05173" lon="7.44097">
        <ele>2333.63</ele>
        <time>2020-06-26T10:24:03Z</time>
      </trkpt>
      <trkpt lat="44.05171" lon="7.44105">
        <ele>2333.588</ele>
        <time>2020-06-26T10:24:19Z</time>
      </trkpt>
      <trkpt lat="44.05171" lon="7.44105">
        <ele>2333.588</ele>
        <time>2020-06-26T10:24:35Z</time>
      </trkpt>
      <trkpt lat="44.05166" lon="7.44119">
        <ele>2335.467</ele>
        <time>2020-06-26T10:24:51Z</time>
      </trkpt>
      <trkpt lat="44.05169" lon="7.44135">
        <ele>2335.499</ele>
        <time>2020-06-26T10:25:06Z</time>
      </trkpt>
      <trkpt lat="44.0517" lon="7.44151">
        <ele>2337</ele>
        <time>2020-06-26T10:25:22Z</time>
      </trkpt>
      <trkpt lat="44.05171" lon="7.44159">
        <ele>2341.951</ele>
        <time>2020-06-26T10:25:37Z</time>
      </trkpt>
      <trkpt lat="44.05171" lon="7.44163">
        <ele>2341.163</ele>
        <time>2020-06-26T10:25:53Z</time>
      </trkpt>
      <trkpt lat="44.05175" lon="7.44185">
        <ele>2341.019</ele>
        <time>2020-06-26T10:26:09Z</time>
      </trkpt>
      <trkpt lat="44.0517" lon="7.44199">
        <ele>2340.986</ele>
        <time>2020-06-26T10:26:25Z</time>
      </trkpt>
      <trkpt lat="44.0517" lon="7.44209">
        <ele>2336.67</ele>
        <time>2020-06-26T10:26:41Z</time>
      </trkpt>
      <trkpt lat="44.05165" lon="7.44213">
        <ele>2334.074</ele>
        <time>2020-06-26T10:26:57Z</time>
      </trkpt>
      <trkpt lat="44.05165" lon="7.44213">
        <ele>2334.074</ele>
        <time>2020-06-26T10:27:13Z</time>
      </trkpt>
      <trkpt lat="44.05173" lon="7.44213">
        <ele>2331.564</ele>
        <time>2020-06-26T10:27:28Z</time>
      </trkpt>
      <trkpt lat="44.05168" lon="7.44224">
        <ele>2329.112</ele>
        <time>2020-06-26T10:27:43Z</time>
      </trkpt>
      <trkpt lat="44.05169" lon="7.44231">
        <ele>2328.284</ele>
        <time>2020-06-26T10:27:59Z</time>
      </trkpt>
      <trkpt lat="44.05165" lon="7.44239">
        <ele>2329.434</ele>
        <time>2020-06-26T10:28:15Z</time>
      </trkpt>
      <trkpt lat="44.05166" lon="7.44248">
        <ele>2327.379</ele>
        <time>2020-06-26T10:28:30Z</time>
      </trkpt>
      <trkpt lat="44.05178" lon="7.44259">
        <ele>2325.826</ele>
        <time>2020-06-26T10:28:46Z</time>
      </trkpt>
      <trkpt lat="44.05189" lon="7.44271">
        <ele>2322.602</ele>
        <time>2020-06-26T10:29:02Z</time>
      </trkpt>
      <trkpt lat="44.05193" lon="7.44279">
        <ele>2323.908</ele>
        <time>2020-06-26T10:29:18Z</time>
      </trkpt>
      <trkpt lat="44.05197" lon="7.4428">
        <ele>2322.617</ele>
        <time>2020-06-26T10:29:33Z</time>
      </trkpt>
      <trkpt lat="44.05194" lon="7.4428">
        <ele>2321.338</ele>
        <time>2020-06-26T10:29:49Z</time>
      </trkpt>
      <trkpt lat="44.05194" lon="7.4428">
        <ele>2321.338</ele>
        <time>2020-06-26T10:30:04Z</time>
      </trkpt>
      <trkpt lat="44.05194" lon="7.4428">
        <ele>2321.417</ele>
        <time>2020-06-26T10:30:20Z</time>
      </trkpt>
      <trkpt lat="44.05193" lon="7.44277">
        <ele>2320.767</ele>
        <time>2020-06-26T10:30:35Z</time>
      </trkpt>
      <trkpt lat="44.05193" lon="7.44277">
        <ele>2320.767</ele>
        <time>2020-06-26T10:30:51Z</time>
      </trkpt>
      <trkpt lat="44.05193" lon="7.44277">
        <ele>2320.767</ele>
        <time>2020-06-26T10:31:06Z</time>
      </trkpt>
      <trkpt lat="44.05195" lon="7.44279">
        <ele>2319.762</ele>
        <time>2020-06-26T10:31:21Z</time>
      </trkpt>
      <trkpt lat="44.05194" lon="7.44281">
        <ele>2318.759</ele>
        <time>2020-06-26T10:31:36Z</time>
      </trkpt>
      <trkpt lat="44.05194" lon="7.44281">
        <ele>2318.759</ele>
        <time>2020-06-26T10:31:52Z</time>
      </trkpt>
      <trkpt lat="44.05194" lon="7.44281">
        <ele>2318.759</ele>
        <time>2020-06-26T10:32:08Z</time>
      </trkpt>
      <trkpt lat="44.05194" lon="7.44281">
        <ele>2318.759</ele>
        <time>2020-06-26T10:32:24Z</time>
      </trkpt>
      <trkpt lat="44.05197" lon="7.44281">
        <ele>2319.987</ele>
        <time>2020-06-26T10:32:39Z</time>
      </trkpt>
      <trkpt lat="44.05199" lon="7.44289">
        <ele>2317.946</ele>
        <time>2020-06-26T10:32:55Z</time>
      </trkpt>
      <trkpt lat="44.05208" lon="7.44306">
        <ele>2313.203</ele>
        <time>2020-06-26T10:33:11Z</time>
      </trkpt>
      <trkpt lat="44.05199" lon="7.44317">
        <ele>2305.893</ele>
        <time>2020-06-26T10:33:26Z</time>
      </trkpt>
      <trkpt lat="44.05206" lon="7.44332">
        <ele>2314.033</ele>
        <time>2020-06-26T10:33:42Z</time>
      </trkpt>
      <trkpt lat="44.05211" lon="7.44341">
        <ele>2317.462</ele>
        <time>2020-06-26T10:33:57Z</time>
      </trkpt>
      <trkpt lat="44.0521" lon="7.44355">
        <ele>2315.584</ele>
        <time>2020-06-26T10:34:12Z</time>
      </trkpt>
      <trkpt lat="44.0521" lon="7.44368">
        <ele>2311.606</ele>
        <time>2020-06-26T10:34:28Z</time>
      </trkpt>
      <trkpt lat="44.05203" lon="7.44384">
        <ele>2306.627</ele>
        <time>2020-06-26T10:34:43Z</time>
      </trkpt>
      <trkpt lat="44.05206" lon="7.444">
        <ele>2301.17</ele>
        <time>2020-06-26T10:34:58Z</time>
      </trkpt>
      <trkpt lat="44.05203" lon="7.44399">
        <ele>2302.102</ele>
        <time>2020-06-26T10:35:14Z</time>
      </trkpt>
      <trkpt lat="44.05191" lon="7.44399">
        <ele>2309.969</ele>
        <time>2020-06-26T10:35:30Z</time>
      </trkpt>
      <trkpt lat="44.05182" lon="7.44401">
        <ele>2318.139</ele>
        <time>2020-06-26T10:35:45Z</time>
      </trkpt>
      <trkpt lat="44.05191" lon="7.44413">
        <ele>2322.545</ele>
        <time>2020-06-26T10:36:01Z</time>
      </trkpt>
      <trkpt lat="44.05186" lon="7.44429">
        <ele>2319.341</ele>
        <time>2020-06-26T10:36:16Z</time>
      </trkpt>
      <trkpt lat="44.05177" lon="7.44428">
        <ele>2315.773</ele>
        <time>2020-06-26T10:36:32Z</time>
      </trkpt>
      <trkpt lat="44.05174" lon="7.44434">
        <ele>2323.867</ele>
        <time>2020-06-26T10:36:48Z</time>
      </trkpt>
      <trkpt lat="44.0517" lon="7.44449">
        <ele>2324.348</ele>
        <time>2020-06-26T10:37:04Z</time>
      </trkpt>
      <trkpt lat="44.05178" lon="7.44462">
        <ele>2319.949</ele>
        <time>2020-06-26T10:37:20Z</time>
      </trkpt>
      <trkpt lat="44.05187" lon="7.44475">
        <ele>2325.049</ele>
        <time>2020-06-26T10:37:36Z</time>
      </trkpt>
      <trkpt lat="44.05199" lon="7.44476">
        <ele>2328.266</ele>
        <time>2020-06-26T10:37:51Z</time>
      </trkpt>
      <trkpt lat="44.05204" lon="7.44497">
        <ele>2329.308</ele>
        <time>2020-06-26T10:38:07Z</time>
      </trkpt>
      <trkpt lat="44.05213" lon="7.44514">
        <ele>2328.371</ele>
        <time>2020-06-26T10:38:23Z</time>
      </trkpt>
      <trkpt lat="44.05223" lon="7.44536">
        <ele>2325.789</ele>
        <time>2020-06-26T10:38:39Z</time>
      </trkpt>
      <trkpt lat="44.05242" lon="7.44549">
        <ele>2320.575</ele>
        <time>2020-06-26T10:38:55Z</time>
      </trkpt>
      <trkpt lat="44.05257" lon="7.44555">
        <ele>2323.536</ele>
        <time>2020-06-26T10:39:10Z</time>
      </trkpt>
      <trkpt lat="44.05261" lon="7.44557">
        <ele>2325.19</ele>
        <time>2020-06-26T10:39:26Z</time>
      </trkpt>
      <trkpt lat="44.05261" lon="7.44557">
        <ele>2325.19</ele>
        <time>2020-06-26T10:39:42Z</time>
      </trkpt>
      <trkpt lat="44.05261" lon="7.44557">
        <ele>2325.19</ele>
        <time>2020-06-26T10:39:57Z</time>
      </trkpt>
      <trkpt lat="44.05261" lon="7.44557">
        <ele>2325.19</ele>
        <time>2020-06-26T10:40:13Z</time>
      </trkpt>
      <trkpt lat="44.05261" lon="7.44557">
        <ele>2325.19</ele>
        <time>2020-06-26T10:40:28Z</time>
      </trkpt>
      <trkpt lat="44.05261" lon="7.44573">
        <ele>2324.892</ele>
        <time>2020-06-26T10:40:44Z</time>
      </trkpt>
      <trkpt lat="44.05263" lon="7.44594">
        <ele>2323.576</ele>
        <time>2020-06-26T10:41:00Z</time>
      </trkpt>
      <trkpt lat="44.05262" lon="7.44607">
        <ele>2324.554</ele>
        <time>2020-06-26T10:41:16Z</time>
      </trkpt>
      <trkpt lat="44.05259" lon="7.44628">
        <ele>2326.081</ele>
        <time>2020-06-26T10:41:32Z</time>
      </trkpt>
      <trkpt lat="44.05262" lon="7.4465">
        <ele>2326.282</ele>
        <time>2020-06-26T10:41:47Z</time>
      </trkpt>
      <trkpt lat="44.05268" lon="7.44661">
        <ele>2322.257</ele>
        <time>2020-06-26T10:42:03Z</time>
      </trkpt>
      <trkpt lat="44.05269" lon="7.4467">
        <ele>2322.243</ele>
        <time>2020-06-26T10:42:19Z</time>
      </trkpt>
      <trkpt lat="44.0527" lon="7.44687">
        <ele>2320.337</ele>
        <time>2020-06-26T10:42:34Z</time>
      </trkpt>
      <trkpt lat="44.05276" lon="7.44694">
        <ele>2314.098</ele>
        <time>2020-06-26T10:42:50Z</time>
      </trkpt>
      <trkpt lat="44.05275" lon="7.44702">
        <ele>2313.562</ele>
        <time>2020-06-26T10:43:06Z</time>
      </trkpt>
      <trkpt lat="44.05274" lon="7.44714">
        <ele>2311.017</ele>
        <time>2020-06-26T10:43:21Z</time>
      </trkpt>
      <trkpt lat="44.05273" lon="7.44713">
        <ele>2310.111</ele>
        <time>2020-06-26T10:43:36Z</time>
      </trkpt>
      <trkpt lat="44.05261" lon="7.44715">
        <ele>2309.909</ele>
        <time>2020-06-26T10:43:52Z</time>
      </trkpt>
      <trkpt lat="44.05257" lon="7.44732">
        <ele>2305.673</ele>
        <time>2020-06-26T10:44:07Z</time>
      </trkpt>
      <trkpt lat="44.05263" lon="7.44728">
        <ele>2302.735</ele>
        <time>2020-06-26T10:44:23Z</time>
      </trkpt>
      <trkpt lat="44.05263" lon="7.44728">
        <ele>2302.735</ele>
        <time>2020-06-26T10:44:39Z</time>
      </trkpt>
      <trkpt lat="44.05266" lon="7.44729">
        <ele>2301.034</ele>
        <time>2020-06-26T10:44:55Z</time>
      </trkpt>
      <trkpt lat="44.05263" lon="7.44743">
        <ele>2299.385</ele>
        <time>2020-06-26T10:45:10Z</time>
      </trkpt>
      <trkpt lat="44.05275" lon="7.44743">
        <ele>2288.762</ele>
        <time>2020-06-26T10:45:25Z</time>
      </trkpt>
      <trkpt lat="44.05278" lon="7.44744">
        <ele>2288.783</ele>
        <time>2020-06-26T10:45:41Z</time>
      </trkpt>
      <trkpt lat="44.05278" lon="7.44762">
        <ele>2290.799</ele>
        <time>2020-06-26T10:45:56Z</time>
      </trkpt>
      <trkpt lat="44.05281" lon="7.44776">
        <ele>2288.596</ele>
        <time>2020-06-26T10:46:12Z</time>
      </trkpt>
      <trkpt lat="44.05289" lon="7.44767">
        <ele>2285.338</ele>
        <time>2020-06-26T10:46:28Z</time>
      </trkpt>
      <trkpt lat="44.05293" lon="7.44765">
        <ele>2285.664</ele>
        <time>2020-06-26T10:46:44Z</time>
      </trkpt>
      <trkpt lat="44.05309" lon="7.44762">
        <ele>2282.166</ele>
        <time>2020-06-26T10:46:59Z</time>
      </trkpt>
      <trkpt lat="44.05317" lon="7.44775">
        <ele>2277.753</ele>
        <time>2020-06-26T10:47:14Z</time>
      </trkpt>
      <trkpt lat="44.05329" lon="7.44796">
        <ele>2271.936</ele>
        <time>2020-06-26T10:47:29Z</time>
      </trkpt>
      <trkpt lat="44.0534" lon="7.448">
        <ele>2271.666</ele>
        <time>2020-06-26T10:47:45Z</time>
      </trkpt>
      <trkpt lat="44.0534" lon="7.448">
        <ele>2272.172</ele>
        <time>2020-06-26T10:48:01Z</time>
      </trkpt>
      <trkpt lat="44.0534" lon="7.448">
        <ele>2272.172</ele>
        <time>2020-06-26T10:48:17Z</time>
      </trkpt>
      <trkpt lat="44.0534" lon="7.448">
        <ele>2272.172</ele>
        <time>2020-06-26T10:48:32Z</time>
      </trkpt>
      <trkpt lat="44.0534" lon="7.448">
        <ele>2272.172</ele>
        <time>2020-06-26T10:48:48Z</time>
      </trkpt>
      <trkpt lat="44.05345" lon="7.44801">
        <ele>2272.966</ele>
        <time>2020-06-26T10:49:04Z</time>
      </trkpt>
      <trkpt lat="44.05347" lon="7.44801">
        <ele>2272.182</ele>
        <time>2020-06-26T10:49:19Z</time>
      </trkpt>
      <trkpt lat="44.05359" lon="7.44813">
        <ele>2272.788</ele>
        <time>2020-06-26T10:49:35Z</time>
      </trkpt>
      <trkpt lat="44.05375" lon="7.44821">
        <ele>2274.134</ele>
        <time>2020-06-26T10:49:51Z</time>
      </trkpt>
      <trkpt lat="44.05375" lon="7.44825">
        <ele>2274.588</ele>
        <time>2020-06-26T10:50:06Z</time>
      </trkpt>
      <trkpt lat="44.05387" lon="7.44815">
        <ele>2267.884</ele>
        <time>2020-06-26T10:50:21Z</time>
      </trkpt>
      <trkpt lat="44.05378" lon="7.44838">
        <ele>2265.385</ele>
        <time>2020-06-26T10:50:36Z</time>
      </trkpt>
      <trkpt lat="44.05376" lon="7.44859">
        <ele>2266.232</ele>
        <time>2020-06-26T10:50:52Z</time>
      </trkpt>
      <trkpt lat="44.05373" lon="7.44883">
        <ele>2272.05</ele>
        <time>2020-06-26T10:51:08Z</time>
      </trkpt>
      <trkpt lat="44.05368" lon="7.44902">
        <ele>2268.439</ele>
        <time>2020-06-26T10:51:24Z</time>
      </trkpt>
      <trkpt lat="44.05363" lon="7.44921">
        <ele>2266.294</ele>
        <time>2020-06-26T10:51:40Z</time>
      </trkpt>
      <trkpt lat="44.05363" lon="7.44947">
        <ele>2267.049</ele>
        <time>2020-06-26T10:51:56Z</time>
      </trkpt>
      <trkpt lat="44.0536" lon="7.44971">
        <ele>2265.224</ele>
        <time>2020-06-26T10:52:12Z</time>
      </trkpt>
      <trkpt lat="44.05358" lon="7.44996">
        <ele>2261.143</ele>
        <time>2020-06-26T10:52:27Z</time>
      </trkpt>
      <trkpt lat="44.0536" lon="7.45017">
        <ele>2256.126</ele>
        <time>2020-06-26T10:52:43Z</time>
      </trkpt>
      <trkpt lat="44.05363" lon="7.45024">
        <ele>2249.232</ele>
        <time>2020-06-26T10:52:58Z</time>
      </trkpt>
      <trkpt lat="44.05372" lon="7.45045">
        <ele>2249.638</ele>
        <time>2020-06-26T10:53:14Z</time>
      </trkpt>
      <trkpt lat="44.05373" lon="7.4507">
        <ele>2249.098</ele>
        <time>2020-06-26T10:53:29Z</time>
      </trkpt>
      <trkpt lat="44.05384" lon="7.45082">
        <ele>2243.812</ele>
        <time>2020-06-26T10:53:45Z</time>
      </trkpt>
      <trkpt lat="44.05396" lon="7.45099">
        <ele>2243.229</ele>
        <time>2020-06-26T10:54:01Z</time>
      </trkpt>
      <trkpt lat="44.05406" lon="7.45117">
        <ele>2241.171</ele>
        <time>2020-06-26T10:54:16Z</time>
      </trkpt>
      <trkpt lat="44.0542" lon="7.4513">
        <ele>2238.18</ele>
        <time>2020-06-26T10:54:32Z</time>
      </trkpt>
      <trkpt lat="44.05438" lon="7.45116">
        <ele>2231.99</ele>
        <time>2020-06-26T10:54:48Z</time>
      </trkpt>
      <trkpt lat="44.0545" lon="7.45111">
        <ele>2227.119</ele>
        <time>2020-06-26T10:55:03Z</time>
      </trkpt>
      <trkpt lat="44.05463" lon="7.45112">
        <ele>2228.714</ele>
        <time>2020-06-26T10:55:18Z</time>
      </trkpt>
      <trkpt lat="44.05464" lon="7.45121">
        <ele>2229.816</ele>
        <time>2020-06-26T10:55:33Z</time>
      </trkpt>
      <trkpt lat="44.05464" lon="7.4512">
        <ele>2230.617</ele>
        <time>2020-06-26T10:55:49Z</time>
      </trkpt>
      <trkpt lat="44.05464" lon="7.4512">
        <ele>2230.617</ele>
        <time>2020-06-26T10:56:05Z</time>
      </trkpt>
      <trkpt lat="44.05469" lon="7.45136">
        <ele>2230.924</ele>
        <time>2020-06-26T10:56:21Z</time>
      </trkpt>
      <trkpt lat="44.05483" lon="7.45149">
        <ele>2230.634</ele>
        <time>2020-06-26T10:56:36Z</time>
      </trkpt>
      <trkpt lat="44.05504" lon="7.45151">
        <ele>2229.169</ele>
        <time>2020-06-26T10:56:52Z</time>
      </trkpt>
      <trkpt lat="44.05522" lon="7.45139">
        <ele>2230.046</ele>
        <time>2020-06-26T10:57:08Z</time>
      </trkpt>
      <trkpt lat="44.05539" lon="7.45137">
        <ele>2226.525</ele>
        <time>2020-06-26T10:57:24Z</time>
      </trkpt>
      <trkpt lat="44.05543" lon="7.45132">
        <ele>2229.99</ele>
        <time>2020-06-26T10:57:39Z</time>
      </trkpt>
      <trkpt lat="44.05547" lon="7.45152">
        <ele>2233.763</ele>
        <time>2020-06-26T10:57:55Z</time>
      </trkpt>
      <trkpt lat="44.05552" lon="7.45171">
        <ele>2230.673</ele>
        <time>2020-06-26T10:58:10Z</time>
      </trkpt>
      <trkpt lat="44.05553" lon="7.4518">
        <ele>2232.166</ele>
        <time>2020-06-26T10:58:25Z</time>
      </trkpt>
      <trkpt lat="44.05555" lon="7.45193">
        <ele>2228.693</ele>
        <time>2020-06-26T10:58:41Z</time>
      </trkpt>
      <trkpt lat="44.05556" lon="7.45205">
        <ele>2225.5</ele>
        <time>2020-06-26T10:58:56Z</time>
      </trkpt>
      <trkpt lat="44.05556" lon="7.45192">
        <ele>2221.13</ele>
        <time>2020-06-26T10:59:12Z</time>
      </trkpt>
      <trkpt lat="44.05561" lon="7.45166">
        <ele>2217.579</ele>
        <time>2020-06-26T10:59:28Z</time>
      </trkpt>
      <trkpt lat="44.05569" lon="7.45151">
        <ele>2214.331</ele>
        <time>2020-06-26T10:59:44Z</time>
      </trkpt>
      <trkpt lat="44.05575" lon="7.45167">
        <ele>2217.714</ele>
        <time>2020-06-26T10:59:59Z</time>
      </trkpt>
      <trkpt lat="44.05588" lon="7.45181">
        <ele>2210.228</ele>
        <time>2020-06-26T11:00:15Z</time>
      </trkpt>
      <trkpt lat="44.05601" lon="7.452">
        <ele>2208.456</ele>
        <time>2020-06-26T11:00:30Z</time>
      </trkpt>
      <trkpt lat="44.05609" lon="7.4521">
        <ele>2207.154</ele>
        <time>2020-06-26T11:00:46Z</time>
      </trkpt>
      <trkpt lat="44.05627" lon="7.45205">
        <ele>2202.737</ele>
        <time>2020-06-26T11:01:01Z</time>
      </trkpt>
      <trkpt lat="44.05632" lon="7.4519">
        <ele>2201.226</ele>
        <time>2020-06-26T11:01:16Z</time>
      </trkpt>
      <trkpt lat="44.05646" lon="7.45177">
        <ele>2198.237</ele>
        <time>2020-06-26T11:01:31Z</time>
      </trkpt>
      <trkpt lat="44.05652" lon="7.45155">
        <ele>2194.285</ele>
        <time>2020-06-26T11:01:47Z</time>
      </trkpt>
      <trkpt lat="44.05658" lon="7.45135">
        <ele>2192.139</ele>
        <time>2020-06-26T11:02:03Z</time>
      </trkpt>
      <trkpt lat="44.05664" lon="7.45117">
        <ele>2189.105</ele>
        <time>2020-06-26T11:02:19Z</time>
      </trkpt>
      <trkpt lat="44.05679" lon="7.45114">
        <ele>2187.905</ele>
        <time>2020-06-26T11:02:35Z</time>
      </trkpt>
      <trkpt lat="44.05683" lon="7.45114">
        <ele>2188.601</ele>
        <time>2020-06-26T11:02:50Z</time>
      </trkpt>
      <trkpt lat="44.05692" lon="7.45127">
        <ele>2188.281</ele>
        <time>2020-06-26T11:03:05Z</time>
      </trkpt>
      <trkpt lat="44.05695" lon="7.45137">
        <ele>2186.829</ele>
        <time>2020-06-26T11:03:20Z</time>
      </trkpt>
      <trkpt lat="44.05699" lon="7.45149">
        <ele>2187.776</ele>
        <time>2020-06-26T11:03:36Z</time>
      </trkpt>
      <trkpt lat="44.05709" lon="7.45147">
        <ele>2186.41</ele>
        <time>2020-06-26T11:03:52Z</time>
      </trkpt>
      <trkpt lat="44.05716" lon="7.45137">
        <ele>2185.154</ele>
        <time>2020-06-26T11:04:08Z</time>
      </trkpt>
      <trkpt lat="44.05728" lon="7.4515">
        <ele>2184.404</ele>
        <time>2020-06-26T11:04:23Z</time>
      </trkpt>
      <trkpt lat="44.05743" lon="7.4516">
        <ele>2186.352</ele>
        <time>2020-06-26T11:04:39Z</time>
      </trkpt>
      <trkpt lat="44.05746" lon="7.4518">
        <ele>2185.868</ele>
        <time>2020-06-26T11:04:55Z</time>
      </trkpt>
      <trkpt lat="44.05744" lon="7.45203">
        <ele>2185.93</ele>
        <time>2020-06-26T11:05:11Z</time>
      </trkpt>
      <trkpt lat="44.05744" lon="7.45202">
        <ele>2186.247</ele>
        <time>2020-06-26T11:05:27Z</time>
      </trkpt>
      <trkpt lat="44.05736" lon="7.45209">
        <ele>2191.128</ele>
        <time>2020-06-26T11:05:42Z</time>
      </trkpt>
      <trkpt lat="44.0574" lon="7.45207">
        <ele>2188.095</ele>
        <time>2020-06-26T11:05:58Z</time>
      </trkpt>
      <trkpt lat="44.05741" lon="7.45207">
        <ele>2186.994</ele>
        <time>2020-06-26T11:06:13Z</time>
      </trkpt>
      <trkpt lat="44.05741" lon="7.45207">
        <ele>2186.994</ele>
        <time>2020-06-26T11:06:28Z</time>
      </trkpt>
      <trkpt lat="44.05741" lon="7.45207">
        <ele>2186.994</ele>
        <time>2020-06-26T11:06:44Z</time>
      </trkpt>
      <trkpt lat="44.05741" lon="7.45207">
        <ele>2186.994</ele>
        <time>2020-06-26T11:07:00Z</time>
      </trkpt>
      <trkpt lat="44.05741" lon="7.45207">
        <ele>2186.994</ele>
        <time>2020-06-26T11:07:15Z</time>
      </trkpt>
      <trkpt lat="44.05741" lon="7.45207">
        <ele>2186.994</ele>
        <time>2020-06-26T11:07:31Z</time>
      </trkpt>
      <trkpt lat="44.05741" lon="7.45207">
        <ele>2186.994</ele>
        <time>2020-06-26T11:07:47Z</time>
      </trkpt>
      <trkpt lat="44.05741" lon="7.45207">
        <ele>2186.994</ele>
        <time>2020-06-26T11:08:03Z</time>
      </trkpt>
      <trkpt lat="44.05741" lon="7.45207">
        <ele>2186.994</ele>
        <time>2020-06-26T11:08:19Z</time>
      </trkpt>
      <trkpt lat="44.05741" lon="7.45207">
        <ele>2186.994</ele>
        <time>2020-06-26T11:08:34Z</time>
      </trkpt>
      <trkpt lat="44.05738" lon="7.45208">
        <ele>2185.963</ele>
        <time>2020-06-26T11:08:50Z</time>
      </trkpt>
      <trkpt lat="44.05738" lon="7.45208">
        <ele>2185.963</ele>
        <time>2020-06-26T11:09:06Z</time>
      </trkpt>
      <trkpt lat="44.05738" lon="7.45208">
        <ele>2185.963</ele>
        <time>2020-06-26T11:09:21Z</time>
      </trkpt>
      <trkpt lat="44.05738" lon="7.45208">
        <ele>2185.963</ele>
        <time>2020-06-26T11:09:37Z</time>
      </trkpt>
      <trkpt lat="44.05738" lon="7.45208">
        <ele>2185.963</ele>
        <time>2020-06-26T11:09:53Z</time>
      </trkpt>
      <trkpt lat="44.05738" lon="7.45208">
        <ele>2185.963</ele>
        <time>2020-06-26T11:10:08Z</time>
      </trkpt>
      <trkpt lat="44.05738" lon="7.45208">
        <ele>2185.963</ele>
        <time>2020-06-26T11:10:24Z</time>
      </trkpt>
      <trkpt lat="44.05738" lon="7.45208">
        <ele>2185.963</ele>
        <time>2020-06-26T11:10:39Z</time>
      </trkpt>
      <trkpt lat="44.05738" lon="7.45208">
        <ele>2185.963</ele>
        <time>2020-06-26T11:10:54Z</time>
      </trkpt>
      <trkpt lat="44.05738" lon="7.45208">
        <ele>2185.963</ele>
        <time>2020-06-26T11:11:10Z</time>
      </trkpt>
      <trkpt lat="44.05738" lon="7.45208">
        <ele>2185.963</ele>
        <time>2020-06-26T11:11:26Z</time>
      </trkpt>
      <trkpt lat="44.05738" lon="7.45208">
        <ele>2186.201</ele>
        <time>2020-06-26T11:11:42Z</time>
      </trkpt>
      <trkpt lat="44.05738" lon="7.45208">
        <ele>2186.201</ele>
        <time>2020-06-26T11:11:57Z</time>
      </trkpt>
      <trkpt lat="44.05738" lon="7.45208">
        <ele>2186.201</ele>
        <time>2020-06-26T11:12:12Z</time>
      </trkpt>
      <trkpt lat="44.05738" lon="7.45208">
        <ele>2186.201</ele>
        <time>2020-06-26T11:12:28Z</time>
      </trkpt>
      <trkpt lat="44.05738" lon="7.45208">
        <ele>2186.201</ele>
        <time>2020-06-26T11:12:43Z</time>
      </trkpt>
      <trkpt lat="44.05738" lon="7.45208">
        <ele>2186.201</ele>
        <time>2020-06-26T11:12:59Z</time>
      </trkpt>
      <trkpt lat="44.05738" lon="7.45208">
        <ele>2186.201</ele>
        <time>2020-06-26T11:13:14Z</time>
      </trkpt>
      <trkpt lat="44.05738" lon="7.45208">
        <ele>2186.201</ele>
        <time>2020-06-26T11:13:30Z</time>
      </trkpt>
      <trkpt lat="44.05738" lon="7.45208">
        <ele>2186.201</ele>
        <time>2020-06-26T11:13:46Z</time>
      </trkpt>
      <trkpt lat="44.05738" lon="7.45208">
        <ele>2186.201</ele>
        <time>2020-06-26T11:14:01Z</time>
      </trkpt>
      <trkpt lat="44.05738" lon="7.45208">
        <ele>2186.201</ele>
        <time>2020-06-26T11:14:16Z</time>
      </trkpt>
      <trkpt lat="44.05738" lon="7.45208">
        <ele>2186.201</ele>
        <time>2020-06-26T11:14:32Z</time>
      </trkpt>
      <trkpt lat="44.05738" lon="7.45208">
        <ele>2186.201</ele>
        <time>2020-06-26T11:14:48Z</time>
      </trkpt>
      <trkpt lat="44.05738" lon="7.45208">
        <ele>2186.201</ele>
        <time>2020-06-26T11:15:04Z</time>
      </trkpt>
      <trkpt lat="44.05738" lon="7.45208">
        <ele>2186.201</ele>
        <time>2020-06-26T11:15:19Z</time>
      </trkpt>
      <trkpt lat="44.05738" lon="7.45208">
        <ele>2186.201</ele>
        <time>2020-06-26T11:15:34Z</time>
      </trkpt>
      <trkpt lat="44.05736" lon="7.45207">
        <ele>2183.708</ele>
        <time>2020-06-26T11:15:50Z</time>
      </trkpt>
      <trkpt lat="44.05737" lon="7.45208">
        <ele>2184.44</ele>
        <time>2020-06-26T11:16:06Z</time>
      </trkpt>
      <trkpt lat="44.05737" lon="7.45208">
        <ele>2184.44</ele>
        <time>2020-06-26T11:16:21Z</time>
      </trkpt>
      <trkpt lat="44.05737" lon="7.45208">
        <ele>2184.44</ele>
        <time>2020-06-26T11:16:37Z</time>
      </trkpt>
      <trkpt lat="44.05737" lon="7.45208">
        <ele>2184.44</ele>
        <time>2020-06-26T11:16:52Z</time>
      </trkpt>
      <trkpt lat="44.05737" lon="7.45208">
        <ele>2184.44</ele>
        <time>2020-06-26T11:17:08Z</time>
      </trkpt>
      <trkpt lat="44.05737" lon="7.45208">
        <ele>2184.44</ele>
        <time>2020-06-26T11:17:24Z</time>
      </trkpt>
      <trkpt lat="44.05737" lon="7.45208">
        <ele>2184.44</ele>
        <time>2020-06-26T11:17:40Z</time>
      </trkpt>
      <trkpt lat="44.05739" lon="7.45208">
        <ele>2184.839</ele>
        <time>2020-06-26T11:17:56Z</time>
      </trkpt>
      <trkpt lat="44.05739" lon="7.45208">
        <ele>2184.839</ele>
        <time>2020-06-26T11:18:12Z</time>
      </trkpt>
      <trkpt lat="44.05739" lon="7.45208">
        <ele>2184.839</ele>
        <time>2020-06-26T11:18:27Z</time>
      </trkpt>
      <trkpt lat="44.05739" lon="7.45208">
        <ele>2184.839</ele>
        <time>2020-06-26T11:18:43Z</time>
      </trkpt>
      <trkpt lat="44.05739" lon="7.45208">
        <ele>2184.839</ele>
        <time>2020-06-26T11:18:59Z</time>
      </trkpt>
      <trkpt lat="44.05739" lon="7.45208">
        <ele>2184.839</ele>
        <time>2020-06-26T11:19:14Z</time>
      </trkpt>
      <trkpt lat="44.0574" lon="7.45209">
        <ele>2184.453</ele>
        <time>2020-06-26T11:19:30Z</time>
      </trkpt>
      <trkpt lat="44.05741" lon="7.4521">
        <ele>2185.493</ele>
        <time>2020-06-26T11:19:46Z</time>
      </trkpt>
      <trkpt lat="44.05742" lon="7.45209">
        <ele>2185.073</ele>
        <time>2020-06-26T11:20:01Z</time>
      </trkpt>
      <trkpt lat="44.0574" lon="7.45208">
        <ele>2184.816</ele>
        <time>2020-06-26T11:20:17Z</time>
      </trkpt>
      <trkpt lat="44.0574" lon="7.45208">
        <ele>2184.816</ele>
        <time>2020-06-26T11:20:33Z</time>
      </trkpt>
      <trkpt lat="44.0574" lon="7.45208">
        <ele>2184.816</ele>
        <time>2020-06-26T11:20:48Z</time>
      </trkpt>
      <trkpt lat="44.0574" lon="7.45208">
        <ele>2184.816</ele>
        <time>2020-06-26T11:21:04Z</time>
      </trkpt>
      <trkpt lat="44.0574" lon="7.45208">
        <ele>2184.816</ele>
        <time>2020-06-26T11:21:19Z</time>
      </trkpt>
      <trkpt lat="44.0574" lon="7.45208">
        <ele>2184.816</ele>
        <time>2020-06-26T11:21:35Z</time>
      </trkpt>
      <trkpt lat="44.0574" lon="7.45208">
        <ele>2184.816</ele>
        <time>2020-06-26T11:21:50Z</time>
      </trkpt>
      <trkpt lat="44.0574" lon="7.45208">
        <ele>2184.816</ele>
        <time>2020-06-26T11:22:05Z</time>
      </trkpt>
      <trkpt lat="44.0574" lon="7.45208">
        <ele>2184.816</ele>
        <time>2020-06-26T11:22:21Z</time>
      </trkpt>
      <trkpt lat="44.0574" lon="7.45208">
        <ele>2184.816</ele>
        <time>2020-06-26T11:22:37Z</time>
      </trkpt>
      <trkpt lat="44.05738" lon="7.45207">
        <ele>2184.712</ele>
        <time>2020-06-26T11:22:53Z</time>
      </trkpt>
      <trkpt lat="44.05737" lon="7.45206">
        <ele>2184.037</ele>
        <time>2020-06-26T11:23:08Z</time>
      </trkpt>
      <trkpt lat="44.05737" lon="7.45206">
        <ele>2184.037</ele>
        <time>2020-06-26T11:23:24Z</time>
      </trkpt>
      <trkpt lat="44.05737" lon="7.45206">
        <ele>2184.037</ele>
        <time>2020-06-26T11:23:40Z</time>
      </trkpt>
      <trkpt lat="44.05737" lon="7.45206">
        <ele>2184.037</ele>
        <time>2020-06-26T11:23:55Z</time>
      </trkpt>
      <trkpt lat="44.05737" lon="7.45206">
        <ele>2184.037</ele>
        <time>2020-06-26T11:24:10Z</time>
      </trkpt>
      <trkpt lat="44.05736" lon="7.45206">
        <ele>2183.301</ele>
        <time>2020-06-26T11:24:26Z</time>
      </trkpt>
      <trkpt lat="44.05736" lon="7.45206">
        <ele>2183.301</ele>
        <time>2020-06-26T11:24:41Z</time>
      </trkpt>
      <trkpt lat="44.05736" lon="7.45206">
        <ele>2183.301</ele>
        <time>2020-06-26T11:24:57Z</time>
      </trkpt>
      <trkpt lat="44.05736" lon="7.45206">
        <ele>2183.301</ele>
        <time>2020-06-26T11:25:12Z</time>
      </trkpt>
      <trkpt lat="44.05736" lon="7.45206">
        <ele>2183.301</ele>
        <time>2020-06-26T11:25:28Z</time>
      </trkpt>
      <trkpt lat="44.05736" lon="7.45206">
        <ele>2183.301</ele>
        <time>2020-06-26T11:25:44Z</time>
      </trkpt>
      <trkpt lat="44.05768" lon="7.45211">
        <ele>2180.798</ele>
        <time>2020-06-26T11:35:38Z</time>
      </trkpt>
      <trkpt lat="44.0574" lon="7.45212">
        <ele>2185.255</ele>
        <time>2020-06-26T11:35:54Z</time>
      </trkpt>
      <trkpt lat="44.0574" lon="7.45212">
        <ele>2185.255</ele>
        <time>2020-06-26T11:36:10Z</time>
      </trkpt>
      <trkpt lat="44.05738" lon="7.45212">
        <ele>2184.575</ele>
        <time>2020-06-26T11:36:26Z</time>
      </trkpt>
      <trkpt lat="44.05738" lon="7.45212">
        <ele>2184.575</ele>
        <time>2020-06-26T11:36:42Z</time>
      </trkpt>
      <trkpt lat="44.05738" lon="7.45212">
        <ele>2184.575</ele>
        <time>2020-06-26T11:36:58Z</time>
      </trkpt>
      <trkpt lat="44.05738" lon="7.45212">
        <ele>2184.575</ele>
        <time>2020-06-26T11:37:14Z</time>
      </trkpt>
      <trkpt lat="44.05738" lon="7.45212">
        <ele>2184.575</ele>
        <time>2020-06-26T11:37:29Z</time>
      </trkpt>
      <trkpt lat="44.05738" lon="7.45212">
        <ele>2184.575</ele>
        <time>2020-06-26T11:37:45Z</time>
      </trkpt>
      <trkpt lat="44.05738" lon="7.45212">
        <ele>2184.575</ele>
        <time>2020-06-26T11:38:01Z</time>
      </trkpt>
      <trkpt lat="44.05738" lon="7.45212">
        <ele>2184.575</ele>
        <time>2020-06-26T11:38:17Z</time>
      </trkpt>
      <trkpt lat="44.05738" lon="7.45212">
        <ele>2184.575</ele>
        <time>2020-06-26T11:38:33Z</time>
      </trkpt>
      <trkpt lat="44.05738" lon="7.45212">
        <ele>2184.575</ele>
        <time>2020-06-26T11:38:48Z</time>
      </trkpt>
      <trkpt lat="44.05738" lon="7.45212">
        <ele>2184.575</ele>
        <time>2020-06-26T11:39:04Z</time>
      </trkpt>
      <trkpt lat="44.05738" lon="7.45212">
        <ele>2184.575</ele>
        <time>2020-06-26T11:39:19Z</time>
      </trkpt>
      <trkpt lat="44.05738" lon="7.45212">
        <ele>2184.575</ele>
        <time>2020-06-26T11:39:35Z</time>
      </trkpt>
      <trkpt lat="44.05738" lon="7.45212">
        <ele>2184.575</ele>
        <time>2020-06-26T11:39:50Z</time>
      </trkpt>
      <trkpt lat="44.05738" lon="7.45212">
        <ele>2184.575</ele>
        <time>2020-06-26T11:40:06Z</time>
      </trkpt>
      <trkpt lat="44.05738" lon="7.45212">
        <ele>2184.575</ele>
        <time>2020-06-26T11:40:22Z</time>
      </trkpt>
      <trkpt lat="44.05738" lon="7.45212">
        <ele>2184.575</ele>
        <time>2020-06-26T11:40:37Z</time>
      </trkpt>
      <trkpt lat="44.05738" lon="7.45212">
        <ele>2184.575</ele>
        <time>2020-06-26T11:40:53Z</time>
      </trkpt>
      <trkpt lat="44.05738" lon="7.45212">
        <ele>2184.575</ele>
        <time>2020-06-26T11:41:08Z</time>
      </trkpt>
      <trkpt lat="44.05738" lon="7.45212">
        <ele>2184.575</ele>
        <time>2020-06-26T11:41:24Z</time>
      </trkpt>
      <trkpt lat="44.05738" lon="7.45212">
        <ele>2184.575</ele>
        <time>2020-06-26T11:41:39Z</time>
      </trkpt>
      <trkpt lat="44.05737" lon="7.45216">
        <ele>2136.805</ele>
        <time>2020-06-26T11:46:52Z</time>
      </trkpt>
      <trkpt lat="44.05736" lon="7.45205">
        <ele>2176.5</ele>
        <time>2020-06-26T11:47:07Z</time>
      </trkpt>
      <trkpt lat="44.05736" lon="7.45205">
        <ele>2176.5</ele>
        <time>2020-06-26T11:47:22Z</time>
      </trkpt>
      <trkpt lat="44.05736" lon="7.45205">
        <ele>2176.5</ele>
        <time>2020-06-26T11:47:38Z</time>
      </trkpt>
      <trkpt lat="44.05736" lon="7.45205">
        <ele>2176.5</ele>
        <time>2020-06-26T11:47:53Z</time>
      </trkpt>
      <trkpt lat="44.05736" lon="7.45205">
        <ele>2176.5</ele>
        <time>2020-06-26T11:48:09Z</time>
      </trkpt>
      <trkpt lat="44.05736" lon="7.45205">
        <ele>2176.5</ele>
        <time>2020-06-26T11:48:25Z</time>
      </trkpt>
      <trkpt lat="44.05736" lon="7.45205">
        <ele>2176.5</ele>
        <time>2020-06-26T11:48:41Z</time>
      </trkpt>
      <trkpt lat="44.05736" lon="7.45205">
        <ele>2176.5</ele>
        <time>2020-06-26T11:48:57Z</time>
      </trkpt>
      <trkpt lat="44.05736" lon="7.45205">
        <ele>2176.5</ele>
        <time>2020-06-26T11:49:12Z</time>
      </trkpt>
      <trkpt lat="44.05736" lon="7.45205">
        <ele>2176.5</ele>
        <time>2020-06-26T11:49:28Z</time>
      </trkpt>
      <trkpt lat="44.05736" lon="7.45205">
        <ele>2176.5</ele>
        <time>2020-06-26T11:49:43Z</time>
      </trkpt>
      <trkpt lat="44.05736" lon="7.45205">
        <ele>2176.5</ele>
        <time>2020-06-26T11:49:59Z</time>
      </trkpt>
      <trkpt lat="44.05736" lon="7.45205">
        <ele>2176.5</ele>
        <time>2020-06-26T11:50:14Z</time>
      </trkpt>
      <trkpt lat="44.05736" lon="7.45205">
        <ele>2176.5</ele>
        <time>2020-06-26T11:50:30Z</time>
      </trkpt>
      <trkpt lat="44.05736" lon="7.45205">
        <ele>2176.5</ele>
        <time>2020-06-26T11:50:46Z</time>
      </trkpt>
      <trkpt lat="44.05736" lon="7.45205">
        <ele>2176.5</ele>
        <time>2020-06-26T11:51:01Z</time>
      </trkpt>
      <trkpt lat="44.05736" lon="7.45205">
        <ele>2176.5</ele>
        <time>2020-06-26T11:51:16Z</time>
      </trkpt>
      <trkpt lat="44.05736" lon="7.45205">
        <ele>2176.5</ele>
        <time>2020-06-26T11:51:32Z</time>
      </trkpt>
      <trkpt lat="44.05736" lon="7.45205">
        <ele>2176.5</ele>
        <time>2020-06-26T11:51:47Z</time>
      </trkpt>
      <trkpt lat="44.05736" lon="7.45205">
        <ele>2176.5</ele>
        <time>2020-06-26T11:52:02Z</time>
      </trkpt>
      <trkpt lat="44.05736" lon="7.45205">
        <ele>2176.5</ele>
        <time>2020-06-26T11:52:18Z</time>
      </trkpt>
      <trkpt lat="44.05736" lon="7.45205">
        <ele>2176.5</ele>
        <time>2020-06-26T11:52:33Z</time>
      </trkpt>
      <trkpt lat="44.05736" lon="7.45205">
        <ele>2176.5</ele>
        <time>2020-06-26T11:52:48Z</time>
      </trkpt>
      <trkpt lat="44.05736" lon="7.45205">
        <ele>2176.5</ele>
        <time>2020-06-26T11:53:04Z</time>
      </trkpt>
      <trkpt lat="44.05736" lon="7.45205">
        <ele>2176.5</ele>
        <time>2020-06-26T11:53:20Z</time>
      </trkpt>
      <trkpt lat="44.05736" lon="7.45205">
        <ele>2176.5</ele>
        <time>2020-06-26T11:53:36Z</time>
      </trkpt>
      <trkpt lat="44.05736" lon="7.45205">
        <ele>2176.5</ele>
        <time>2020-06-26T11:53:51Z</time>
      </trkpt>
      <trkpt lat="44.05736" lon="7.45205">
        <ele>2176.5</ele>
        <time>2020-06-26T11:54:07Z</time>
      </trkpt>
      <trkpt lat="44.05736" lon="7.45205">
        <ele>2176.5</ele>
        <time>2020-06-26T11:54:23Z</time>
      </trkpt>
      <trkpt lat="44.05736" lon="7.45205">
        <ele>2176.5</ele>
        <time>2020-06-26T11:54:38Z</time>
      </trkpt>
      <trkpt lat="44.05736" lon="7.45205">
        <ele>2176.5</ele>
        <time>2020-06-26T11:54:54Z</time>
      </trkpt>
      <trkpt lat="44.05736" lon="7.45205">
        <ele>2176.5</ele>
        <time>2020-06-26T11:55:10Z</time>
      </trkpt>
      <trkpt lat="44.05736" lon="7.45205">
        <ele>2176.5</ele>
        <time>2020-06-26T11:55:26Z</time>
      </trkpt>
      <trkpt lat="44.05736" lon="7.45205">
        <ele>2176.5</ele>
        <time>2020-06-26T11:55:41Z</time>
      </trkpt>
      <trkpt lat="44.05736" lon="7.45205">
        <ele>2176.5</ele>
        <time>2020-06-26T11:55:57Z</time>
      </trkpt>
      <trkpt lat="44.05736" lon="7.45205">
        <ele>2176.5</ele>
        <time>2020-06-26T11:56:13Z</time>
      </trkpt>
      <trkpt lat="44.05736" lon="7.45205">
        <ele>2176.5</ele>
        <time>2020-06-26T11:56:29Z</time>
      </trkpt>
      <trkpt lat="44.05736" lon="7.45205">
        <ele>2176.5</ele>
        <time>2020-06-26T11:56:45Z</time>
      </trkpt>
      <trkpt lat="44.05736" lon="7.45205">
        <ele>2176.5</ele>
        <time>2020-06-26T11:57:00Z</time>
      </trkpt>
      <trkpt lat="44.05736" lon="7.45205">
        <ele>2176.5</ele>
        <time>2020-06-26T11:57:16Z</time>
      </trkpt>
      <trkpt lat="44.05736" lon="7.45205">
        <ele>2176.5</ele>
        <time>2020-06-26T11:57:31Z</time>
      </trkpt>
      <trkpt lat="44.05736" lon="7.45205">
        <ele>2176.5</ele>
        <time>2020-06-26T11:57:47Z</time>
      </trkpt>
      <trkpt lat="44.05736" lon="7.45205">
        <ele>2176.5</ele>
        <time>2020-06-26T11:58:02Z</time>
      </trkpt>
      <trkpt lat="44.05736" lon="7.45205">
        <ele>2176.5</ele>
        <time>2020-06-26T11:58:18Z</time>
      </trkpt>
      <trkpt lat="44.05736" lon="7.45205">
        <ele>2176.5</ele>
        <time>2020-06-26T11:58:34Z</time>
      </trkpt>
      <trkpt lat="44.05736" lon="7.45205">
        <ele>2176.5</ele>
        <time>2020-06-26T11:58:50Z</time>
      </trkpt>
      <trkpt lat="44.05736" lon="7.45205">
        <ele>2176.5</ele>
        <time>2020-06-26T11:59:06Z</time>
      </trkpt>
      <trkpt lat="44.05736" lon="7.45205">
        <ele>2176.5</ele>
        <time>2020-06-26T11:59:21Z</time>
      </trkpt>
      <trkpt lat="44.05736" lon="7.45205">
        <ele>2176.5</ele>
        <time>2020-06-26T11:59:37Z</time>
      </trkpt>
      <trkpt lat="44.05736" lon="7.45205">
        <ele>2176.5</ele>
        <time>2020-06-26T11:59:53Z</time>
      </trkpt>
      <trkpt lat="44.05736" lon="7.45205">
        <ele>2176.5</ele>
        <time>2020-06-26T12:00:09Z</time>
      </trkpt>
      <trkpt lat="44.05736" lon="7.45205">
        <ele>2176.5</ele>
        <time>2020-06-26T12:00:24Z</time>
      </trkpt>
      <trkpt lat="44.05736" lon="7.45205">
        <ele>2176.5</ele>
        <time>2020-06-26T12:00:40Z</time>
      </trkpt>
      <trkpt lat="44.05736" lon="7.45205">
        <ele>2176.5</ele>
        <time>2020-06-26T12:00:56Z</time>
      </trkpt>
      <trkpt lat="44.05736" lon="7.45205">
        <ele>2176.5</ele>
        <time>2020-06-26T12:01:11Z</time>
      </trkpt>
      <trkpt lat="44.05736" lon="7.45205">
        <ele>2176.5</ele>
        <time>2020-06-26T12:01:27Z</time>
      </trkpt>
      <trkpt lat="44.05736" lon="7.45205">
        <ele>2176.5</ele>
        <time>2020-06-26T12:01:42Z</time>
      </trkpt>
      <trkpt lat="44.05736" lon="7.45205">
        <ele>2176.5</ele>
        <time>2020-06-26T12:01:58Z</time>
      </trkpt>
      <trkpt lat="44.05736" lon="7.45205">
        <ele>2176.5</ele>
        <time>2020-06-26T12:02:14Z</time>
      </trkpt>
      <trkpt lat="44.05736" lon="7.45205">
        <ele>2176.5</ele>
        <time>2020-06-26T12:02:29Z</time>
      </trkpt>
      <trkpt lat="44.05736" lon="7.45205">
        <ele>2176.5</ele>
        <time>2020-06-26T12:02:45Z</time>
      </trkpt>
      <trkpt lat="44.05736" lon="7.45205">
        <ele>2176.5</ele>
        <time>2020-06-26T12:03:01Z</time>
      </trkpt>
      <trkpt lat="44.05736" lon="7.45205">
        <ele>2176.5</ele>
        <time>2020-06-26T12:03:17Z</time>
      </trkpt>
      <trkpt lat="44.05736" lon="7.45205">
        <ele>2176.5</ele>
        <time>2020-06-26T12:03:33Z</time>
      </trkpt>
      <trkpt lat="44.05736" lon="7.45205">
        <ele>2176.5</ele>
        <time>2020-06-26T12:03:48Z</time>
      </trkpt>
      <trkpt lat="44.05736" lon="7.45205">
        <ele>2176.5</ele>
        <time>2020-06-26T12:04:04Z</time>
      </trkpt>
      <trkpt lat="44.05736" lon="7.45205">
        <ele>2176.5</ele>
        <time>2020-06-26T12:04:20Z</time>
      </trkpt>
      <trkpt lat="44.05736" lon="7.45205">
        <ele>2176.5</ele>
        <time>2020-06-26T12:04:35Z</time>
      </trkpt>
      <trkpt lat="44.05736" lon="7.45205">
        <ele>2176.5</ele>
        <time>2020-06-26T12:04:51Z</time>
      </trkpt>
      <trkpt lat="44.05736" lon="7.45205">
        <ele>2176.5</ele>
        <time>2020-06-26T12:05:07Z</time>
      </trkpt>
      <trkpt lat="44.05736" lon="7.45205">
        <ele>2176.5</ele>
        <time>2020-06-26T12:05:23Z</time>
      </trkpt>
      <trkpt lat="44.05736" lon="7.45205">
        <ele>2176.5</ele>
        <time>2020-06-26T12:05:39Z</time>
      </trkpt>
      <trkpt lat="44.05736" lon="7.45205">
        <ele>2176.5</ele>
        <time>2020-06-26T12:05:54Z</time>
      </trkpt>
      <trkpt lat="44.05736" lon="7.45204">
        <ele>2176.846</ele>
        <time>2020-06-26T12:06:10Z</time>
      </trkpt>
      <trkpt lat="44.05736" lon="7.45204">
        <ele>2176.846</ele>
        <time>2020-06-26T12:06:26Z</time>
      </trkpt>
      <trkpt lat="44.05736" lon="7.45204">
        <ele>2176.846</ele>
        <time>2020-06-26T12:06:42Z</time>
      </trkpt>
      <trkpt lat="44.05736" lon="7.45204">
        <ele>2176.846</ele>
        <time>2020-06-26T12:06:57Z</time>
      </trkpt>
      <trkpt lat="44.05736" lon="7.45204">
        <ele>2176.846</ele>
        <time>2020-06-26T12:07:12Z</time>
      </trkpt>
      <trkpt lat="44.05736" lon="7.45204">
        <ele>2176.846</ele>
        <time>2020-06-26T12:07:28Z</time>
      </trkpt>
      <trkpt lat="44.05736" lon="7.45204">
        <ele>2176.846</ele>
        <time>2020-06-26T12:07:44Z</time>
      </trkpt>
      <trkpt lat="44.05736" lon="7.45204">
        <ele>2176.846</ele>
        <time>2020-06-26T12:07:59Z</time>
      </trkpt>
      <trkpt lat="44.05736" lon="7.45204">
        <ele>2176.846</ele>
        <time>2020-06-26T12:08:15Z</time>
      </trkpt>
      <trkpt lat="44.05736" lon="7.45204">
        <ele>2176.846</ele>
        <time>2020-06-26T12:08:30Z</time>
      </trkpt>
      <trkpt lat="44.05736" lon="7.45204">
        <ele>2176.846</ele>
        <time>2020-06-26T12:08:46Z</time>
      </trkpt>
      <trkpt lat="44.05736" lon="7.45204">
        <ele>2176.846</ele>
        <time>2020-06-26T12:09:01Z</time>
      </trkpt>
      <trkpt lat="44.05736" lon="7.45204">
        <ele>2176.846</ele>
        <time>2020-06-26T12:09:17Z</time>
      </trkpt>
      <trkpt lat="44.05736" lon="7.45204">
        <ele>2176.846</ele>
        <time>2020-06-26T12:09:33Z</time>
      </trkpt>
      <trkpt lat="44.05736" lon="7.45204">
        <ele>2176.846</ele>
        <time>2020-06-26T12:09:49Z</time>
      </trkpt>
      <trkpt lat="44.05736" lon="7.45204">
        <ele>2176.846</ele>
        <time>2020-06-26T12:10:05Z</time>
      </trkpt>
      <trkpt lat="44.05736" lon="7.45204">
        <ele>2176.846</ele>
        <time>2020-06-26T12:10:20Z</time>
      </trkpt>
      <trkpt lat="44.05736" lon="7.45204">
        <ele>2176.846</ele>
        <time>2020-06-26T12:10:36Z</time>
      </trkpt>
      <trkpt lat="44.05736" lon="7.45204">
        <ele>2176.846</ele>
        <time>2020-06-26T12:10:51Z</time>
      </trkpt>
      <trkpt lat="44.05736" lon="7.45204">
        <ele>2176.846</ele>
        <time>2020-06-26T12:11:07Z</time>
      </trkpt>
      <trkpt lat="44.05736" lon="7.45204">
        <ele>2176.846</ele>
        <time>2020-06-26T12:11:22Z</time>
      </trkpt>
      <trkpt lat="44.05736" lon="7.45204">
        <ele>2176.846</ele>
        <time>2020-06-26T12:11:38Z</time>
      </trkpt>
      <trkpt lat="44.05736" lon="7.45204">
        <ele>2176.846</ele>
        <time>2020-06-26T12:11:53Z</time>
      </trkpt>
      <trkpt lat="44.05736" lon="7.45204">
        <ele>2176.846</ele>
        <time>2020-06-26T12:12:09Z</time>
      </trkpt>
      <trkpt lat="44.05736" lon="7.45204">
        <ele>2176.846</ele>
        <time>2020-06-26T12:12:25Z</time>
      </trkpt>
      <trkpt lat="44.05736" lon="7.45204">
        <ele>2176.846</ele>
        <time>2020-06-26T12:12:41Z</time>
      </trkpt>
      <trkpt lat="44.05736" lon="7.45204">
        <ele>2176.846</ele>
        <time>2020-06-26T12:12:56Z</time>
      </trkpt>
      <trkpt lat="44.05736" lon="7.45204">
        <ele>2176.846</ele>
        <time>2020-06-26T12:13:12Z</time>
      </trkpt>
      <trkpt lat="44.05736" lon="7.45204">
        <ele>2176.846</ele>
        <time>2020-06-26T12:13:27Z</time>
      </trkpt>
      <trkpt lat="44.05736" lon="7.45204">
        <ele>2176.846</ele>
        <time>2020-06-26T12:13:42Z</time>
      </trkpt>
      <trkpt lat="44.05736" lon="7.45204">
        <ele>2176.846</ele>
        <time>2020-06-26T12:13:58Z</time>
      </trkpt>
      <trkpt lat="44.05736" lon="7.45204">
        <ele>2176.846</ele>
        <time>2020-06-26T12:14:13Z</time>
      </trkpt>
      <trkpt lat="44.05736" lon="7.45204">
        <ele>2176.846</ele>
        <time>2020-06-26T12:14:29Z</time>
      </trkpt>
      <trkpt lat="44.05736" lon="7.45204">
        <ele>2176.846</ele>
        <time>2020-06-26T12:14:44Z</time>
      </trkpt>
      <trkpt lat="44.05736" lon="7.45204">
        <ele>2176.846</ele>
        <time>2020-06-26T12:14:59Z</time>
      </trkpt>
      <trkpt lat="44.05736" lon="7.45204">
        <ele>2176.846</ele>
        <time>2020-06-26T12:15:15Z</time>
      </trkpt>
      <trkpt lat="44.05736" lon="7.45204">
        <ele>2176.846</ele>
        <time>2020-06-26T12:15:31Z</time>
      </trkpt>
      <trkpt lat="44.05734" lon="7.45203">
        <ele>2176.503</ele>
        <time>2020-06-26T12:15:46Z</time>
      </trkpt>
      <trkpt lat="44.05737" lon="7.452">
        <ele>2176.298</ele>
        <time>2020-06-26T12:16:01Z</time>
      </trkpt>
      <trkpt lat="44.05738" lon="7.45196">
        <ele>2175.046</ele>
        <time>2020-06-26T12:16:16Z</time>
      </trkpt>
      <trkpt lat="44.05721" lon="7.45178">
        <ele>2174.329</ele>
        <time>2020-06-26T12:16:31Z</time>
      </trkpt>
      <trkpt lat="44.05701" lon="7.45205">
        <ele>2173.663</ele>
        <time>2020-06-26T12:16:47Z</time>
      </trkpt>
      <trkpt lat="44.05673" lon="7.45221">
        <ele>2172.49</ele>
        <time>2020-06-26T12:17:03Z</time>
      </trkpt>
      <trkpt lat="44.05713" lon="7.45218">
        <ele>2176.724</ele>
        <time>2020-06-26T12:18:37Z</time>
      </trkpt>
      <trkpt lat="44.05731" lon="7.45199">
        <ele>2168.382</ele>
        <time>2020-06-26T12:18:53Z</time>
      </trkpt>
      <trkpt lat="44.0573" lon="7.45198">
        <ele>2168.697</ele>
        <time>2020-06-26T12:19:08Z</time>
      </trkpt>
      <trkpt lat="44.05729" lon="7.45197">
        <ele>2168.253</ele>
        <time>2020-06-26T12:19:24Z</time>
      </trkpt>
      <trkpt lat="44.05729" lon="7.45197">
        <ele>2168.253</ele>
        <time>2020-06-26T12:19:40Z</time>
      </trkpt>
      <trkpt lat="44.05729" lon="7.45197">
        <ele>2168.253</ele>
        <time>2020-06-26T12:19:55Z</time>
      </trkpt>
      <trkpt lat="44.05729" lon="7.45197">
        <ele>2168.253</ele>
        <time>2020-06-26T12:20:11Z</time>
      </trkpt>
      <trkpt lat="44.05729" lon="7.45197">
        <ele>2168.253</ele>
        <time>2020-06-26T12:20:26Z</time>
      </trkpt>
      <trkpt lat="44.05729" lon="7.45197">
        <ele>2168.253</ele>
        <time>2020-06-26T12:20:42Z</time>
      </trkpt>
      <trkpt lat="44.05729" lon="7.45197">
        <ele>2168.253</ele>
        <time>2020-06-26T12:20:58Z</time>
      </trkpt>
      <trkpt lat="44.05729" lon="7.45197">
        <ele>2168.253</ele>
        <time>2020-06-26T12:21:14Z</time>
      </trkpt>
      <trkpt lat="44.05729" lon="7.45197">
        <ele>2168.253</ele>
        <time>2020-06-26T12:21:29Z</time>
      </trkpt>
      <trkpt lat="44.05729" lon="7.45197">
        <ele>2168.253</ele>
        <time>2020-06-26T12:21:45Z</time>
      </trkpt>
      <trkpt lat="44.05729" lon="7.45196">
        <ele>2168.861</ele>
        <time>2020-06-26T12:22:01Z</time>
      </trkpt>
      <trkpt lat="44.05729" lon="7.45196">
        <ele>2168.861</ele>
        <time>2020-06-26T12:22:17Z</time>
      </trkpt>
      <trkpt lat="44.05729" lon="7.45196">
        <ele>2168.861</ele>
        <time>2020-06-26T12:22:32Z</time>
      </trkpt>
      <trkpt lat="44.05729" lon="7.45196">
        <ele>2168.861</ele>
        <time>2020-06-26T12:22:48Z</time>
      </trkpt>
      <trkpt lat="44.05729" lon="7.45196">
        <ele>2168.861</ele>
        <time>2020-06-26T12:23:03Z</time>
      </trkpt>
      <trkpt lat="44.05729" lon="7.45196">
        <ele>2168.861</ele>
        <time>2020-06-26T12:23:18Z</time>
      </trkpt>
      <trkpt lat="44.05729" lon="7.45196">
        <ele>2168.861</ele>
        <time>2020-06-26T12:23:34Z</time>
      </trkpt>
      <trkpt lat="44.05729" lon="7.45196">
        <ele>2168.861</ele>
        <time>2020-06-26T12:23:49Z</time>
      </trkpt>
      <trkpt lat="44.05729" lon="7.45196">
        <ele>2168.861</ele>
        <time>2020-06-26T12:24:04Z</time>
      </trkpt>
      <trkpt lat="44.05729" lon="7.45196">
        <ele>2168.861</ele>
        <time>2020-06-26T12:24:20Z</time>
      </trkpt>
      <trkpt lat="44.05729" lon="7.45196">
        <ele>2168.861</ele>
        <time>2020-06-26T12:24:36Z</time>
      </trkpt>
      <trkpt lat="44.05729" lon="7.45196">
        <ele>2168.861</ele>
        <time>2020-06-26T12:24:52Z</time>
      </trkpt>
      <trkpt lat="44.05729" lon="7.45196">
        <ele>2168.861</ele>
        <time>2020-06-26T12:25:08Z</time>
      </trkpt>
      <trkpt lat="44.05729" lon="7.45196">
        <ele>2168.861</ele>
        <time>2020-06-26T12:25:24Z</time>
      </trkpt>
      <trkpt lat="44.05729" lon="7.45196">
        <ele>2168.861</ele>
        <time>2020-06-26T12:25:40Z</time>
      </trkpt>
      <trkpt lat="44.05729" lon="7.45196">
        <ele>2168.861</ele>
        <time>2020-06-26T12:25:56Z</time>
      </trkpt>
      <trkpt lat="44.05729" lon="7.45196">
        <ele>2168.861</ele>
        <time>2020-06-26T12:26:11Z</time>
      </trkpt>
      <trkpt lat="44.05729" lon="7.45196">
        <ele>2168.861</ele>
        <time>2020-06-26T12:26:27Z</time>
      </trkpt>
      <trkpt lat="44.05729" lon="7.45196">
        <ele>2168.861</ele>
        <time>2020-06-26T12:26:42Z</time>
      </trkpt>
      <trkpt lat="44.05729" lon="7.45196">
        <ele>2168.861</ele>
        <time>2020-06-26T12:26:58Z</time>
      </trkpt>
      <trkpt lat="44.05729" lon="7.45196">
        <ele>2168.861</ele>
        <time>2020-06-26T12:27:14Z</time>
      </trkpt>
      <trkpt lat="44.05729" lon="7.45196">
        <ele>2168.861</ele>
        <time>2020-06-26T12:27:30Z</time>
      </trkpt>
      <trkpt lat="44.05729" lon="7.45196">
        <ele>2168.861</ele>
        <time>2020-06-26T12:27:45Z</time>
      </trkpt>
      <trkpt lat="44.05729" lon="7.45196">
        <ele>2168.861</ele>
        <time>2020-06-26T12:28:01Z</time>
      </trkpt>
      <trkpt lat="44.05729" lon="7.45196">
        <ele>2168.861</ele>
        <time>2020-06-26T12:28:17Z</time>
      </trkpt>
      <trkpt lat="44.05729" lon="7.45196">
        <ele>2168.861</ele>
        <time>2020-06-26T12:28:32Z</time>
      </trkpt>
      <trkpt lat="44.05729" lon="7.45196">
        <ele>2168.861</ele>
        <time>2020-06-26T12:28:48Z</time>
      </trkpt>
      <trkpt lat="44.05729" lon="7.45196">
        <ele>2168.861</ele>
        <time>2020-06-26T12:29:04Z</time>
      </trkpt>
      <trkpt lat="44.05729" lon="7.45196">
        <ele>2168.861</ele>
        <time>2020-06-26T12:29:20Z</time>
      </trkpt>
      <trkpt lat="44.05729" lon="7.45196">
        <ele>2168.861</ele>
        <time>2020-06-26T12:29:36Z</time>
      </trkpt>
      <trkpt lat="44.05729" lon="7.45196">
        <ele>2168.861</ele>
        <time>2020-06-26T12:29:52Z</time>
      </trkpt>
      <trkpt lat="44.05729" lon="7.45196">
        <ele>2168.861</ele>
        <time>2020-06-26T12:30:07Z</time>
      </trkpt>
      <trkpt lat="44.05729" lon="7.45196">
        <ele>2168.861</ele>
        <time>2020-06-26T12:30:23Z</time>
      </trkpt>
      <trkpt lat="44.05729" lon="7.45196">
        <ele>2168.861</ele>
        <time>2020-06-26T12:30:39Z</time>
      </trkpt>
      <trkpt lat="44.05729" lon="7.45196">
        <ele>2168.861</ele>
        <time>2020-06-26T12:30:54Z</time>
      </trkpt>
      <trkpt lat="44.05729" lon="7.45196">
        <ele>2168.861</ele>
        <time>2020-06-26T12:31:10Z</time>
      </trkpt>
      <trkpt lat="44.05729" lon="7.45196">
        <ele>2168.861</ele>
        <time>2020-06-26T12:31:26Z</time>
      </trkpt>
      <trkpt lat="44.05729" lon="7.45196">
        <ele>2168.861</ele>
        <time>2020-06-26T12:31:42Z</time>
      </trkpt>
      <trkpt lat="44.05729" lon="7.45196">
        <ele>2168.861</ele>
        <time>2020-06-26T12:31:57Z</time>
      </trkpt>
      <trkpt lat="44.05729" lon="7.45196">
        <ele>2168.861</ele>
        <time>2020-06-26T12:32:12Z</time>
      </trkpt>
      <trkpt lat="44.05729" lon="7.45196">
        <ele>2168.861</ele>
        <time>2020-06-26T12:32:27Z</time>
      </trkpt>
      <trkpt lat="44.05729" lon="7.45196">
        <ele>2168.861</ele>
        <time>2020-06-26T12:32:43Z</time>
      </trkpt>
      <trkpt lat="44.05729" lon="7.45196">
        <ele>2168.861</ele>
        <time>2020-06-26T12:32:58Z</time>
      </trkpt>
      <trkpt lat="44.05729" lon="7.45196">
        <ele>2168.861</ele>
        <time>2020-06-26T12:33:14Z</time>
      </trkpt>
      <trkpt lat="44.05729" lon="7.45196">
        <ele>2168.861</ele>
        <time>2020-06-26T12:33:30Z</time>
      </trkpt>
      <trkpt lat="44.05729" lon="7.45196">
        <ele>2168.861</ele>
        <time>2020-06-26T12:33:45Z</time>
      </trkpt>
      <trkpt lat="44.05729" lon="7.45196">
        <ele>2168.861</ele>
        <time>2020-06-26T12:34:01Z</time>
      </trkpt>
      <trkpt lat="44.05729" lon="7.45196">
        <ele>2168.861</ele>
        <time>2020-06-26T12:34:16Z</time>
      </trkpt>
      <trkpt lat="44.05729" lon="7.45196">
        <ele>2168.861</ele>
        <time>2020-06-26T12:34:32Z</time>
      </trkpt>
      <trkpt lat="44.05729" lon="7.45196">
        <ele>2168.861</ele>
        <time>2020-06-26T12:34:47Z</time>
      </trkpt>
      <trkpt lat="44.05729" lon="7.45196">
        <ele>2168.861</ele>
        <time>2020-06-26T12:35:03Z</time>
      </trkpt>
      <trkpt lat="44.05729" lon="7.45196">
        <ele>2168.678</ele>
        <time>2020-06-26T12:35:19Z</time>
      </trkpt>
      <trkpt lat="44.05729" lon="7.45196">
        <ele>2168.678</ele>
        <time>2020-06-26T12:35:34Z</time>
      </trkpt>
      <trkpt lat="44.05729" lon="7.45196">
        <ele>2168.678</ele>
        <time>2020-06-26T12:35:49Z</time>
      </trkpt>
      <trkpt lat="44.0573" lon="7.45197">
        <ele>2168.716</ele>
        <time>2020-06-26T12:36:05Z</time>
      </trkpt>
      <trkpt lat="44.0573" lon="7.45197">
        <ele>2168.716</ele>
        <time>2020-06-26T12:36:21Z</time>
      </trkpt>
      <trkpt lat="44.0573" lon="7.45197">
        <ele>2168.716</ele>
        <time>2020-06-26T12:36:37Z</time>
      </trkpt>
      <trkpt lat="44.0573" lon="7.45197">
        <ele>2168.716</ele>
        <time>2020-06-26T12:36:52Z</time>
      </trkpt>
      <trkpt lat="44.0573" lon="7.45197">
        <ele>2168.716</ele>
        <time>2020-06-26T12:37:08Z</time>
      </trkpt>
      <trkpt lat="44.0573" lon="7.45197">
        <ele>2168.716</ele>
        <time>2020-06-26T12:37:24Z</time>
      </trkpt>
      <trkpt lat="44.0573" lon="7.45197">
        <ele>2168.716</ele>
        <time>2020-06-26T12:37:39Z</time>
      </trkpt>
      <trkpt lat="44.0573" lon="7.45197">
        <ele>2168.716</ele>
        <time>2020-06-26T12:37:54Z</time>
      </trkpt>
      <trkpt lat="44.0573" lon="7.45197">
        <ele>2168.716</ele>
        <time>2020-06-26T12:38:10Z</time>
      </trkpt>
      <trkpt lat="44.0573" lon="7.45197">
        <ele>2168.716</ele>
        <time>2020-06-26T12:38:25Z</time>
      </trkpt>
      <trkpt lat="44.0573" lon="7.45197">
        <ele>2168.716</ele>
        <time>2020-06-26T12:38:41Z</time>
      </trkpt>
      <trkpt lat="44.0573" lon="7.45197">
        <ele>2168.716</ele>
        <time>2020-06-26T12:38:57Z</time>
      </trkpt>
      <trkpt lat="44.0573" lon="7.45197">
        <ele>2168.716</ele>
        <time>2020-06-26T12:39:13Z</time>
      </trkpt>
      <trkpt lat="44.0573" lon="7.45197">
        <ele>2168.716</ele>
        <time>2020-06-26T12:39:28Z</time>
      </trkpt>
      <trkpt lat="44.0573" lon="7.45197">
        <ele>2168.716</ele>
        <time>2020-06-26T12:39:44Z</time>
      </trkpt>
      <trkpt lat="44.0573" lon="7.45197">
        <ele>2168.716</ele>
        <time>2020-06-26T12:40:00Z</time>
      </trkpt>
      <trkpt lat="44.0573" lon="7.45197">
        <ele>2168.716</ele>
        <time>2020-06-26T12:40:16Z</time>
      </trkpt>
      <trkpt lat="44.05731" lon="7.45189">
        <ele>2169.048</ele>
        <time>2020-06-26T12:40:32Z</time>
      </trkpt>
      <trkpt lat="44.05731" lon="7.45182">
        <ele>2168.186</ele>
        <time>2020-06-26T12:40:47Z</time>
      </trkpt>
      <trkpt lat="44.05732" lon="7.45177">
        <ele>2168.736</ele>
        <time>2020-06-26T12:41:03Z</time>
      </trkpt>
      <trkpt lat="44.05732" lon="7.45177">
        <ele>2168.736</ele>
        <time>2020-06-26T12:41:19Z</time>
      </trkpt>
      <trkpt lat="44.05732" lon="7.45177">
        <ele>2168.736</ele>
        <time>2020-06-26T12:41:35Z</time>
      </trkpt>
      <trkpt lat="44.05736" lon="7.45166">
        <ele>2167.396</ele>
        <time>2020-06-26T12:41:51Z</time>
      </trkpt>
      <trkpt lat="44.05737" lon="7.45164">
        <ele>2167.385</ele>
        <time>2020-06-26T12:42:07Z</time>
      </trkpt>
      <trkpt lat="44.05737" lon="7.45164">
        <ele>2167.385</ele>
        <time>2020-06-26T12:42:23Z</time>
      </trkpt>
      <trkpt lat="44.05737" lon="7.45164">
        <ele>2167.385</ele>
        <time>2020-06-26T12:42:38Z</time>
      </trkpt>
      <trkpt lat="44.05737" lon="7.45164">
        <ele>2167.385</ele>
        <time>2020-06-26T12:42:54Z</time>
      </trkpt>
      <trkpt lat="44.05737" lon="7.45164">
        <ele>2167.385</ele>
        <time>2020-06-26T12:43:09Z</time>
      </trkpt>
      <trkpt lat="44.05737" lon="7.45164">
        <ele>2167.385</ele>
        <time>2020-06-26T12:43:25Z</time>
      </trkpt>
      <trkpt lat="44.05732" lon="7.45156">
        <ele>2167.715</ele>
        <time>2020-06-26T12:43:41Z</time>
      </trkpt>
      <trkpt lat="44.05726" lon="7.45153">
        <ele>2168.588</ele>
        <time>2020-06-26T12:43:57Z</time>
      </trkpt>
      <trkpt lat="44.05714" lon="7.45142">
        <ele>2171.547</ele>
        <time>2020-06-26T12:44:13Z</time>
      </trkpt>
      <trkpt lat="44.05701" lon="7.45144">
        <ele>2173.644</ele>
        <time>2020-06-26T12:44:28Z</time>
      </trkpt>
      <trkpt lat="44.05695" lon="7.45146">
        <ele>2173.895</ele>
        <time>2020-06-26T12:44:44Z</time>
      </trkpt>
      <trkpt lat="44.05695" lon="7.45145">
        <ele>2174.105</ele>
        <time>2020-06-26T12:44:59Z</time>
      </trkpt>
      <trkpt lat="44.05692" lon="7.4513">
        <ele>2179.537</ele>
        <time>2020-06-26T12:45:15Z</time>
      </trkpt>
      <trkpt lat="44.05685" lon="7.45117">
        <ele>2182.31</ele>
        <time>2020-06-26T12:45:30Z</time>
      </trkpt>
      <trkpt lat="44.05685" lon="7.45117">
        <ele>2182.31</ele>
        <time>2020-06-26T12:45:46Z</time>
      </trkpt>
      <trkpt lat="44.05685" lon="7.45102">
        <ele>2181.073</ele>
        <time>2020-06-26T12:46:01Z</time>
      </trkpt>
      <trkpt lat="44.05685" lon="7.45102">
        <ele>2181.073</ele>
        <time>2020-06-26T12:46:17Z</time>
      </trkpt>
      <trkpt lat="44.05685" lon="7.45102">
        <ele>2181.073</ele>
        <time>2020-06-26T12:46:33Z</time>
      </trkpt>
      <trkpt lat="44.05684" lon="7.45101">
        <ele>2181.931</ele>
        <time>2020-06-26T12:46:49Z</time>
      </trkpt>
      <trkpt lat="44.05681" lon="7.45088">
        <ele>2180.323</ele>
        <time>2020-06-26T12:47:04Z</time>
      </trkpt>
      <trkpt lat="44.05685" lon="7.45072">
        <ele>2181.687</ele>
        <time>2020-06-26T12:47:20Z</time>
      </trkpt>
      <trkpt lat="44.05687" lon="7.45065">
        <ele>2182.537</ele>
        <time>2020-06-26T12:47:36Z</time>
      </trkpt>
      <trkpt lat="44.05686" lon="7.45069">
        <ele>2181.677</ele>
        <time>2020-06-26T12:47:52Z</time>
      </trkpt>
      <trkpt lat="44.05682" lon="7.45094">
        <ele>2181.709</ele>
        <time>2020-06-26T12:48:07Z</time>
      </trkpt>
      <trkpt lat="44.05683" lon="7.45114">
        <ele>2181.656</ele>
        <time>2020-06-26T12:48:23Z</time>
      </trkpt>
      <trkpt lat="44.05669" lon="7.45118">
        <ele>2179.493</ele>
        <time>2020-06-26T12:48:38Z</time>
      </trkpt>
      <trkpt lat="44.05657" lon="7.45123">
        <ele>2178.871</ele>
        <time>2020-06-26T12:48:53Z</time>
      </trkpt>
      <trkpt lat="44.05655" lon="7.4514">
        <ele>2184.575</ele>
        <time>2020-06-26T12:49:09Z</time>
      </trkpt>
      <trkpt lat="44.05651" lon="7.4516">
        <ele>2184.92</ele>
        <time>2020-06-26T12:49:25Z</time>
      </trkpt>
      <trkpt lat="44.05648" lon="7.45179">
        <ele>2188.149</ele>
        <time>2020-06-26T12:49:40Z</time>
      </trkpt>
      <trkpt lat="44.0564" lon="7.45193">
        <ele>2192.886</ele>
        <time>2020-06-26T12:49:55Z</time>
      </trkpt>
      <trkpt lat="44.05634" lon="7.45196">
        <ele>2195.821</ele>
        <time>2020-06-26T12:50:11Z</time>
      </trkpt>
      <trkpt lat="44.05629" lon="7.45203">
        <ele>2193.994</ele>
        <time>2020-06-26T12:50:27Z</time>
      </trkpt>
      <trkpt lat="44.05622" lon="7.45201">
        <ele>2193.227</ele>
        <time>2020-06-26T12:50:42Z</time>
      </trkpt>
      <trkpt lat="44.05622" lon="7.452">
        <ele>2193.599</ele>
        <time>2020-06-26T12:50:58Z</time>
      </trkpt>
      <trkpt lat="44.05624" lon="7.45189">
        <ele>2191.842</ele>
        <time>2020-06-26T12:51:14Z</time>
      </trkpt>
      <trkpt lat="44.05624" lon="7.45189">
        <ele>2191.842</ele>
        <time>2020-06-26T12:51:30Z</time>
      </trkpt>
      <trkpt lat="44.05617" lon="7.45205">
        <ele>2190.824</ele>
        <time>2020-06-26T12:51:46Z</time>
      </trkpt>
      <trkpt lat="44.05615" lon="7.45222">
        <ele>2190.831</ele>
        <time>2020-06-26T12:52:02Z</time>
      </trkpt>
      <trkpt lat="44.05615" lon="7.45222">
        <ele>2190.696</ele>
        <time>2020-06-26T12:52:17Z</time>
      </trkpt>
      <trkpt lat="44.05615" lon="7.45224">
        <ele>2190.582</ele>
        <time>2020-06-26T12:52:33Z</time>
      </trkpt>
      <trkpt lat="44.05614" lon="7.45239">
        <ele>2192.136</ele>
        <time>2020-06-26T12:52:48Z</time>
      </trkpt>
      <trkpt lat="44.05609" lon="7.4525">
        <ele>2193.166</ele>
        <time>2020-06-26T12:53:03Z</time>
      </trkpt>
      <trkpt lat="44.05607" lon="7.4525">
        <ele>2192.228</ele>
        <time>2020-06-26T12:53:18Z</time>
      </trkpt>
      <trkpt lat="44.05606" lon="7.45274">
        <ele>2192.708</ele>
        <time>2020-06-26T12:53:34Z</time>
      </trkpt>
      <trkpt lat="44.05603" lon="7.45291">
        <ele>2193.276</ele>
        <time>2020-06-26T12:53:49Z</time>
      </trkpt>
      <trkpt lat="44.05594" lon="7.45294">
        <ele>2193.204</ele>
        <time>2020-06-26T12:54:05Z</time>
      </trkpt>
      <trkpt lat="44.05594" lon="7.45294">
        <ele>2193.204</ele>
        <time>2020-06-26T12:54:21Z</time>
      </trkpt>
      <trkpt lat="44.05595" lon="7.45294">
        <ele>2192.485</ele>
        <time>2020-06-26T12:54:36Z</time>
      </trkpt>
      <trkpt lat="44.05596" lon="7.45296">
        <ele>2191.393</ele>
        <time>2020-06-26T12:54:51Z</time>
      </trkpt>
      <trkpt lat="44.05596" lon="7.45296">
        <ele>2191.393</ele>
        <time>2020-06-26T12:55:07Z</time>
      </trkpt>
      <trkpt lat="44.05596" lon="7.45296">
        <ele>2191.393</ele>
        <time>2020-06-26T12:55:23Z</time>
      </trkpt>
      <trkpt lat="44.05596" lon="7.45296">
        <ele>2191.393</ele>
        <time>2020-06-26T12:55:39Z</time>
      </trkpt>
      <trkpt lat="44.05596" lon="7.45286">
        <ele>2190.906</ele>
        <time>2020-06-26T12:55:54Z</time>
      </trkpt>
      <trkpt lat="44.05595" lon="7.45268">
        <ele>2191.999</ele>
        <time>2020-06-26T12:56:09Z</time>
      </trkpt>
      <trkpt lat="44.05588" lon="7.45268">
        <ele>2189.067</ele>
        <time>2020-06-26T12:56:25Z</time>
      </trkpt>
      <trkpt lat="44.05585" lon="7.45265">
        <ele>2187.62</ele>
        <time>2020-06-26T12:56:40Z</time>
      </trkpt>
      <trkpt lat="44.05585" lon="7.45265">
        <ele>2187.62</ele>
        <time>2020-06-26T12:56:56Z</time>
      </trkpt>
      <trkpt lat="44.05585" lon="7.45265">
        <ele>2187.958</ele>
        <time>2020-06-26T12:57:11Z</time>
      </trkpt>
      <trkpt lat="44.05585" lon="7.45266">
        <ele>2188.757</ele>
        <time>2020-06-26T12:57:27Z</time>
      </trkpt>
      <trkpt lat="44.05585" lon="7.45266">
        <ele>2188.757</ele>
        <time>2020-06-26T12:57:43Z</time>
      </trkpt>
      <trkpt lat="44.05591" lon="7.45267">
        <ele>2189.161</ele>
        <time>2020-06-26T12:57:58Z</time>
      </trkpt>
      <trkpt lat="44.05603" lon="7.45266">
        <ele>2194.454</ele>
        <time>2020-06-26T12:58:14Z</time>
      </trkpt>
      <trkpt lat="44.05609" lon="7.45274">
        <ele>2195.293</ele>
        <time>2020-06-26T12:58:30Z</time>
      </trkpt>
      <trkpt lat="44.05618" lon="7.45295">
        <ele>2192.365</ele>
        <time>2020-06-26T12:58:46Z</time>
      </trkpt>
      <trkpt lat="44.05628" lon="7.45312">
        <ele>2194.75</ele>
        <time>2020-06-26T12:59:01Z</time>
      </trkpt>
      <trkpt lat="44.05635" lon="7.45329">
        <ele>2194.782</ele>
        <time>2020-06-26T12:59:17Z</time>
      </trkpt>
      <trkpt lat="44.05643" lon="7.45331">
        <ele>2194.931</ele>
        <time>2020-06-26T12:59:33Z</time>
      </trkpt>
      <trkpt lat="44.05649" lon="7.45336">
        <ele>2193.686</ele>
        <time>2020-06-26T12:59:48Z</time>
      </trkpt>
      <trkpt lat="44.05654" lon="7.45342">
        <ele>2193.268</ele>
        <time>2020-06-26T13:00:03Z</time>
      </trkpt>
      <trkpt lat="44.05654" lon="7.45342">
        <ele>2193.268</ele>
        <time>2020-06-26T13:00:19Z</time>
      </trkpt>
      <trkpt lat="44.05654" lon="7.45342">
        <ele>2193.268</ele>
        <time>2020-06-26T13:00:35Z</time>
      </trkpt>
      <trkpt lat="44.05654" lon="7.45342">
        <ele>2193.268</ele>
        <time>2020-06-26T13:00:51Z</time>
      </trkpt>
      <trkpt lat="44.05654" lon="7.45341">
        <ele>2193.217</ele>
        <time>2020-06-26T13:01:07Z</time>
      </trkpt>
      <trkpt lat="44.05658" lon="7.4533">
        <ele>2190.444</ele>
        <time>2020-06-26T13:01:23Z</time>
      </trkpt>
      <trkpt lat="44.05666" lon="7.45338">
        <ele>2187.958</ele>
        <time>2020-06-26T13:01:39Z</time>
      </trkpt>
      <trkpt lat="44.05667" lon="7.45342">
        <ele>2186.224</ele>
        <time>2020-06-26T13:01:55Z</time>
      </trkpt>
      <trkpt lat="44.05668" lon="7.45342">
        <ele>2185.42</ele>
        <time>2020-06-26T13:02:11Z</time>
      </trkpt>
      <trkpt lat="44.05668" lon="7.45342">
        <ele>2185.42</ele>
        <time>2020-06-26T13:02:26Z</time>
      </trkpt>
      <trkpt lat="44.05666" lon="7.45341">
        <ele>2185.251</ele>
        <time>2020-06-26T13:02:41Z</time>
      </trkpt>
      <trkpt lat="44.05666" lon="7.45341">
        <ele>2184.827</ele>
        <time>2020-06-26T13:02:57Z</time>
      </trkpt>
      <trkpt lat="44.05666" lon="7.45341">
        <ele>2184.827</ele>
        <time>2020-06-26T13:03:13Z</time>
      </trkpt>
      <trkpt lat="44.05666" lon="7.45341">
        <ele>2184.827</ele>
        <time>2020-06-26T13:03:28Z</time>
      </trkpt>
      <trkpt lat="44.05665" lon="7.45341">
        <ele>2184.724</ele>
        <time>2020-06-26T13:03:43Z</time>
      </trkpt>
      <trkpt lat="44.05663" lon="7.45341">
        <ele>2184.44</ele>
        <time>2020-06-26T13:03:59Z</time>
      </trkpt>
      <trkpt lat="44.05663" lon="7.45338">
        <ele>2185.207</ele>
        <time>2020-06-26T13:04:14Z</time>
      </trkpt>
      <trkpt lat="44.05663" lon="7.45338">
        <ele>2185.207</ele>
        <time>2020-06-26T13:04:30Z</time>
      </trkpt>
      <trkpt lat="44.05663" lon="7.45338">
        <ele>2185.207</ele>
        <time>2020-06-26T13:04:45Z</time>
      </trkpt>
      <trkpt lat="44.05663" lon="7.45338">
        <ele>2185.207</ele>
        <time>2020-06-26T13:05:01Z</time>
      </trkpt>
      <trkpt lat="44.05663" lon="7.45338">
        <ele>2185.207</ele>
        <time>2020-06-26T13:05:17Z</time>
      </trkpt>
      <trkpt lat="44.05663" lon="7.45338">
        <ele>2185.207</ele>
        <time>2020-06-26T13:05:32Z</time>
      </trkpt>
      <trkpt lat="44.05663" lon="7.45338">
        <ele>2185.207</ele>
        <time>2020-06-26T13:05:48Z</time>
      </trkpt>
      <trkpt lat="44.05663" lon="7.45338">
        <ele>2185.207</ele>
        <time>2020-06-26T13:06:03Z</time>
      </trkpt>
      <trkpt lat="44.05663" lon="7.45338">
        <ele>2185.207</ele>
        <time>2020-06-26T13:06:18Z</time>
      </trkpt>
      <trkpt lat="44.05663" lon="7.45338">
        <ele>2185.207</ele>
        <time>2020-06-26T13:06:33Z</time>
      </trkpt>
      <trkpt lat="44.05663" lon="7.45338">
        <ele>2185.207</ele>
        <time>2020-06-26T13:06:49Z</time>
      </trkpt>
      <trkpt lat="44.05663" lon="7.45338">
        <ele>2185.207</ele>
        <time>2020-06-26T13:07:05Z</time>
      </trkpt>
      <trkpt lat="44.05663" lon="7.45338">
        <ele>2185.207</ele>
        <time>2020-06-26T13:07:21Z</time>
      </trkpt>
      <trkpt lat="44.05663" lon="7.45338">
        <ele>2185.207</ele>
        <time>2020-06-26T13:07:36Z</time>
      </trkpt>
      <trkpt lat="44.05663" lon="7.45338">
        <ele>2185.207</ele>
        <time>2020-06-26T13:07:52Z</time>
      </trkpt>
      <trkpt lat="44.05663" lon="7.45338">
        <ele>2185.207</ele>
        <time>2020-06-26T13:08:08Z</time>
      </trkpt>
      <trkpt lat="44.05664" lon="7.45338">
        <ele>2185.597</ele>
        <time>2020-06-26T13:08:24Z</time>
      </trkpt>
      <trkpt lat="44.05664" lon="7.45338">
        <ele>2185.597</ele>
        <time>2020-06-26T13:08:39Z</time>
      </trkpt>
      <trkpt lat="44.05664" lon="7.45338">
        <ele>2185.597</ele>
        <time>2020-06-26T13:08:54Z</time>
      </trkpt>
      <trkpt lat="44.05664" lon="7.45338">
        <ele>2185.597</ele>
        <time>2020-06-26T13:09:09Z</time>
      </trkpt>
      <trkpt lat="44.05664" lon="7.45338">
        <ele>2185.597</ele>
        <time>2020-06-26T13:09:25Z</time>
      </trkpt>
      <trkpt lat="44.05664" lon="7.45338">
        <ele>2185.597</ele>
        <time>2020-06-26T13:09:41Z</time>
      </trkpt>
      <trkpt lat="44.05664" lon="7.45338">
        <ele>2185.597</ele>
        <time>2020-06-26T13:09:57Z</time>
      </trkpt>
      <trkpt lat="44.05664" lon="7.45338">
        <ele>2185.597</ele>
        <time>2020-06-26T13:10:13Z</time>
      </trkpt>
      <trkpt lat="44.05664" lon="7.45338">
        <ele>2185.597</ele>
        <time>2020-06-26T13:10:29Z</time>
      </trkpt>
      <trkpt lat="44.05664" lon="7.45338">
        <ele>2185.597</ele>
        <time>2020-06-26T13:10:44Z</time>
      </trkpt>
      <trkpt lat="44.05664" lon="7.45338">
        <ele>2185.597</ele>
        <time>2020-06-26T13:11:00Z</time>
      </trkpt>
      <trkpt lat="44.05664" lon="7.45338">
        <ele>2185.459</ele>
        <time>2020-06-26T13:11:16Z</time>
      </trkpt>
      <trkpt lat="44.05665" lon="7.45339">
        <ele>2185.08</ele>
        <time>2020-06-26T13:11:32Z</time>
      </trkpt>
      <trkpt lat="44.05666" lon="7.45339">
        <ele>2185.421</ele>
        <time>2020-06-26T13:11:47Z</time>
      </trkpt>
      <trkpt lat="44.05666" lon="7.45339">
        <ele>2185.421</ele>
        <time>2020-06-26T13:12:03Z</time>
      </trkpt>
      <trkpt lat="44.05666" lon="7.45339">
        <ele>2185.421</ele>
        <time>2020-06-26T13:12:19Z</time>
      </trkpt>
      <trkpt lat="44.05666" lon="7.45339">
        <ele>2185.421</ele>
        <time>2020-06-26T13:12:34Z</time>
      </trkpt>
      <trkpt lat="44.05667" lon="7.45326">
        <ele>2185.586</ele>
        <time>2020-06-26T13:12:50Z</time>
      </trkpt>
      <trkpt lat="44.05671" lon="7.4531">
        <ele>2181.949</ele>
        <time>2020-06-26T13:13:06Z</time>
      </trkpt>
      <trkpt lat="44.05684" lon="7.453">
        <ele>2180.163</ele>
        <time>2020-06-26T13:13:21Z</time>
      </trkpt>
      <trkpt lat="44.05695" lon="7.45288">
        <ele>2178.78</ele>
        <time>2020-06-26T13:13:37Z</time>
      </trkpt>
      <trkpt lat="44.057" lon="7.45265">
        <ele>2176.74</ele>
        <time>2020-06-26T13:13:53Z</time>
      </trkpt>
      <trkpt lat="44.05705" lon="7.45247">
        <ele>2177.302</ele>
        <time>2020-06-26T13:14:08Z</time>
      </trkpt>
      <trkpt lat="44.05708" lon="7.45237">
        <ele>2176.695</ele>
        <time>2020-06-26T13:14:24Z</time>
      </trkpt>
      <trkpt lat="44.05716" lon="7.45224">
        <ele>2175.318</ele>
        <time>2020-06-26T13:14:40Z</time>
      </trkpt>
      <trkpt lat="44.05722" lon="7.45217">
        <ele>2173.744</ele>
        <time>2020-06-26T13:14:55Z</time>
      </trkpt>
      <trkpt lat="44.05732" lon="7.45209">
        <ele>2172.908</ele>
        <time>2020-06-26T13:15:11Z</time>
      </trkpt>
      <trkpt lat="44.05735" lon="7.45215">
        <ele>2169.195</ele>
        <time>2020-06-26T13:15:26Z</time>
      </trkpt>
      <trkpt lat="44.05741" lon="7.45235">
        <ele>2165.868</ele>
        <time>2020-06-26T13:15:42Z</time>
      </trkpt>
      <trkpt lat="44.05752" lon="7.45251">
        <ele>2165.798</ele>
        <time>2020-06-26T13:15:58Z</time>
      </trkpt>
      <trkpt lat="44.05761" lon="7.45257">
        <ele>2162.711</ele>
        <time>2020-06-26T13:16:13Z</time>
      </trkpt>
      <trkpt lat="44.05766" lon="7.45262">
        <ele>2162.5</ele>
        <time>2020-06-26T13:16:29Z</time>
      </trkpt>
      <trkpt lat="44.05764" lon="7.45272">
        <ele>2161.821</ele>
        <time>2020-06-26T13:16:45Z</time>
      </trkpt>
      <trkpt lat="44.05764" lon="7.45289">
        <ele>2162.574</ele>
        <time>2020-06-26T13:17:01Z</time>
      </trkpt>
      <trkpt lat="44.05764" lon="7.45289">
        <ele>2162.574</ele>
        <time>2020-06-26T13:17:17Z</time>
      </trkpt>
      <trkpt lat="44.05764" lon="7.45289">
        <ele>2162.574</ele>
        <time>2020-06-26T13:17:33Z</time>
      </trkpt>
      <trkpt lat="44.05764" lon="7.45289">
        <ele>2162.574</ele>
        <time>2020-06-26T13:17:48Z</time>
      </trkpt>
      <trkpt lat="44.05764" lon="7.45289">
        <ele>2162.574</ele>
        <time>2020-06-26T13:18:04Z</time>
      </trkpt>
      <trkpt lat="44.05764" lon="7.45289">
        <ele>2162.574</ele>
        <time>2020-06-26T13:18:19Z</time>
      </trkpt>
      <trkpt lat="44.05763" lon="7.45289">
        <ele>2161.576</ele>
        <time>2020-06-26T13:18:34Z</time>
      </trkpt>
      <trkpt lat="44.05763" lon="7.45289">
        <ele>2161.576</ele>
        <time>2020-06-26T13:18:50Z</time>
      </trkpt>
      <trkpt lat="44.05763" lon="7.45289">
        <ele>2161.576</ele>
        <time>2020-06-26T13:19:06Z</time>
      </trkpt>
      <trkpt lat="44.05763" lon="7.45289">
        <ele>2161.576</ele>
        <time>2020-06-26T13:19:21Z</time>
      </trkpt>
      <trkpt lat="44.05763" lon="7.45289">
        <ele>2161.576</ele>
        <time>2020-06-26T13:19:36Z</time>
      </trkpt>
      <trkpt lat="44.05763" lon="7.4529">
        <ele>2161.262</ele>
        <time>2020-06-26T13:19:52Z</time>
      </trkpt>
      <trkpt lat="44.05763" lon="7.4529">
        <ele>2161.262</ele>
        <time>2020-06-26T13:20:08Z</time>
      </trkpt>
      <trkpt lat="44.05763" lon="7.4529">
        <ele>2161.262</ele>
        <time>2020-06-26T13:20:23Z</time>
      </trkpt>
      <trkpt lat="44.05763" lon="7.4529">
        <ele>2161.262</ele>
        <time>2020-06-26T13:20:39Z</time>
      </trkpt>
      <trkpt lat="44.05763" lon="7.4529">
        <ele>2161.262</ele>
        <time>2020-06-26T13:20:55Z</time>
      </trkpt>
      <trkpt lat="44.05763" lon="7.4529">
        <ele>2161.262</ele>
        <time>2020-06-26T13:21:11Z</time>
      </trkpt>
      <trkpt lat="44.05763" lon="7.4529">
        <ele>2161.262</ele>
        <time>2020-06-26T13:21:27Z</time>
      </trkpt>
      <trkpt lat="44.05763" lon="7.4529">
        <ele>2161.262</ele>
        <time>2020-06-26T13:21:43Z</time>
      </trkpt>
      <trkpt lat="44.05763" lon="7.4529">
        <ele>2161.262</ele>
        <time>2020-06-26T13:21:59Z</time>
      </trkpt>
      <trkpt lat="44.05763" lon="7.4529">
        <ele>2161.262</ele>
        <time>2020-06-26T13:22:15Z</time>
      </trkpt>
      <trkpt lat="44.05763" lon="7.4529">
        <ele>2161.262</ele>
        <time>2020-06-26T13:22:31Z</time>
      </trkpt>
      <trkpt lat="44.05763" lon="7.4529">
        <ele>2161.262</ele>
        <time>2020-06-26T13:22:46Z</time>
      </trkpt>
      <trkpt lat="44.05763" lon="7.4529">
        <ele>2161.262</ele>
        <time>2020-06-26T13:23:02Z</time>
      </trkpt>
      <trkpt lat="44.05763" lon="7.4529">
        <ele>2161.262</ele>
        <time>2020-06-26T13:23:17Z</time>
      </trkpt>
      <trkpt lat="44.05763" lon="7.4529">
        <ele>2161.262</ele>
        <time>2020-06-26T13:23:33Z</time>
      </trkpt>
      <trkpt lat="44.05763" lon="7.4529">
        <ele>2161.262</ele>
        <time>2020-06-26T13:23:49Z</time>
      </trkpt>
      <trkpt lat="44.05763" lon="7.4529">
        <ele>2161.262</ele>
        <time>2020-06-26T13:24:05Z</time>
      </trkpt>
      <trkpt lat="44.05763" lon="7.4529">
        <ele>2161.262</ele>
        <time>2020-06-26T13:24:21Z</time>
      </trkpt>
      <trkpt lat="44.05763" lon="7.4529">
        <ele>2161.262</ele>
        <time>2020-06-26T13:24:37Z</time>
      </trkpt>
      <trkpt lat="44.05763" lon="7.4529">
        <ele>2161.262</ele>
        <time>2020-06-26T13:24:53Z</time>
      </trkpt>
      <trkpt lat="44.05763" lon="7.4529">
        <ele>2161.262</ele>
        <time>2020-06-26T13:25:08Z</time>
      </trkpt>
      <trkpt lat="44.05766" lon="7.45298">
        <ele>2159.308</ele>
        <time>2020-06-26T13:27:23Z</time>
      </trkpt>
      <trkpt lat="44.05766" lon="7.45287">
        <ele>2178.333</ele>
        <time>2020-06-26T13:27:39Z</time>
      </trkpt>
      <trkpt lat="44.05766" lon="7.45288">
        <ele>2176.086</ele>
        <time>2020-06-26T13:27:54Z</time>
      </trkpt>
      <trkpt lat="44.05765" lon="7.45288">
        <ele>2173.594</ele>
        <time>2020-06-26T13:28:10Z</time>
      </trkpt>
      <trkpt lat="44.05766" lon="7.45288">
        <ele>2171.592</ele>
        <time>2020-06-26T13:28:26Z</time>
      </trkpt>
      <trkpt lat="44.05766" lon="7.45288">
        <ele>2171.592</ele>
        <time>2020-06-26T13:28:42Z</time>
      </trkpt>
      <trkpt lat="44.05766" lon="7.45288">
        <ele>2171.592</ele>
        <time>2020-06-26T13:28:57Z</time>
      </trkpt>
      <trkpt lat="44.05766" lon="7.45288">
        <ele>2171.592</ele>
        <time>2020-06-26T13:29:12Z</time>
      </trkpt>
      <trkpt lat="44.05766" lon="7.45288">
        <ele>2171.592</ele>
        <time>2020-06-26T13:29:28Z</time>
      </trkpt>
      <trkpt lat="44.05766" lon="7.45288">
        <ele>2171.592</ele>
        <time>2020-06-26T13:29:43Z</time>
      </trkpt>
      <trkpt lat="44.05766" lon="7.45288">
        <ele>2171.592</ele>
        <time>2020-06-26T13:29:59Z</time>
      </trkpt>
      <trkpt lat="44.05766" lon="7.45288">
        <ele>2171.592</ele>
        <time>2020-06-26T13:30:14Z</time>
      </trkpt>
      <trkpt lat="44.05766" lon="7.45288">
        <ele>2171.592</ele>
        <time>2020-06-26T13:30:29Z</time>
      </trkpt>
      <trkpt lat="44.05766" lon="7.45288">
        <ele>2171.592</ele>
        <time>2020-06-26T13:30:45Z</time>
      </trkpt>
      <trkpt lat="44.05766" lon="7.45288">
        <ele>2171.592</ele>
        <time>2020-06-26T13:31:01Z</time>
      </trkpt>
      <trkpt lat="44.05766" lon="7.45288">
        <ele>2171.592</ele>
        <time>2020-06-26T13:31:16Z</time>
      </trkpt>
      <trkpt lat="44.05766" lon="7.45288">
        <ele>2171.592</ele>
        <time>2020-06-26T13:31:31Z</time>
      </trkpt>
      <trkpt lat="44.05766" lon="7.45288">
        <ele>2171.592</ele>
        <time>2020-06-26T13:31:47Z</time>
      </trkpt>
      <trkpt lat="44.05766" lon="7.45288">
        <ele>2171.592</ele>
        <time>2020-06-26T13:32:02Z</time>
      </trkpt>
      <trkpt lat="44.05766" lon="7.45288">
        <ele>2171.592</ele>
        <time>2020-06-26T13:32:18Z</time>
      </trkpt>
      <trkpt lat="44.05766" lon="7.45288">
        <ele>2171.592</ele>
        <time>2020-06-26T13:32:33Z</time>
      </trkpt>
      <trkpt lat="44.05766" lon="7.45288">
        <ele>2171.592</ele>
        <time>2020-06-26T13:32:49Z</time>
      </trkpt>
      <trkpt lat="44.05766" lon="7.45288">
        <ele>2171.592</ele>
        <time>2020-06-26T13:33:05Z</time>
      </trkpt>
      <trkpt lat="44.05766" lon="7.45288">
        <ele>2171.592</ele>
        <time>2020-06-26T13:33:21Z</time>
      </trkpt>
      <trkpt lat="44.05766" lon="7.45288">
        <ele>2171.592</ele>
        <time>2020-06-26T13:33:36Z</time>
      </trkpt>
      <trkpt lat="44.05766" lon="7.45288">
        <ele>2171.592</ele>
        <time>2020-06-26T13:33:51Z</time>
      </trkpt>
      <trkpt lat="44.05766" lon="7.45288">
        <ele>2171.592</ele>
        <time>2020-06-26T13:34:07Z</time>
      </trkpt>
      <trkpt lat="44.05766" lon="7.45288">
        <ele>2171.592</ele>
        <time>2020-06-26T13:34:23Z</time>
      </trkpt>
      <trkpt lat="44.05766" lon="7.45288">
        <ele>2171.592</ele>
        <time>2020-06-26T13:34:39Z</time>
      </trkpt>
      <trkpt lat="44.05766" lon="7.45288">
        <ele>2171.592</ele>
        <time>2020-06-26T13:34:55Z</time>
      </trkpt>
      <trkpt lat="44.05766" lon="7.45288">
        <ele>2171.592</ele>
        <time>2020-06-26T13:35:11Z</time>
      </trkpt>
      <trkpt lat="44.05766" lon="7.45288">
        <ele>2171.592</ele>
        <time>2020-06-26T13:35:26Z</time>
      </trkpt>
      <trkpt lat="44.05766" lon="7.45288">
        <ele>2171.592</ele>
        <time>2020-06-26T13:35:42Z</time>
      </trkpt>
      <trkpt lat="44.0578" lon="7.45285">
        <ele>2184.056</ele>
        <time>2020-06-26T13:51:02Z</time>
      </trkpt>
    </trkseg>
  </trk>
</gpx>